[[{"header":{"parameterUnit":"m.s-1","parameterCategory":1,"la1":30.6,"la2":29.2853,"lo1":-89.7004,"lo2":-87.6739,"dy":0.0162,"dx":0.0183,"nx":112,"ny":82,"refTime":"2023-06-17T12:00:00:Z","depth":0,"parameterNumber":2,"parameterNumberName":"U-component_of_WINDS"},"data":[0.0,0.0,0.0,0.0,0.0,0.0,0.0,0.0,0.0,0.0,0.0,0.0,0.0,0.0,0.0,0.0,0.0,0.0,0.0,0.0,0.0,0.0,0.0,0.0,0.0,0.0,0.0,0.0,0.0,0.0,0.0,0.0,0.0,0.0,0.0,0.0,0.0,0.0,0.0,0.0,0.0,0.0,0.0,0.0,0.0,0.0,0.0,0.0,0.0,0.0,0.0,0.0,0.0,0.0,0.0,0.0,0.0,0.0,0.0,0.0,0.0,0.0,0.0,0.0,0.0,0.0,0.0,0.0,0.0,0.0,0.0,0.0,0.0,0.0,0.0,0.0,0.0,0.0,0.0,0.0,0.0,0.0,0.0,0.0,0.0,0.0,0.0,0.0,0.0,0.0,-3.2652,-3.5596,-3.765,-3.8799,-3.8642,-3.7957,-3.6833,-3.5206,0.0,0.0,0.0,0.0,0.0,0.0,0.0,0.0,0.0,0.0,0.0,0.0,0.0,0.0,0.0,0.0,0.0,0.0,0.0,0.0,0.0,0.0,0.0,0.0,0.0,0.0,0.0,0.0,0.0,0.0,0.0,0.0,0.0,0.0,0.0,0.0,0.0,0.0,0.0,0.0,0.0,0.0,0.0,0.0,0.0,0.0,0.0,0.0,0.0,0.0,0.0,0.0,0.0,0.0,0.0,0.0,0.0,0.0,0.0,0.0,0.0,0.0,0.0,0.0,0.0,0.0,0.0,0.0,0.0,0.0,0.0,0.0,0.0,0.0,0.0,0.0,0.0,0.0,0.0,0.0,0.0,0.0,0.0,0.0,0.0,0.0,0.0,0.0,0.0,0.0,0.0,0.0,0.0,0.0,0.0,0.0,0.0,0.0,0.0,0.0,0.0,0.0,0.0,0.0,-3.257,-3.5957,-3.8142,-3.9123,-3.8401,-3.8748,-3.7777,-3.4949,0.0,0.0,0.0,0.0,0.0,0.0,0.0,0.0,0.0,0.0,0.0,0.0,0.0,0.0,0.0,0.0,0.0,0.0,0.0,0.0,0.0,0.0,0.0,0.0,0.0,0.0,0.0,0.0,0.0,0.0,0.0,0.0,0.0,0.0,0.0,0.0,0.0,0.0,0.0,0.0,0.0,0.0,0.0,0.0,0.0,0.0,0.0,0.0,0.0,0.0,0.0,0.0,0.0,0.0,0.0,0.0,0.0,0.0,0.0,0.0,0.0,0.0,0.0,0.0,0.0,0.0,0.0,0.0,0.0,0.0,0.0,0.0,0.0,0.0,0.0,0.0,0.0,0.0,0.0,0.0,0.0,0.0,0.0,0.0,0.0,0.0,0.0,0.0,0.0,0.0,0.0,0.0,0.0,0.0,0.0,0.0,0.0,0.0,0.0,0.0,0.0,0.0,0.0,-3.2285,-3.4136,-3.6489,-3.8215,-3.9062,-3.8717,-3.8904,-3.7779,-3.4893,-3.3014,0.0,0.0,0.0,0.0,0.0,0.0,0.0,0.0,0.0,0.0,0.0,0.0,0.0,0.0,0.0,0.0,0.0,0.0,0.0,0.0,0.0,0.0,0.0,0.0,0.0,0.0,0.0,0.0,0.0,0.0,0.0,0.0,0.0,0.0,0.0,0.0,0.0,0.0,0.0,0.0,0.0,0.0,0.0,0.0,0.0,0.0,0.0,0.0,0.0,0.0,0.0,0.0,0.0,0.0,0.0,0.0,0.0,0.0,0.0,0.0,0.0,0.0,0.0,0.0,0.0,0.0,0.0,0.0,0.0,0.0,0.0,0.0,0.0,0.0,0.0,0.0,0.0,0.0,0.0,0.0,0.0,0.0,0.0,0.0,0.0,0.0,0.0,0.0,0.0,0.0,0.0,0.0,0.0,0.0,0.0,0.0,0.0,0.0,0.0,0.0,0.0,0.0,-3.3287,-3.5502,-3.7093,-3.8309,-3.8964,-3.8963,-3.8866,-3.7591,-3.4835,-3.3236,0.0,0.0,0.0,0.0,0.0,0.0,0.0,0.0,0.0,0.0,0.0,0.0,0.0,0.0,0.0,0.0,0.0,0.0,0.0,0.0,0.0,0.0,0.0,0.0,0.0,0.0,0.0,0.0,0.0,0.0,0.0,0.0,0.0,0.0,0.0,0.0,0.0,0.0,0.0,0.0,0.0,0.0,0.0,0.0,0.0,0.0,0.0,0.0,0.0,0.0,0.0,0.0,0.0,0.0,0.0,0.0,0.0,0.0,0.0,0.0,0.0,0.0,0.0,0.0,0.0,0.0,0.0,0.0,0.0,0.0,0.0,0.0,0.0,0.0,0.0,0.0,0.0,0.0,0.0,0.0,0.0,0.0,0.0,0.0,0.0,0.0,0.0,0.0,0.0,0.0,0.0,0.0,0.0,0.0,0.0,0.0,0.0,0.0,0.0,0.0,0.0,0.0,-3.3599,-3.5689,-3.7717,-3.8558,-3.8963,-3.8834,-3.8801,-3.756,-3.4719,-3.318,0.0,0.0,0.0,0.0,0.0,0.0,0.0,0.0,0.0,0.0,0.0,0.0,0.0,0.0,0.0,0.0,0.0,0.0,0.0,0.0,0.0,0.0,0.0,0.0,0.0,0.0,0.0,0.0,0.0,0.0,0.0,0.0,0.0,0.0,0.0,0.0,0.0,0.0,0.0,0.0,0.0,0.0,0.0,0.0,0.0,0.0,0.0,0.0,0.0,0.0,0.0,0.0,0.0,0.0,0.0,0.0,0.0,0.0,0.0,0.0,0.0,0.0,0.0,0.0,0.0,0.0,0.0,0.0,0.0,0.0,0.0,0.0,0.0,0.0,0.0,0.0,0.0,0.0,0.0,0.0,0.0,0.0,0.0,0.0,0.0,0.0,0.0,0.0,0.0,0.0,0.0,0.0,0.0,0.0,0.0,0.0,0.0,0.0,0.0,0.0,0.0,0.0,-3.3352,-3.5424,-3.7466,-3.8302,-3.8671,-3.8606,-3.8606,-3.7464,-3.4659,0.0,0.0,0.0,0.0,0.0,0.0,0.0,0.0,0.0,0.0,0.0,0.0,0.0,0.0,0.0,0.0,0.0,0.0,0.0,0.0,0.0,0.0,0.0,0.0,0.0,0.0,0.0,0.0,0.0,0.0,0.0,0.0,0.0,0.0,0.0,0.0,0.0,0.0,0.0,0.0,0.0,0.0,0.0,0.0,0.0,0.0,0.0,0.0,0.0,0.0,0.0,0.0,0.0,0.0,0.0,0.0,0.0,0.0,0.0,0.0,0.0,0.0,0.0,0.0,0.0,0.0,0.0,0.0,0.0,0.0,0.0,0.0,0.0,0.0,0.0,0.0,0.0,0.0,0.0,0.0,0.0,0.0,0.0,0.0,0.0,0.0,0.0,0.0,0.0,0.0,0.0,0.0,0.0,0.0,0.0,0.0,0.0,0.0,0.0,0.0,0.0,0.0,-3.1609,-3.3365,-3.5367,-3.7584,-3.8231,-3.8508,-3.8508,-3.8508,-3.7369,-3.469,0.0,0.0,0.0,0.0,0.0,0.0,0.0,0.0,0.0,0.0,0.0,0.0,0.0,0.0,0.0,0.0,0.0,0.0,0.0,0.0,0.0,0.0,0.0,0.0,0.0,0.0,0.0,0.0,0.0,0.0,0.0,0.0,0.0,0.0,0.0,0.0,0.0,0.0,0.0,0.0,0.0,0.0,0.0,0.0,0.0,0.0,0.0,0.0,0.0,0.0,0.0,0.0,0.0,0.0,0.0,0.0,0.0,0.0,0.0,0.0,0.0,0.0,0.0,0.0,0.0,0.0,0.0,0.0,0.0,0.0,0.0,0.0,0.0,0.0,0.0,0.0,0.0,0.0,0.0,0.0,0.0,0.0,0.0,0.0,0.0,0.0,0.0,0.0,0.0,0.0,0.0,0.0,0.0,0.0,0.0,0.0,0.0,0.0,0.0,0.0,0.0,0.0,-3.2228,-3.3642,-3.5552,-3.8231,-3.8508,-3.8508,-3.8508,-3.8508,-3.7369,0.0,0.0,0.0,0.0,0.0,0.0,0.0,0.0,0.0,0.0,0.0,0.0,0.0,0.0,0.0,0.0,0.0,0.0,0.0,0.0,0.0,0.0,0.0,0.0,0.0,0.0,0.0,0.0,0.0,0.0,0.0,0.0,0.0,0.0,0.0,0.0,0.0,0.0,0.0,0.0,0.0,0.0,0.0,0.0,0.0,0.0,0.0,0.0,0.0,0.0,0.0,0.0,0.0,0.0,0.0,0.0,0.0,0.0,0.0,0.0,0.0,0.0,0.0,0.0,0.0,0.0,0.0,0.0,0.0,0.0,0.0,0.0,0.0,0.0,0.0,0.0,0.0,0.0,0.0,0.0,0.0,0.0,0.0,0.0,0.0,0.0,0.0,0.0,0.0,0.0,0.0,0.0,0.0,0.0,0.0,0.0,0.0,0.0,0.0,0.0,0.0,0.0,0.0,-3.2875,-3.4321,-3.6045,-3.8262,-3.8939,-3.9031,-3.8539,-3.8508,-3.7369,-3.469,0.0,0.0,0.0,0.0,0.0,0.0,0.0,0.0,0.0,0.0,0.0,0.0,0.0,0.0,0.0,0.0,0.0,0.0,0.0,0.0,0.0,0.0,0.0,0.0,0.0,0.0,0.0,0.0,0.0,0.0,0.0,0.0,0.0,0.0,0.0,0.0,0.0,0.0,0.0,0.0,0.0,0.0,0.0,0.0,0.0,0.0,0.0,0.0,0.0,0.0,0.0,0.0,0.0,0.0,0.0,0.0,0.0,0.0,0.0,0.0,0.0,0.0,0.0,0.0,0.0,0.0,0.0,0.0,0.0,0.0,0.0,0.0,0.0,0.0,0.0,0.0,0.0,0.0,0.0,0.0,0.0,0.0,0.0,0.0,0.0,0.0,0.0,0.0,0.0,0.0,0.0,0.0,0.0,0.0,0.0,0.0,0.0,0.0,0.0,0.0,0.0,0.0,-3.3213,-3.4845,-3.6569,-3.8323,-3.9123,-3.9247,-3.8569,-3.8508,-3.7369,-3.469,0.0,0.0,0.0,0.0,0.0,0.0,0.0,0.0,0.0,0.0,0.0,0.0,0.0,0.0,0.0,0.0,0.0,0.0,0.0,0.0,0.0,0.0,0.0,0.0,0.0,0.0,0.0,0.0,0.0,0.0,0.0,0.0,0.0,0.0,0.0,0.0,0.0,0.0,0.0,0.0,0.0,0.0,0.0,0.0,0.0,0.0,0.0,0.0,0.0,0.0,0.0,0.0,0.0,0.0,0.0,0.0,0.0,0.0,0.0,0.0,0.0,0.0,0.0,0.0,0.0,0.0,0.0,0.0,0.0,0.0,0.0,0.0,0.0,0.0,0.0,0.0,0.0,0.0,0.0,0.0,0.0,0.0,0.0,0.0,0.0,0.0,0.0,0.0,0.0,0.0,0.0,0.0,0.0,0.0,0.0,0.0,0.0,0.0,0.0,0.0,0.0,0.0,-3.3583,-3.5399,-3.7123,-3.8446,-3.9216,-3.9305,-3.8662,-3.8539,-3.74,-3.4844,0.0,0.0,0.0,0.0,0.0,0.0,0.0,0.0,0.0,0.0,0.0,0.0,0.0,0.0,0.0,0.0,0.0,0.0,0.0,0.0,0.0,0.0,0.0,0.0,0.0,0.0,0.0,0.0,0.0,0.0,0.0,0.0,0.0,0.0,0.0,0.0,0.0,0.0,0.0,0.0,0.0,0.0,0.0,0.0,0.0,0.0,0.0,0.0,0.0,0.0,0.0,0.0,0.0,0.0,0.0,0.0,0.0,0.0,0.0,0.0,-3.9893,0.0,0.0,0.0,0.0,0.0,0.0,0.0,0.0,0.0,0.0,0.0,0.0,0.0,0.0,0.0,0.0,0.0,0.0,0.0,0.0,0.0,0.0,0.0,0.0,0.0,0.0,0.0,0.0,0.0,0.0,0.0,0.0,0.0,0.0,0.0,0.0,0.0,0.0,0.0,0.0,0.0,-3.5522,-3.6692,-3.78,-3.9154,-3.989,-4.0013,-3.937,-3.8816,-3.78,-3.6168,-3.4383,0.0,0.0,0.0,0.0,0.0,0.0,0.0,0.0,0.0,0.0,0.0,0.0,0.0,0.0,0.0,0.0,0.0,0.0,0.0,0.0,0.0,0.0,0.0,0.0,0.0,0.0,0.0,0.0,0.0,0.0,0.0,0.0,0.0,0.0,0.0,0.0,0.0,0.0,0.0,0.0,0.0,0.0,0.0,0.0,0.0,0.0,0.0,0.0,0.0,0.0,0.0,0.0,0.0,0.0,0.0,0.0,0.0,0.0,0.0,0.0,-4.1877,0.0,0.0,0.0,0.0,0.0,0.0,0.0,0.0,0.0,0.0,0.0,0.0,0.0,0.0,0.0,0.0,0.0,0.0,0.0,0.0,0.0,0.0,0.0,0.0,0.0,0.0,0.0,0.0,0.0,0.0,0.0,0.0,0.0,0.0,0.0,0.0,0.0,0.0,0.0,0.0,-3.6322,-3.7646,-3.8754,-3.9431,-4.0105,-4.0228,-3.9551,-3.9185,-3.8292,-3.6599,-3.5491,0.0,0.0,0.0,0.0,0.0,0.0,0.0,0.0,0.0,0.0,0.0,0.0,0.0,0.0,0.0,0.0,0.0,0.0,0.0,0.0,0.0,0.0,0.0,0.0,0.0,0.0,0.0,0.0,0.0,0.0,0.0,0.0,0.0,0.0,0.0,0.0,0.0,0.0,0.0,0.0,0.0,0.0,0.0,0.0,0.0,0.0,0.0,0.0,0.0,0.0,0.0,0.0,0.0,-4.2785,-4.4357,-4.6378,-4.651,-4.7305,-4.8431,-4.6238,-4.5063,-4.4686,-4.4686,0.0,0.0,0.0,0.0,0.0,0.0,0.0,0.0,0.0,0.0,0.0,0.0,0.0,0.0,0.0,0.0,0.0,0.0,0.0,0.0,0.0,0.0,0.0,0.0,-4.2713,-4.1913,0.0,0.0,0.0,0.0,0.0,0.0,0.0,0.0,0.0,0.0,0.0,0.0,-3.7153,-3.8662,-3.9767,-3.9982,-4.0536,-4.0566,-3.9924,-3.977,-3.8939,-3.7123,-3.6692,-3.546,0.0,0.0,0.0,0.0,0.0,0.0,0.0,0.0,0.0,0.0,0.0,0.0,0.0,0.0,0.0,0.0,0.0,0.0,0.0,0.0,0.0,0.0,0.0,0.0,0.0,0.0,0.0,0.0,0.0,0.0,0.0,0.0,-1.5734,-1.7093,0.0,0.0,0.0,0.0,0.0,0.0,0.0,0.0,0.0,0.0,0.0,0.0,0.0,-3.7956,-3.9661,-4.1659,-4.334,-4.4751,-4.5823,-4.7139,-4.8696,-4.9326,-5.0088,-5.0884,-5.1149,0.0,-4.7469,-4.7469,0.0,0.0,0.0,0.0,0.0,0.0,0.0,0.0,0.0,0.0,0.0,0.0,0.0,0.0,0.0,0.0,0.0,0.0,0.0,0.0,0.0,0.0,-4.5062,-4.5387,-4.5472,-4.5151,0.0,-4.1304,-3.9092,-3.9092,-3.7986,0.0,0.0,0.0,0.0,0.0,0.0,0.0,-3.9736,-4.0197,-4.0812,-4.2078,-4.2294,-4.2048,-4.137,-4.0755,-4.0013,-3.9152,-3.7461,-3.6322,-3.5953,-3.4844,0.0,0.0,0.0,0.0,0.0,0.0,0.0,0.0,0.0,0.0,0.0,0.0,0.0,0.0,0.0,0.0,0.0,0.0,0.0,0.0,0.0,0.0,0.0,0.0,0.0,0.0,0.0,0.0,0.0,-1.5675,-1.7411,-1.8638,-2.0147,-2.151,0.0,0.0,0.0,0.0,0.0,0.0,0.0,0.0,0.0,-3.7428,-3.8513,-4.0027,-4.2075,-4.3615,-4.5078,-4.6553,-4.8035,-4.9525,-5.0982,-5.2108,-5.3036,-5.3765,-5.4494,-5.4063,-5.2771,-5.1148,-5.0452,-5.0452,0.0,0.0,0.0,0.0,-5.2557,-5.3213,-5.3427,-5.2903,0.0,-5.1528,0.0,0.0,0.0,0.0,0.0,0.0,0.0,0.0,0.0,0.0,0.0,-4.7161,-4.7114,-4.694,-4.6582,-4.497,-4.3137,0.0,-4.0482,-3.9724,-3.9437,0.0,0.0,0.0,0.0,-4.0108,-4.1001,-4.1463,-4.1925,-4.254,-4.2602,-4.2479,-4.2202,-4.1524,-4.0847,-4.0105,-3.8908,-3.7677,-3.6538,-3.5922,-3.4998,0.0,0.0,0.0,0.0,0.0,0.0,0.0,0.0,0.0,0.0,0.0,0.0,0.0,0.0,0.0,0.0,0.0,0.0,0.0,0.0,0.0,0.0,0.0,0.0,0.0,0.0,0.0,0.0,-1.7347,-1.8885,-2.027,-2.1868,-2.3425,0.0,0.0,0.0,0.0,0.0,0.0,-3.4242,-3.5707,-3.7561,-3.9881,-4.0737,-4.2205,-4.4332,-4.5473,-4.6912,-4.8618,-5.0047,-5.1609,-5.3235,-5.4494,-5.5487,-5.6216,-5.7144,-5.7502,-5.7231,-5.4518,-5.3427,-5.339,-5.3136,-5.3489,-5.4175,-5.4508,-5.5084,-5.5672,-5.5698,-5.5168,-5.4483,-5.3928,0.0,-5.1647,-5.0412,0.0,0.0,0.0,0.0,-4.8694,-4.8625,-4.8908,-4.919,-4.9113,-4.8871,-4.8636,-4.8446,-4.7846,-4.6613,0.0,-4.3011,-4.2309,-4.1966,0.0,0.0,0.0,0.0,-4.1925,-4.2078,-4.254,-4.291,-4.3094,-4.3094,-4.3033,-4.2879,-4.2386,-4.174,-4.0812,-4.0136,-3.9031,-3.7338,-3.6938,-3.6199,-3.5028,0.0,0.0,0.0,0.0,0.0,0.0,0.0,0.0,0.0,0.0,0.0,0.0,0.0,0.0,0.0,0.0,0.0,0.0,0.0,0.0,0.0,0.0,0.0,0.0,0.0,0.0,0.0,0.0,0.0,-2.1878,-2.3176,0.0,0.0,0.0,0.0,-3.0662,-3.2698,-3.4433,-3.5823,-3.7647,-3.9592,-4.1692,-4.3292,-4.4937,-4.6698,-4.7619,-4.9227,-5.1602,-5.1882,-5.3218,-5.545,-5.6249,-5.6978,-5.7773,-5.9198,-5.9704,-5.9268,-5.7126,-5.6204,-5.6165,-5.5896,-5.6243,-5.6857,-5.6719,-5.7134,-5.772,-5.7544,-5.6973,-5.6358,-5.6325,-5.4891,-5.3078,-5.2268,-5.1371,0.0,0.0,-5.1,-5.1342,-5.1184,-5.1614,-5.2041,-5.1837,-5.129,-5.0627,-4.9963,-4.9268,-4.8351,0.0,-4.5476,-4.4417,-4.4091,0.0,-4.2878,-4.2546,-4.254,-4.2786,-4.3439,-4.3531,-4.3809,-4.4456,-4.4517,-4.4271,-4.3624,-4.3531,-4.2946,-4.1617,-4.0843,-4.0105,-3.94,-3.8138,-3.7123,-3.6415,-3.5737,0.0,0.0,0.0,0.0,0.0,0.0,0.0,0.0,0.0,0.0,0.0,0.0,0.0,0.0,0.0,0.0,0.0,0.0,0.0,0.0,0.0,0.0,0.0,0.0,0.0,0.0,0.0,0.0,-2.3327,-2.4881,0.0,-2.7714,-2.92,-3.0926,-3.2872,-3.4156,-3.5974,-3.8638,-3.9725,-4.1604,-4.4525,-4.5272,-4.6705,-4.8933,-4.9859,-5.1284,-5.317,-5.4316,-5.5628,-5.7077,-5.8767,-5.958,-5.9754,-6.124,-6.1696,-6.1447,-6.1012,-6.0106,-5.8879,-5.8671,-5.9043,-5.9653,-5.9437,-5.9804,-6.0367,-5.9825,-5.9166,-5.8421,-5.7482,-5.6298,-5.5108,-5.4777,-5.4034,-5.3326,-5.3326,-5.3036,-5.2745,-5.2663,-5.2381,-5.2099,-5.2017,-5.1828,-5.1575,-5.1322,-5.0721,-5.0089,-4.9584,-4.8004,-4.666,-4.6216,-4.5921,-4.5615,-4.5233,-4.5157,-4.5249,-4.5495,-4.5526,-4.5618,-4.5865,-4.5495,-4.5126,-4.488,-4.4117,-4.3408,-4.2946,-4.1832,-4.0909,-4.0166,-3.9244,-3.8292,-3.7153,-3.6383,-3.5401,0.0,0.0,0.0,0.0,0.0,0.0,0.0,0.0,0.0,0.0,0.0,0.0,0.0,0.0,0.0,0.0,0.0,0.0,0.0,0.0,0.0,0.0,0.0,0.0,0.0,0.0,-2.2969,-2.4891,-2.644,-2.797,-2.9514,-3.0993,-3.2659,-3.4637,-3.6022,-3.7865,-4.0382,-4.1856,-4.3724,-4.6124,-4.7297,-4.8739,-5.0455,-5.1799,-5.316,-5.4528,-5.6158,-5.754,-5.8723,-6.0439,-6.1376,-6.1774,-6.299,-6.3514,-6.3505,-6.4118,-6.3518,-6.2195,-6.1605,-6.1528,-6.1723,-6.1543,-6.1627,-6.1757,-6.1303,-6.0773,-6.0069,-5.8615,-5.7711,-5.7045,-5.6531,-5.5879,-5.5325,-5.5325,-5.4836,-5.4316,-5.4316,-5.3724,-5.306,-5.306,-5.2712,-5.2365,-5.2365,-5.1828,-5.1322,-5.1322,-4.9647,-4.811,-4.7653,-4.7388,-4.7045,-4.6683,-4.6603,-4.6603,-4.6603,-4.6603,-4.6603,-4.6603,-4.6203,-4.5834,-4.5618,-4.4795,-4.4086,-4.3624,-4.254,-4.1617,-4.0909,-3.9917,-3.8992,-3.8071,-3.6957,-3.6127,-3.5545,0.0,0.0,0.0,0.0,0.0,0.0,0.0,0.0,0.0,0.0,0.0,0.0,0.0,0.0,0.0,0.0,0.0,0.0,0.0,0.0,0.0,0.0,0.0,-2.1633,-2.304,-2.4717,-2.6536,-2.7745,-2.9316,-3.1404,-3.2897,-3.4353,-3.5819,-3.8277,-4.0091,-4.0941,-4.385,-4.5828,-4.6529,-4.9341,-5.101,-5.1329,-5.3402,-5.4947,-5.5929,-5.7297,-5.8857,-6.0498,-6.1219,-6.2299,-6.3707,-6.446,-6.5008,-6.5505,-6.6222,-6.6371,-6.5999,-6.4606,-6.3635,-6.2987,-6.2987,-6.2534,-6.1919,-6.1841,-6.1703,-6.1248,-5.9801,-5.9216,-5.8812,-5.7425,-5.6846,-5.6606,-5.6606,-5.6398,-5.622,-5.622,-5.5683,-5.5102,-5.5102,-5.4103,-5.3123,-5.3123,-5.2554,-5.2049,-5.2049,-5.0374,-4.8867,-4.8434,-4.7762,-4.7138,-4.6744,-4.6665,0.0,-4.6665,-4.6665,-4.6665,-4.6665,-4.6634,-4.6357,-4.5711,-4.5618,-4.5033,-4.3747,-4.3002,-4.2319,-4.1678,-4.0086,-3.9219,-3.9188,-3.7573,-3.674,-3.674,0.0,0.0,0.0,0.0,0.0,0.0,0.0,0.0,0.0,0.0,0.0,0.0,0.0,0.0,0.0,0.0,0.0,0.0,0.0,0.0,0.0,0.0,-2.3087,-2.3167,-2.4365,-2.5816,-2.7379,-2.9047,-3.0529,-3.1688,-3.3431,-3.5084,-3.6527,-3.8687,-4.0842,-4.2988,-4.4741,-4.6856,-4.9373,-5.0402,-5.1978,-5.4244,-5.4826,-5.6408,-5.8936,-5.9327,-6.062,-6.2725,-6.3445,-6.4205,-6.4948,-6.5665,-6.5979,-6.5966,-6.668,-6.6923,-6.6809,-6.5902,-6.5416,-6.5222,-6.5222,-6.4673,-6.3804,-6.3099,-6.2411,-6.1786,-6.0889,-6.0416,-6.0166,-5.9784,-5.9122,-5.8525,-5.8525,-5.7751,-5.6947,-5.6947,-5.6031,-5.5102,-5.5102,-5.4451,-5.3818,-5.3818,-5.3281,-5.2807,-5.2807,-5.1799,-5.0681,-4.9893,-4.9075,-4.8407,-4.8122,-4.805,0.0,-4.805,-4.805,-4.805,-4.805,-4.7619,-4.725,-4.7065,-4.6142,-4.5395,-4.4872,-4.3768,-4.2958,-4.2657,-4.1273,-3.998,-3.8841,-3.7892,-3.7609,0.0,0.0,0.0,0.0,0.0,0.0,0.0,0.0,0.0,0.0,0.0,0.0,0.0,0.0,0.0,0.0,0.0,0.0,0.0,0.0,0.0,0.0,-2.335,-2.4601,-2.5202,-2.5974,-2.7102,-2.8766,-3.0264,-3.1697,-3.2996,-3.4596,-3.6225,-3.7942,-3.9869,-4.1965,-4.434,-4.6244,-4.8312,-5.0525,-5.2023,-5.3607,-5.5409,-5.6608,-5.815,-5.9935,-6.117,-6.2451,-6.3779,-6.4836,-6.5588,0.0,-6.6923,-6.7313,-6.7489,-6.8234,-6.8525,0.0,0.0,0.0,0.0,0.0,-6.5398,-6.4801,-6.3949,-6.3259,-6.2683,-6.171,-6.1201,-6.0947,-6.063,-5.9949,-5.9317,-5.9317,-5.8527,-5.7674,-5.7674,-5.6821,-5.5891,-5.5651,-5.5051,-5.4451,-5.4166,-5.3787,-5.3492,-5.3406,0.0,0.0,-5.1098,-5.035,-4.9749,-4.9539,-4.9497,-4.9374,-4.9097,-4.9066,-4.8943,-4.8635,-4.8266,-4.7886,-4.7528,-4.676,0.0,0.0,0.0,-4.3214,-4.2478,-4.1721,0.0,0.0,0.0,-3.9367,-3.9649,0.0,0.0,0.0,-3.914,-3.9888,0.0,0.0,0.0,0.0,0.0,0.0,0.0,0.0,0.0,0.0,0.0,0.0,0.0,0.0,0.0,0.0,-2.4825,-2.605,-2.7379,-2.7799,-2.8582,-3.0279,-3.1384,-3.2723,-3.4618,-3.5909,-3.7488,-3.9546,-4.1401,-4.3285,-4.5204,0.0,0.0,0.0,0.0,-5.5571,-5.5895,-5.8421,-5.9878,-6.0235,-6.2793,-6.4153,-6.4412,-6.574,-6.6744,-6.7456,-6.8136,-6.8816,-6.9464,-7.006,-7.0351,-7.017,-6.8895,-6.7838,-6.686,-6.5966,-6.5546,0.0,0.0,0.0,0.0,-6.2426,-6.1756,-6.1403,-6.0739,-6.0076,-5.9538,-5.9444,-5.8938,-5.8415,-5.8352,-5.7737,-5.7042,-5.6347,-5.5651,-5.4913,-5.4261,-5.4103,-5.4017,-5.3833,-5.3114,-5.2417,-5.2169,-5.1463,-5.0913,-5.074,-5.0697,-5.0482,-4.9866,-4.9805,-4.9528,-4.882,0.0,0.0,-4.7487,-4.7323,-4.6651,-4.5263,-4.4455,-4.3469,-4.204,-4.201,-4.1874,-4.1594,-4.1594,-4.1624,-4.1713,-4.1713,-4.2081,-4.271,-4.1354,-4.1713,0.0,0.0,0.0,0.0,0.0,0.0,0.0,0.0,0.0,0.0,0.0,0.0,0.0,0.0,0.0,-2.4849,-2.5968,-2.7265,-2.8926,-2.9699,-3.0281,-3.0815,-3.1881,-3.3135,-3.4675,-3.605,-3.7629,-3.9581,-4.2119,-4.4322,-4.6022,-4.8828,-5.1229,-5.3125,-5.4624,-5.6543,-5.8874,-5.9425,-6.0882,-6.3182,0.0,0.0,-6.6614,-6.7424,-6.8201,-6.8914,-6.9658,-7.0047,-7.0209,-7.0046,-6.9902,-6.9659,-6.958,-6.9013,-6.8144,-6.764,-6.6823,-6.5784,-6.5453,-6.459,-6.3526,-6.3273,-6.2748,-6.2144,-6.2067,-6.1529,0.0,-6.0265,-5.9633,-5.897,-5.8447,-5.7737,-5.7042,-5.6347,-5.5651,-5.4913,-5.4261,-5.4103,-5.4017,-5.3833,-5.349,-5.3147,-5.2914,-5.1716,-5.074,-5.0697,-5.0697,-5.0636,-5.0513,-5.0513,-5.0236,-4.9558,-4.9266,-4.8864,-4.8149,-4.7463,-4.683,-4.632,-4.5522,-4.4638,-4.3818,-4.3788,-4.3549,-4.2931,-4.2901,-4.321,-4.3748,-4.3748,-4.4077,-4.4706,-4.3389,-4.32,0.0,0.0,0.0,0.0,0.0,0.0,0.0,0.0,0.0,0.0,0.0,-2.1442,-2.2226,0.0,-2.4932,-2.6028,-2.7365,-2.8675,-2.9824,-3.0821,-3.1577,-3.1837,-3.2894,-3.415,-3.5559,-3.7122,-3.8889,-4.0861,-4.3094,-4.531,-4.7362,-5.0112,-5.2485,-5.4246,-5.6431,-5.8259,-5.9716,-6.1141,-6.2599,-6.4024,-6.5092,-6.6323,-6.7715,-6.8428,-6.914,-6.9885,-7.0441,-7.0712,-7.0692,-7.0749,-7.0588,-7.0371,-7.0534,-6.9841,-6.8723,-6.8044,-6.7367,-6.6701,-6.59,-6.5152,-6.4405,-6.371,-6.3236,-6.2888,-6.2491,-6.194,-6.1245,-6.0518,-5.9823,-5.9159,-5.8464,-5.8022,-5.7579,-5.6884,-5.6157,-5.5462,-5.4767,-5.4269,-5.3888,-5.3627,-5.3409,-5.3188,-5.2922,-5.2233,-5.1713,-5.1713,-5.1713,-5.159,-5.1251,-5.119,-5.0944,-5.0266,-4.9929,-4.9481,-4.8724,-4.7443,-4.6575,-4.6461,-4.5747,-4.5155,-4.4825,-4.4796,-4.4646,-4.4317,-4.4317,-4.4466,-4.4796,-4.4796,-4.5334,-4.6292,-4.5633,-4.5484,0.0,0.0,0.0,0.0,0.0,0.0,0.0,-2.0736,-2.109,-2.1616,-2.2181,-2.2903,-2.3851,-2.492,-2.6042,-2.7182,-2.8689,-2.9917,-3.057,-3.1577,-3.2472,-3.2977,-3.3923,-3.5103,-3.6447,-3.8246,-4.016,-4.2303,-4.4291,-4.6445,-4.8859,-5.1622,-5.383,-5.5367,-5.8205,-5.9976,-6.0558,-6.2858,-6.4283,-6.4866,-6.655,-6.7813,-6.8655,-6.9316,-6.9963,-7.0526,-7.0973,-7.1103,-7.1027,-7.1388,-7.1369,-7.1092,-7.1092,-7.0394,-6.9314,-6.8369,-6.7818,-6.7439,-6.6333,-6.5848,-6.5405,-6.4089,-6.3584,-6.3362,-6.2635,-6.2035,-6.1403,-6.055,-5.9918,-5.9317,-5.8542,-5.8321,-5.8085,-5.739,-5.6789,-5.6157,-5.5216,-5.4486,-5.3859,-5.3409,-5.3313,-5.3228,-5.2959,-5.3006,-5.3006,-5.276,-5.2698,-5.2513,-5.1959,-5.1898,-5.1652,-5.09,-5.059,-5.0053,-4.9122,-4.7705,-4.689,-4.689,-4.6381,-4.6052,-4.6052,-4.6052,-4.6052,-4.6052,-4.6052,-4.6052,-4.6052,-4.6052,-4.6621,-4.7698,-4.7698,-4.7698,-1.8366,-1.8807,-1.911,-1.9219,-1.9761,-2.0318,0.0,-2.102,-2.1616,-2.2055,-2.2809,-2.3735,-2.498,-2.5946,-2.7027,-2.8512,-2.9494,-3.0377,-3.1346,-3.2173,-3.304,-3.4171,-3.4598,-3.5273,-3.6512,-3.843,-4.0631,-4.3019,-4.5556,-4.8036,-5.0344,-5.3086,-5.5495,-5.7576,-5.898,-6.0947,-6.3505,-6.3862,-6.5254,-6.7748,-6.7974,-6.8816,-7.0177,-7.0595,-7.0844,-7.0973,-7.1358,-7.1406,-7.1186,-7.1227,-7.1092,-7.0845,-7.0845,-7.075,-7.0529,-6.977,-6.8671,-6.7565,-6.7407,-6.6586,-6.55,-6.4658,-6.3994,-6.3362,-6.2635,-6.2333,-6.2035,-6.0676,-6.0234,-5.9886,-5.8622,-5.8321,-5.8085,-5.739,-5.7168,-5.6636,-5.5165,-5.4775,-5.4348,-5.3313,-5.3596,-5.3895,-5.3636,-5.4068,-5.4037,-5.2883,-5.2698,-5.2698,-5.2606,-5.2606,-5.2239,-5.1311,-5.1058,-5.0471,-4.9329,-4.906,-4.897,-4.897,-4.891,-4.888,-4.888,-4.888,-4.888,-4.888,-4.888,-4.888,-4.888,-4.888,-4.894,-4.909,-4.909,-4.909,-1.9259,-1.9349,-1.9502,-2.0236,-2.0663,-2.111,-2.1801,-2.2375,-2.288,-2.3273,-2.4293,-2.5254,-2.5864,-2.7114,-2.8373,0.0,-3.0299,-3.1203,-3.1873,-3.2927,-3.3844,-3.442,-3.5993,-3.731,-3.8043,-4.0134,-4.2234,-4.4086,-4.6858,-4.9336,-5.1357,-5.4243,-5.6826,-5.9146,-6.1037,-6.2816,-6.4527,-6.5837,-6.7035,-6.8201,-6.889,-6.9724,-7.0756,-7.0781,-7.092,-7.1119,-7.1296,-7.1203,-7.0957,-7.0957,-7.0901,-7.0789,-7.0789,-7.0789,-7.0694,-6.9967,-6.9051,-6.8166,-6.7755,-6.6965,-6.5985,-6.4879,-6.431,-6.3868,-6.2712,-6.2396,-6.2081,-6.0708,-6.0297,-5.9981,-5.8668,-5.8321,-5.8257,-5.7895,-5.7516,-5.6951,-5.6158,-5.5583,-5.5014,-5.4417,-5.4344,-5.4391,-5.4299,-5.4498,-5.4498,-5.3914,-5.3853,-5.3699,-5.3345,-5.3146,-5.2643,-5.1607,-5.1046,-5.0487,-4.9853,-4.9494,-4.9299,-4.9299,-4.9299,-4.9299,-4.9299,-4.9148,-4.9058,-4.9058,-4.8892,-4.8846,-4.8846,-4.8846,-4.9145,-4.967,-4.967,-4.9895,-2.0023,-2.0051,-2.0189,-2.1127,-2.1544,-2.1924,-2.2802,-2.3409,-2.3931,-2.447,-2.5454,-2.6396,-2.7017,-2.8188,-2.9313,-3.0025,-3.0982,-3.188,-3.2472,-3.3584,-3.4638,-3.5374,-3.736,-3.9129,-4.0323,-4.204,-4.3747,-4.537,-4.8213,-5.0808,-5.3018,-5.5649,-5.8255,-6.0767,-6.2731,-6.4369,-6.5658,-6.7368,-6.8433,-6.8853,-6.9676,-7.0492,-7.1145,-7.1068,-7.1273,-7.1664,-7.1664,-7.1551,-7.1326,-7.1136,-7.1073,-7.1042,-7.0852,-7.0789,-7.0726,-7.0188,-6.943,-6.8608,-6.8071,-6.7344,-6.6365,-6.4974,-6.4532,-6.4247,-6.2857,-6.2396,-6.2112,-6.0929,-6.0455,-6.0012,-5.8875,-5.8447,-5.8321,-5.8321,-5.7849,-5.727,-5.6821,-5.6184,-5.5502,-5.5086,-5.4977,-5.5007,-5.5007,-5.5161,-5.5284,-5.5284,-5.5284,-5.4976,-5.4068,-5.353,-5.2793,-5.1709,-5.1104,-5.0695,-5.0511,-5.0092,-4.9793,-4.9793,-4.9793,-4.9793,-4.9793,-4.9564,-4.9426,-4.9426,-4.9149,-4.9056,-4.9056,-4.9056,-4.9415,-5.0075,-5.0075,-5.0496,-2.0586,-2.1165,-2.1738,-2.1776,-2.2381,-2.2942,-2.3001,-2.3593,-2.4447,-2.5352,-2.5898,-2.6785,-2.86,-2.9125,-2.9653,-3.0794,-3.1495,-3.2226,-3.3201,-3.4016,-3.5345,-3.7641,-3.8435,-4.0032,0.0,-4.378,-4.4816,-4.6803,-4.9687,-5.273,-5.5904,-5.7616,-5.9818,-6.2617,-6.3658,-6.518,-6.7292,-6.806,-6.9116,-7.0546,-7.0578,-7.0908,-7.1557,-7.1951,-7.2369,-7.2748,-7.2748,-7.2748,-7.2685,-7.2053,-7.18,-7.1705,-7.1042,-7.0789,-7.0789,-7.0757,-6.9872,-6.8703,-6.8671,-6.7755,-6.6365,-6.4974,-6.4532,-6.4247,-6.2857,-6.2396,-6.2288,-6.1561,-6.0834,-6.0139,-5.9444,-5.878,-5.8321,-5.8321,-5.8058,-5.7605,-5.6715,-5.6295,-5.5829,-5.49,-5.5222,-5.5653,-5.5653,-5.6238,-5.6748,-5.6748,-5.6748,-5.6207,-5.4884,-5.3727,-5.2637,-5.1709,-5.1339,-5.1199,-5.1199,-5.1169,-5.1169,-5.1169,-5.1169,-5.1169,-5.1169,-5.0905,-5.0733,-5.0733,-5.0555,-5.0442,-5.0442,-5.0442,-5.0442,-5.0471,-5.0471,-5.0795,-2.1262,-2.1568,-2.1911,-2.2478,-2.2815,-2.315,-2.3666,-2.4127,-2.4702,-2.5803,-2.6566,-2.7471,-2.8737,-2.968,-3.0427,-3.1097,-3.2149,-3.3092,-3.3688,-3.5376,-3.6994,-3.8069,-4.0099,0.0,0.0,0.0,0.0,-4.88,-5.1763,-5.4397,-5.6486,-5.9064,-6.1597,-6.4111,-6.5421,-6.6926,-6.8796,-6.95,-7.0332,-7.1292,-7.203,-7.2404,-7.2401,-7.2509,-7.2705,-7.2811,-7.2811,-7.2811,-7.2748,-7.1855,-7.1457,-7.1363,-7.05,-7.0104,-7.0104,-7.0104,-6.9258,-6.8123,-6.8594,-6.7787,-6.6365,-6.4974,-6.4532,-6.4247,-6.2857,-6.2396,-6.2238,-6.1593,-6.0866,-6.0139,-5.9475,-5.878,-5.8274,-5.8089,-5.7965,-5.7715,-5.7042,-5.6838,-5.6634,-5.6163,-5.6317,-5.644,-5.644,-5.6656,-5.6713,-5.6567,-5.612,-5.5612,-5.4992,-5.3624,-5.2584,-5.203,-5.1516,-5.1229,-5.1229,-5.1229,-5.1229,-5.1229,-5.1229,-5.1229,-5.1229,-5.0805,-5.0614,-5.0614,-5.0183,-4.999,-4.999,-4.999,-5.0038,-5.026,-5.0623,-5.1043,-2.1645,-2.1987,-2.2365,-2.2852,-2.3224,-2.3556,-2.4091,-2.4666,-2.5383,-2.6383,-2.7373,-2.8363,-2.929,-3.0213,-3.1014,-3.1713,-3.2732,-3.3817,-3.4966,-3.6561,-3.8141,-3.9566,-4.1704,-4.3783,-4.5727,0.0,0.0,-5.0596,-5.3539,-5.6011,-5.7871,-6.0374,-6.2875,-6.5421,-6.6627,-6.8129,-6.9944,-7.0645,-7.1377,-7.2046,-7.28,-7.3142,-7.3191,-7.3191,-7.3259,-7.3363,-7.3363,-7.3304,-7.3124,-7.1948,-7.1514,-7.142,-7.0219,-6.9787,-6.9787,-6.9787,-6.8945,-6.7877,-6.8233,-6.7517,-6.6238,-6.4819,-6.4398,-6.4247,-6.2857,-6.2396,-6.2302,-6.1877,-6.1055,-6.0202,-5.976,-5.897,-5.8228,-5.7965,-5.7825,-5.7637,-5.718,-5.7036,-5.6971,-5.681,-5.681,-5.681,-5.681,-5.6713,-5.6567,-5.6323,-5.578,-5.5268,-5.491,-5.3929,-5.3134,-5.2624,-5.1977,-5.1558,-5.1558,-5.1349,-5.1229,-5.1229,-5.1229,-5.1182,-5.1058,-5.071,-5.0453,-5.0357,-4.9941,-4.9717,-4.9717,-4.9717,-4.9912,-5.0291,-5.0699,-5.1236,-2.1835,-2.2402,-2.3001,-2.3038,-2.3629,-2.42,-2.4296,-2.5287,-2.6396,-2.7199,-2.8238,-2.929,-3.0228,-3.0748,-3.1408,-3.2632,-3.319,-3.4333,-3.6782,-3.749,-3.8898,-4.2099,-4.3284,-4.4995,-4.7849,-4.9982,0.0,-5.2224,0.0,-5.7668,-5.9944,-6.1698,-6.3817,-6.6586,-6.7344,-6.8703,-7.082,-7.1547,-7.2243,-7.2875,-7.2906,-7.3285,-7.3949,-7.3949,-7.406,-7.4359,-7.4359,-7.4147,-7.3749,-7.2439,-7.1818,-7.1662,-7.0291,-6.9729,-6.9729,-6.9698,-6.8857,-6.7735,-6.7703,-6.705,-6.5919,-6.456,-6.4243,-6.4196,-6.2807,-6.2365,-6.2365,-6.2333,-6.1371,-6.0297,-6.0265,-5.9254,-5.8228,-5.7918,-5.7684,-5.7401,-5.7132,-5.6923,-5.681,-5.681,-5.681,-5.6761,-5.6761,-5.6567,-5.6274,-5.6028,-5.578,-5.537,-5.4737,-5.4616,-5.4247,-5.3343,-5.2636,-5.2247,-5.2247,-5.1648,-5.1259,-5.1259,-5.1229,-5.1058,-5.0793,-5.0614,-5.0357,-5.0086,-4.9815,-4.9717,-4.9717,-4.9717,-5.0017,-5.0734,-5.0714,-5.1381,-2.2515,-2.2852,-2.315,-2.374,-2.4055,-2.4474,-2.5467,-2.5973,-2.6627,-2.8039,-2.8675,-2.9328,-3.0443,-3.0936,-3.1607,-3.282,-3.3731,-3.4992,-3.7042,-3.8706,-4.0677,-4.3096,-4.484,-4.6917,-4.9688,-5.1956,0.0,0.0,-5.7559,-5.9314,-6.109,-6.3754,-6.5901,-6.7313,-6.8513,-6.9936,-7.1547,-7.2748,-7.3443,-7.3633,-7.4139,-7.4336,-7.4288,-7.4288,-7.4202,-7.4026,-7.4026,-7.3685,-7.3094,-7.1982,-7.1242,-7.0683,-6.958,-6.9123,-6.9062,-6.8567,-6.7857,-6.7054,-6.656,-6.612,-6.5589,-6.4246,-6.3985,-6.394,-6.2525,-6.2216,-6.227,-6.1814,-6.0992,-6.017,-5.9696,-5.8766,-5.7918,-5.7684,-5.7401,-5.7132,-5.6923,-5.6858,-5.681,-5.681,-5.6664,-5.6519,-5.6519,-5.6274,-5.6028,-5.5731,-5.5631,-5.5521,-5.534,-5.472,-5.4181,-5.3952,-5.3354,-5.2935,-5.2935,-5.2336,-5.1947,-5.1947,-5.1498,-5.1058,-5.0793,-5.0614,-5.0357,-5.0086,-4.9815,-4.9717,-4.9717,-4.9717,-5.0017,-5.0685,-5.1149,-5.1817,-2.2889,-2.3261,-2.3629,-2.4091,-2.4653,-2.525,-2.6033,-2.676,-2.7606,-2.8612,-2.924,-2.9871,-3.0658,-3.1397,-3.223,-3.3424,-3.4623,-3.608,-3.8058,-3.9812,-4.1801,-4.4297,-4.6299,-4.852,-5.1208,-5.3529,-5.5822,0.0,-5.9386,-6.0854,-6.2654,-6.4786,-6.6735,-6.8296,-6.9422,-7.0809,-7.2485,-7.3439,-7.3914,-7.3914,-7.4291,-7.4328,-7.4178,-7.4178,-7.3997,-7.3692,0.0,-7.2948,-7.2392,-7.1251,-7.0542,-7.0081,-6.9225,-6.8705,-6.8427,-6.8058,-6.7319,-6.6427,-6.6027,-6.5664,-6.5134,-6.3876,-6.3672,-6.3682,-6.2374,-6.2116,-6.2139,-6.1544,-6.0866,-6.0091,-5.9334,-5.8499,-5.7778,-5.7448,-5.718,-5.7036,-5.6858,-5.681,-5.6761,-5.6664,-5.6519,-5.6323,-5.6077,-5.5929,-5.5731,-5.5481,-5.5431,-5.5431,-5.5431,-5.495,-5.464,-5.464,-5.4042,-5.3623,-5.3623,-5.3025,-5.2516,-5.2217,-5.1715,-5.1244,-5.071,-5.0423,-5.0183,-4.9941,-4.9766,-4.9717,-4.9717,-5.0037,-5.0452,-5.1091,-5.173,-5.2368,-2.3348,-2.3868,-2.442,-2.453,-2.5405,-2.6335,-2.6517,-2.7693,-2.88,-2.9101,-2.9846,-3.0558,-3.0973,-3.1849,-3.289,-3.4142,-3.5499,-3.7179,-3.9344,-4.0796,-4.2753,-4.574,-4.7686,-4.9914,-5.2665,-5.4933,-5.7122,-5.9387,-6.0855,-6.2434,-6.4305,-6.5359,-6.7003,-6.9433,-7.0249,-7.1504,-7.3324,-7.3682,-7.3905,-7.3905,-7.3905,-7.3905,-7.3844,-7.3751,-7.3568,-7.3262,0.0,0.0,-7.1598,-7.0398,-6.9843,-6.969,-6.9012,-6.8427,-6.7904,-6.772,-6.6919,-6.5903,-6.5811,-6.5319,-6.4604,-6.3525,-6.3357,-6.3454,-6.2254,-6.1916,-6.1859,-6.132,-6.0706,-5.9996,-5.897,-5.8295,-5.7684,-5.718,-5.7084,-5.7019,-5.6858,-5.681,-5.6713,-5.647,-5.6372,-5.6176,-5.5681,-5.5581,-5.5481,-5.5259,-5.5179,-5.5179,-5.5179,-5.5179,-5.5179,-5.5179,-5.467,-5.4341,-5.4341,-5.3713,-5.3084,-5.2438,-5.2018,-5.145,-5.06,-5.029,-4.999,-4.9717,-4.9717,-4.9717,-4.9717,-5.0336,-5.1004,-5.1643,-5.2281,-5.2891,-2.5072,-2.5318,-2.5607,-2.6287,-2.662,-2.7037,-2.8026,-2.8612,-2.9126,-2.9796,-3.0317,-3.0773,-3.1161,-3.1925,-3.2966,-3.4331,-3.5615,-3.7318,-3.9971,-4.1867,-4.4223,-4.7684,-4.9309,-5.1409,-5.4431,-5.6314,-5.8157,0.0,-6.2537,-6.4248,-6.5111,-6.6344,-6.8095,-7.0469,-7.178,-7.2623,-7.2998,-7.3562,-7.3905,-7.3905,-7.3905,-7.3814,-7.3539,-7.2919,-7.2489,-7.2244,-7.1443,0.0,-7.0244,-6.9997,-6.9566,-6.9012,-6.8335,-6.8027,-6.7781,-6.6673,-6.6119,-6.5842,-6.5257,-6.4611,-6.3872,-6.3125,-6.3039,-6.3056,-6.1743,-6.1512,-6.1433,-6.0264,-5.9826,-5.9419,-5.809,-5.7463,-5.7211,-5.7132,-5.6971,-5.6858,-5.681,-5.681,-5.6713,-5.647,-5.6225,-5.5979,-5.5631,-5.5431,-5.5229,-5.5179,-5.5179,-5.5179,-5.5179,-5.5179,-5.5179,-5.5179,-5.5089,-5.5029,-5.5029,-5.4401,-5.3883,-5.3536,-5.2426,-5.1531,-5.0925,-5.0379,-4.999,-4.9717,-4.9717,-4.9717,-4.9717,-5.0336,-5.1004,-5.1643,-5.2281,-5.2891,-2.5592,-2.6015,-2.6434,-2.6812,-2.7368,-2.8037,-2.8687,-2.9227,-2.9732,-3.0305,-3.066,-3.1078,-3.1781,-3.268,-3.3772,-3.5289,-3.6647,-3.8333,-4.0656,-4.2567,-4.4973,-4.8214,-5.0312,-5.2753,-5.5876,-5.7625,-5.956,-6.1941,-6.336,-6.4631,-6.5786,-6.7791,-6.9569,-7.1111,-7.2078,-7.2792,-7.3226,-7.3353,-7.3447,-7.3447,-7.3447,-7.3138,-7.2706,-7.2366,-7.1874,-7.1383,-7.0675,0.0,-6.9843,-6.9166,-6.8674,-6.8304,-6.7658,-6.7196,-6.6796,-6.615,-6.5688,-6.5288,-6.458,-6.4118,-6.3602,-6.2641,-6.2355,-6.2328,-6.1464,-6.1308,-6.113,-5.9911,-5.9586,-5.9274,-5.7696,-5.718,-5.7084,-5.6971,-5.6906,-5.681,-5.681,-5.6713,-5.6519,-5.6225,-5.5979,-5.5681,-5.5431,-5.528,-5.5179,-5.5179,-5.5179,-5.5179,-5.5179,-5.5179,-5.5179,-5.5179,-5.5179,-5.5128,-5.5006,-5.4708,-5.428,-5.3592,-5.285,-5.2003,-5.1032,-5.0612,-5.0193,-4.9717,-4.9717,-4.9892,-5.0191,-5.0859,-5.1497,-5.2136,-5.2775,-5.321,-2.6186,-2.6727,-2.7262,-2.7338,-2.8172,-2.8975,-2.9177,-2.9758,-3.0343,-3.0777,-3.1069,-3.1529,-3.2517,-3.35,-3.4683,-3.6184,-3.7727,-3.9368,-4.134,-4.331,-4.5693,-4.8563,-5.1168,-5.3879,-5.696,-5.8691,0.0,-6.3213,-6.4193,0.0,-6.6766,-6.9164,-7.0787,-7.1499,-7.2179,-7.2798,-7.3355,-7.3107,-7.2983,-7.2983,-7.2921,-7.2552,-7.1906,-7.1691,-7.1169,-7.0493,-6.9787,0.0,0.0,-6.8102,-6.7611,-6.7396,-6.6836,-6.6252,-6.576,-6.5693,-6.5257,-6.458,-6.4026,-6.3626,-6.3225,-6.2148,-6.1809,-6.1739,-6.1268,-6.101,-6.069,-5.9682,-5.9345,-5.8892,-5.7425,-5.7067,-5.7019,-5.6858,-5.681,-5.6761,-5.6713,-5.6567,-5.6323,-5.5979,-5.5731,-5.5531,-5.5229,-5.5179,-5.5179,-5.5179,-5.5179,-5.5179,-5.5179,-5.5128,-5.5078,-5.5078,-5.5078,-5.5057,-5.4803,-5.4722,-5.4361,-5.3575,-5.3173,-5.2493,-5.1391,-5.09,-5.0481,-5.0104,-4.9959,-5.022,-5.0888,-5.1497,-5.2078,-5.2623,-5.321,-5.35,-2.7773,-2.8156,-2.8433,-2.8827,-2.9305,-2.9742,-2.9973,-3.0305,-3.0789,-3.1319,-3.1757,-3.2326,-3.3075,-3.4092,-3.5147,-3.6239,-3.8088,-4.0083,-4.201,-4.4383,-4.6926,-4.9629,-5.1964,-5.4428,-5.7351,-5.911,-6.092,-6.2987,0.0,0.0,-6.8203,-6.9909,-7.1197,-7.1905,-7.2583,-7.2984,-7.3045,-7.3045,-7.2983,-7.2983,-7.2671,-7.2178,-7.1505,-7.0585,-6.9793,-6.9124,-6.8485,0.0,0.0,-6.7147,-6.6721,-6.6113,-6.57,-6.5508,-6.5386,-6.5084,-6.4549,-6.3903,-6.3787,-6.301,-6.1963,-6.184,-6.1809,-6.1686,-6.1009,-6.0414,-5.9767,-5.9078,-5.843,-5.7783,-5.7043,-5.6858,-5.681,-5.681,-5.681,-5.6713,-5.647,-5.6421,-5.6274,-5.5731,-5.5631,-5.5531,-5.5229,-5.5179,-5.5179,-5.5179,-5.5179,-5.5179,-5.5179,-5.5006,-5.4854,-5.4854,-5.4854,-5.4854,-5.4803,-5.4539,-5.4171,-5.3883,-5.3304,-5.2851,-5.2449,-5.1345,-5.0917,-5.1439,-5.0888,-5.0888,-5.1527,-5.2165,-5.2565,-5.2623,-5.321,-5.35,-2.8259,-2.8618,-2.8973,-2.9429,-2.974,-3.0164,-3.0804,-3.1074,-3.1422,-3.2202,-3.2645,-3.3102,-3.3884,-3.4989,-3.6163,-3.7316,-3.9034,-4.097,-4.318,-4.5327,-4.7674,-5.0389,-5.2842,-5.5342,-5.804,-5.9934,-6.21,-6.4665,0.0,0.0,-6.9001,-7.0219,-7.1045,-7.1319,-7.1991,-7.242,-7.242,-7.242,-7.242,-7.2357,-7.1867,-7.1256,-7.0585,-6.9793,-6.9063,-6.8394,-6.8151,0.0,0.0,-6.6543,-6.5966,-6.5356,-6.4801,-6.4527,-6.4523,-6.3965,-6.3648,-6.3445,-6.2618,-6.2112,-6.1748,-6.1317,-6.1194,-6.1163,-6.0886,-6.0332,-5.9655,-5.8978,-5.835,-5.7672,-5.6994,-5.681,-5.6761,-5.6616,-5.6567,-5.647,-5.6225,-5.6028,-5.588,-5.5631,-5.5481,-5.533,-5.5229,-5.5179,-5.5179,-5.5179,-5.5027,-5.4955,-5.4955,-5.4722,-5.4487,-5.4487,-5.4487,-5.4436,-5.4282,-5.4126,-5.3942,-5.3658,-5.3425,-5.3082,-5.2623,-5.2129,-5.1759,-5.1614,-5.1381,-5.1556,-5.2194,-5.2455,-5.2775,-5.3152,-5.3384,-5.35,-2.8538,-2.8934,-2.9415,-2.9902,-3.0277,-3.0714,-3.1552,-3.1876,-3.2189,-3.3067,-3.3449,-3.3925,-3.4862,-3.5951,-3.7081,-3.8255,-3.9856,-4.1733,-4.3922,-4.6042,-4.8364,-5.0962,-5.3597,-5.6153,-5.8508,-6.0986,-6.3445,-6.5681,0.0,0.0,0.0,-7.0323,-7.0996,-7.1185,-7.1734,-7.2007,-7.2007,-7.2007,-7.1886,-7.1673,-7.1125,-7.0395,-6.9516,-6.9,-6.8364,-6.7699,0.0,0.0,0.0,-6.5702,-6.5037,-6.4401,-6.4005,-6.388,-6.3789,-6.3234,-6.3006,-6.2835,-6.1783,-6.1392,-6.1335,-6.0896,-6.0794,-6.0763,-6.0547,-6.0024,-5.9378,-5.8916,-5.8146,-5.7426,-5.6933,-5.6761,-5.6616,-5.647,-5.6323,-5.6225,-5.5929,-5.5731,-5.5581,-5.5481,-5.533,-5.5179,-5.5179,-5.5179,-5.5179,-5.5078,-5.4905,-5.4751,-5.4671,-5.4385,-5.42,-5.42,-5.4097,-5.3993,-5.3919,-5.3815,-5.371,-5.35,-5.35,-5.3326,-5.2862,-5.271,-5.2455,-5.2194,-5.1991,-5.2223,-5.2862,-5.2862,-5.3065,-5.35,-5.35,-5.35,-2.8712,-2.9287,-2.9905,-3.0471,-3.1032,-3.1656,-3.2251,-3.2672,-3.3146,-3.3779,-3.4206,-3.4875,-3.6031,-3.6811,-3.7675,-3.8891,-4.0498,-4.2213,-4.3951,-4.6414,-4.8899,-5.1331,-5.4142,-5.6694,-5.86,-6.2263,-6.4813,0.0,0.0,0.0,0.0,-7.0201,-7.1242,-7.1977,-7.2007,-7.2007,-7.2007,-7.2007,-7.1643,-7.1038,-7.0661,-6.9778,-6.8482,-6.8173,-6.7659,0.0,0.0,0.0,0.0,-6.4306,-6.3647,-6.3137,-6.3424,-6.3538,-6.3448,-6.3122,-6.2566,-6.1953,-6.1523,-6.0958,-6.0429,-6.069,-6.0794,-6.0671,-5.9993,-5.9316,-5.8793,-5.8793,-5.7857,-5.681,-5.681,-5.6616,-5.6421,-5.6421,-5.6225,-5.5929,-5.5681,-5.5581,-5.5531,-5.5229,-5.5179,-5.5179,-5.5179,-5.5179,-5.5078,-5.4854,-5.4803,-5.4671,-5.4355,-5.4045,-5.389,-5.389,-5.3658,-5.3605,-5.3867,-5.3658,-5.35,-5.35,-5.35,-5.35,-5.35,-5.2891,-5.2862,-5.3471,-5.2891,-5.2862,-5.35,-5.35,-5.35,-5.35,-5.35,-5.35,-2.9106,-2.977,-3.0435,-3.0888,-3.1575,-3.2291,-3.3048,-3.342,-3.382,-3.4564,-3.5235,-3.5966,-3.6633,-3.773,-3.8823,-3.984,-4.1635,-4.3511,-4.5235,-4.7701,-5.0047,-5.2027,-5.56,-5.8805,0.0,0.0,-6.4717,0.0,0.0,0.0,0.0,-6.9878,-7.0789,-7.1242,-7.1242,-7.1242,-7.1242,-7.1242,-7.0912,-7.028,-6.9703,-6.9043,-6.8143,-6.7569,0.0,0.0,0.0,0.0,0.0,-6.4276,-6.3617,-6.3137,-6.3194,-6.2982,-6.2502,-6.1898,-6.1373,-6.0899,-6.0288,-6.0084,-6.0144,-6.0429,-6.0534,-6.0463,-5.9942,-5.9316,-5.8577,-5.7703,-5.7148,-5.6761,-5.6567,-5.647,-5.6323,-5.5929,-5.578,-5.5631,-5.5381,-5.533,-5.528,-5.5229,-5.5179,-5.5179,-5.5179,-5.5057,-5.4905,-5.4803,-5.4466,-5.4126,-5.4045,-5.3815,-5.3605,-5.3605,-5.3553,-5.35,-5.3605,-5.3553,-5.35,-5.35,-5.35,-5.35,-5.35,-5.3326,-5.3297,-5.35,-5.3326,-5.3326,-5.35,-5.35,-5.35,-5.35,-5.35,-5.35,-2.9884,-3.0497,-3.1295,-3.1843,-3.2458,-3.3074,-3.3852,-3.4228,-3.4591,-3.5396,-3.6031,-3.6658,-3.7523,-3.8653,-3.9723,-4.0622,-4.2491,-4.4396,-4.6111,-4.8395,-5.0995,-5.3999,-5.7093,0.0,0.0,-6.3461,0.0,0.0,0.0,0.0,0.0,-6.9252,-7.0064,-7.0498,-7.0789,-7.0889,-7.0889,-7.0679,-7.0231,-6.9602,-6.8944,-6.8256,-6.7597,-6.7178,0.0,0.0,0.0,0.0,0.0,-6.3917,-6.3438,-6.3079,-6.3079,-6.266,-6.2032,-6.1373,-6.0796,-6.027,-5.9717,-5.9636,-5.988,-6.0144,-5.9988,-5.9542,-5.9173,-5.8731,-5.8177,-5.7118,-5.6713,-5.6616,-5.6421,-5.6274,-5.6028,-5.5681,-5.5531,-5.5381,-5.5229,-5.5388,-5.5568,-5.5568,-5.5748,-5.5846,-5.5773,-5.541,-5.5108,-5.4849,-5.4303,-5.3867,-5.3762,-5.3605,-5.35,-5.35,-5.35,-5.35,-5.35,-5.35,-5.35,-5.35,-5.35,-5.35,-5.35,-5.35,-5.35,-5.35,-5.35,-5.35,-5.35,-5.35,-5.35,-5.35,-5.35,-5.35,0.0,-3.1447,-3.2346,-3.3105,-3.3491,-3.3878,-3.465,-3.4989,0.0,-3.6165,-3.6535,-3.7177,-3.8605,-3.9534,-4.0387,-4.133,-4.3192,-4.5025,-4.6583,-4.8753,-5.1995,-5.6756,-5.8523,0.0,-6.2848,-6.3389,0.0,0.0,0.0,0.0,0.0,-6.8419,-6.9103,-6.9722,-7.0379,-7.0734,-7.0764,-7.0166,-6.9509,-6.8851,-6.8223,-6.7565,-6.6937,-6.6937,0.0,0.0,0.0,0.0,0.0,-6.3348,-6.3079,-6.3079,-6.3019,-6.26,-6.1942,-6.1283,-6.0595,-5.9992,-5.9579,-5.9476,-5.9529,-5.9849,-5.9201,-5.8287,-5.7863,-5.7746,-5.7611,-5.6946,-5.6598,-5.6433,-5.6433,-5.607,-5.5732,-5.5732,-5.5531,-5.5329,-5.5329,-5.5807,-5.6226,-5.6226,-5.6705,-5.6989,-5.6733,-5.6146,-5.5522,-5.4967,-5.4334,-5.3821,-5.353,-5.35,-5.35,-5.35,-5.35,-5.35,-5.35,-5.35,-5.35,-5.35,-5.35,-5.35,-5.35,-5.35,-5.35,-5.35,-5.35,-5.35,-5.35,-5.35,-5.35,-5.35,-5.35,-5.35,-3.2337,0.0,-3.3053,-3.325,-3.3901,-3.4556,0.0,0.0,0.0,0.0,-3.7169,-3.8335,-3.9507,-4.0228,-4.1346,-4.336,-4.4462,-4.5814,-4.7801,-5.0961,-5.4176,-5.7282,-5.861,-6.0293,-6.2848,0.0,0.0,0.0,0.0,0.0,0.0,-6.7419,-6.7959,-6.846,-6.859,-6.8891,-6.9394,-6.8743,-6.8122,-6.747,-6.7293,-6.6879,-6.6257,-6.6257,0.0,0.0,0.0,0.0,-6.3654,-6.2999,-6.2847,-6.3019,-6.254,-6.1942,-6.1253,-6.0565,-5.9907,-5.9308,-5.9213,-5.9207,-5.9171,-5.8987,-5.8577,-5.7983,-5.7364,-5.7113,-5.6977,-5.6629,-5.6788,-5.7037,-5.6637,-5.6798,-5.6985,-5.6801,-5.6697,-5.6645,-5.6645,-5.6765,-5.6885,-5.6885,-5.6877,-5.6786,-5.6733,-5.6214,-5.56,-5.4972,-5.4584,-5.4134,-5.3588,-5.35,-5.35,-5.35,-5.35,-5.35,-5.35,-5.35,-5.35,-5.35,-5.35,-5.35,-5.35,-5.35,-5.35,-5.35,-5.35,-5.35,-5.35,-5.35,-5.35,-5.35,-5.35,-5.35,-3.327,-3.3472,-3.3757,-3.4126,-3.4706,-3.5246,-3.5621,0.0,0.0,0.0,-3.8093,0.0,0.0,-4.1377,-4.2667,-4.4163,-4.5661,-4.7447,-4.9846,-5.2662,-5.5222,-5.7369,-5.8724,-6.0345,0.0,0.0,0.0,0.0,0.0,0.0,0.0,-6.6504,-6.6954,-6.7471,-6.7207,-6.7483,-6.8454,-6.79,-6.7398,-6.698,-6.6686,-6.6361,-6.6007,-6.6007,-6.5477,0.0,0.0,0.0,-6.2913,-6.2705,-6.2553,-6.2398,-6.2184,-6.1493,-6.0595,-6.0206,-5.9668,-5.9099,-5.9099,-5.8919,-5.8614,-5.8219,-5.7764,-5.7283,-5.7072,-5.6877,-5.68,-5.6652,-5.699,-5.7304,-5.7079,-5.7166,-5.7281,-5.7146,-5.7094,-5.7094,-5.7094,-5.7258,-5.7362,-5.7362,-5.7387,-5.7355,-5.7247,-5.6711,-5.6,-5.5226,-5.4798,-5.4284,-5.3617,-5.35,-5.35,-5.35,-5.35,-5.35,-5.35,-5.35,-5.35,-5.35,-5.35,-5.35,-5.35,-5.35,-5.3477,-5.3319,-5.3213,-5.316,-5.316,-5.3266,-5.3319,-5.3319,-5.3477,-5.35,-3.3946,-3.4159,-3.4474,-3.5182,-3.5594,-3.5966,-3.6711,0.0,0.0,0.0,0.0,0.0,0.0,-4.2638,0.0,-4.4696,-4.6926,-4.9394,-5.1943,-5.3922,-5.5736,-5.7249,-5.8774,0.0,0.0,0.0,0.0,0.0,0.0,0.0,0.0,-6.578,-6.6041,-6.6564,-6.607,-6.63,-6.75,-6.6971,-6.6706,-6.6706,-6.6147,-6.5819,-6.5819,-6.5819,-6.5114,0.0,0.0,0.0,-6.2057,-6.2292,-6.2083,-6.1632,-6.1801,-6.1138,-6.0086,-5.9967,-5.9578,-5.9099,-5.8979,-5.859,-5.7992,-5.7505,-5.7037,-5.6696,-5.6748,-5.692,-5.7071,-5.7071,-5.7342,-5.7639,-5.7587,-5.7491,-5.7393,-5.7393,-5.7393,-5.7393,-5.7341,-5.7606,-5.7862,-5.7808,-5.7951,-5.8059,-5.7836,-5.7286,-5.6592,-5.5703,-5.5039,-5.44,-5.3762,-5.3588,-5.35,-5.35,-5.35,-5.35,-5.35,-5.35,-5.35,-5.35,-5.35,-5.3448,-5.3477,-5.3424,-5.3266,-5.3054,-5.2841,-5.268,-5.268,-5.2947,-5.3054,-5.3054,-5.3319,-5.3424,-3.4812,-3.5338,-3.5388,-3.5516,-3.6098,-3.6711,-3.7032,0.0,0.0,0.0,0.0,0.0,0.0,-4.3496,-4.4359,0.0,0.0,-5.0944,0.0,0.0,-5.6301,-5.7608,0.0,0.0,0.0,0.0,0.0,0.0,0.0,0.0,0.0,-6.5141,-6.517,-6.5286,-6.517,-6.5234,-6.5478,-6.5391,-6.5333,-6.5333,-6.5216,-6.5187,-6.5187,-6.5187,-6.4488,0.0,0.0,-6.266,-6.1673,-6.1732,-6.1703,-6.1545,-6.1038,-6.0522,-6.0027,-5.9458,-5.9189,-5.9039,-5.8471,-5.8201,-5.7932,-5.6757,-5.6667,-5.6959,-5.647,-5.7049,-5.7918,-5.7918,-5.8136,-5.8279,-5.8068,-5.8381,-5.88,-5.88,-5.88,-5.8746,-5.8476,-5.851,-5.8461,-5.8187,-5.797,-5.7836,-5.7781,-5.747,-5.7011,-5.6345,-5.5707,-5.5039,-5.4429,-5.3878,-5.35,-5.35,-5.35,-5.35,-5.35,-5.35,-5.35,-5.35,-5.35,-5.3424,-5.316,-5.2947,-5.2787,-5.2734,-5.2734,-5.268,-5.268,-5.2734,-5.2734,-5.2787,-5.3054,-5.316,-3.4461,-3.528,-3.6044,-3.6902,-3.7475,-3.79,-3.8514,-3.9465,-4.0377,0.0,0.0,0.0,0.0,0.0,-4.594,-4.8336,0.0,-5.1815,-5.3051,-5.4937,-5.6576,0.0,0.0,0.0,0.0,0.0,0.0,0.0,0.0,0.0,0.0,0.0,-6.474,-6.474,-6.4932,-6.4996,-6.4996,-6.4996,-6.4996,-6.4996,-6.4996,-6.4996,-6.4967,-6.4619,-6.3951,-6.308,0.0,-6.2096,-6.1375,-6.1203,-6.0911,-6.0524,-6.0244,-5.9815,-5.927,-5.8776,-5.859,-5.8471,-5.7812,-5.7363,-5.6974,-5.6376,-5.6376,-5.6615,-5.6645,-5.7363,-5.8201,-5.856,-5.8704,-5.8811,-5.865,-5.889,-5.9099,-5.9099,-5.8991,-5.8828,-5.8748,-5.8445,-5.8169,-5.8003,-5.7781,-5.7528,-5.7528,-5.7416,-5.71,-5.649,-5.5852,-5.5184,-5.4604,-5.3936,-5.35,-5.35,-5.35,-5.35,-5.35,-5.3372,-5.3266,-5.3266,-5.3266,-5.316,-5.2894,-5.2573,-5.2465,-5.2465,-5.2275,-5.2221,-5.2221,-5.2358,-5.2465,-5.2465,-5.2894,-5.3107,-3.4341,-3.5279,-3.6498,-3.8235,-3.8717,-3.9039,-3.9903,-4.0862,-4.1652,-4.2114,-4.2792,0.0,0.0,0.0,0.0,0.0,0.0,0.0,0.0,0.0,0.0,0.0,0.0,0.0,0.0,0.0,0.0,0.0,0.0,0.0,0.0,0.0,-6.4354,-6.4354,-6.474,-6.4868,-6.4868,-6.4996,-6.4996,-6.4996,-6.4996,-6.4996,-6.4967,-6.4328,-6.369,-6.3051,-6.2383,-6.1745,-6.1135,-6.0734,-6.0238,-5.9681,-5.9519,-5.9059,-5.8451,-5.8214,-5.8022,-5.7782,-5.7124,-5.6555,-5.6188,-5.6038,-5.6188,-5.6466,-5.6944,-5.7693,-5.8471,-5.8949,-5.9099,-5.9099,-5.9099,-5.9099,-5.9099,-5.8991,-5.8828,-5.8694,-5.85,-5.8114,-5.7781,-5.7725,-5.7472,-5.7303,-5.7303,-5.7303,-5.7158,-5.6694,-5.6055,-5.5416,-5.4807,-5.4139,-5.3651,-5.3424,-5.3424,-5.3372,-5.3319,-5.3107,-5.2947,-5.2894,-5.2894,-5.2787,-5.2573,-5.2275,-5.2113,-5.2113,-5.1896,-5.1787,-5.1787,-5.2004,-5.2113,-5.2113,-5.2627,-5.2947,-3.56,-3.6027,-3.6647,-3.8884,-3.9401,-3.97,-4.0781,-4.1951,-4.2765,-4.2819,-4.3769,-4.5037,0.0,0.0,0.0,0.0,0.0,0.0,0.0,0.0,0.0,0.0,0.0,0.0,0.0,0.0,0.0,0.0,0.0,0.0,0.0,0.0,0.0,-6.403,-6.4354,-6.4576,-6.4576,-6.4868,-6.4996,-6.4996,-6.4996,-6.4996,-6.4967,-6.4328,-6.369,-6.3051,-6.2383,-6.1745,-6.1135,-6.0467,-6.0005,-5.9624,-5.9037,-5.8375,-5.7827,-5.8035,-5.7723,-5.7064,-5.6466,-5.6248,-5.6128,-5.5448,-5.6047,-5.7034,-5.7094,-5.7992,-5.9039,-5.9099,-5.9099,-5.9099,-5.9099,-5.9099,-5.9045,-5.8803,-5.8719,-5.8584,-5.8003,-5.7836,-5.7725,-5.7416,-5.7303,-5.7303,-5.7303,-5.7303,-5.7303,-5.7245,-5.6723,-5.6084,-5.5416,-5.4807,-5.4091,-5.3246,-5.3107,-5.3001,-5.2787,-5.2734,-5.2627,-5.2275,-5.2221,-5.2221,-5.2221,-5.195,-5.1841,-5.1841,-5.1787,-5.1787,-5.1787,-5.1841,-5.1841,-5.1841,-5.2113,-5.2465,-3.5522,-3.6504,-3.7768,-3.9994,-4.087,-4.1304,-4.2072,-4.2846,-4.3769,-4.4881,-4.5478,-4.6261,-4.7724,0.0,0.0,0.0,0.0,0.0,0.0,0.0,0.0,0.0,0.0,0.0,0.0,0.0,0.0,0.0,0.0,0.0,0.0,0.0,0.0,-6.361,-6.3965,-6.416,-6.416,-6.4289,-6.4418,-6.4418,-6.4804,-6.4793,-6.4386,-6.3748,-6.308,-6.2441,-6.1803,-6.1164,-6.0526,-5.9887,-5.9306,-5.8781,-5.8068,-5.7749,-5.7678,-5.7109,-5.6735,-5.6436,-5.5777,-5.5568,-5.5538,-5.5269,-5.6047,-5.7094,-5.7094,-5.8052,-5.9099,-5.9099,-5.9099,-5.9099,-5.9099,-5.9099,-5.9045,-5.8719,-5.8555,-5.828,-5.7892,-5.7669,-5.7416,-5.7303,-5.7303,-5.7303,-5.7303,-5.7303,-5.7303,-5.7303,-5.6781,-5.6261,-5.5779,-5.5201,-5.4601,-5.4044,-5.3643,-5.3163,-5.244,-5.2411,-5.2221,-5.195,-5.2113,-5.2113,-5.195,-5.1841,-5.1787,-5.1787,-5.1787,-5.1787,-5.1787,-5.1787,-5.1787,-5.1787,-5.2059,-5.2275,-3.553,-3.6817,-3.8405,-4.0541,-4.1828,-4.2785,-4.3652,-4.4289,-4.4963,-4.6211,-4.6916,-4.7676,-4.8873,-4.961,0.0,0.0,0.0,0.0,0.0,0.0,0.0,0.0,0.0,0.0,0.0,0.0,0.0,0.0,0.0,0.0,0.0,0.0,0.0,0.0,-6.3638,-6.3834,-6.3834,-6.3965,-6.3915,-6.3715,-6.4166,-6.4191,-6.382,-6.2981,-6.2406,-6.2035,-6.1222,-6.0613,-6.0148,-5.9335,-5.8581,-5.7941,-5.728,-5.7134,-5.7161,-5.6348,-5.5995,-5.5807,-5.5359,-5.5179,-5.5179,-5.5179,-5.6047,-5.7094,-5.7094,-5.8052,-5.9099,-5.9099,-5.9099,-5.9099,-5.8991,-5.8936,-5.8882,-5.8609,-5.8427,-5.8238,-5.7754,-5.7647,-5.7565,-5.7332,-5.7303,-5.7303,-5.7303,-5.7303,-5.7303,-5.7303,-5.6899,-5.6413,-5.5958,-5.5472,-5.4961,-5.4399,-5.3945,-5.3268,-5.2398,-5.2369,-5.223,-5.1787,-5.195,-5.2004,-5.1787,-5.1787,-5.1787,-5.1787,-5.1787,-5.1787,-5.1787,-5.1787,-5.1787,-5.1787,-5.2004,-5.2113,-3.5835,-3.7011,-3.8364,-4.0307,0.0,0.0,-4.5629,-4.6245,-4.6482,-4.6562,-4.792,-4.9331,-4.9928,-5.0525,0.0,-5.292,0.0,0.0,0.0,0.0,0.0,0.0,0.0,0.0,0.0,0.0,0.0,0.0,0.0,0.0,0.0,0.0,0.0,0.0,-6.3244,-6.3413,-6.3413,-6.3806,-6.3622,-6.2965,-6.2965,-6.3157,-6.3446,-6.2208,-6.1787,-6.2006,-6.0758,-6.0206,-6.009,-5.8813,-5.7913,-5.7245,-5.6939,-5.6598,-5.6249,-5.5857,-5.5462,-5.5179,-5.5179,-5.5179,-5.5179,-5.5209,-5.6047,-5.7094,-5.7094,-5.8052,-5.9099,-5.9099,-5.9099,-5.9045,-5.8803,-5.8694,-5.8639,-5.828,-5.8473,-5.8457,-5.7505,-5.7826,-5.8116,-5.7448,-5.7303,-5.7303,-5.7303,-5.7303,-5.7303,-5.7303,-5.7107,-5.6649,-5.5988,-5.5678,-5.5111,-5.4205,-5.3867,-5.3416,-5.277,-5.2714,-5.2461,-5.1843,-5.1787,-5.1787,-5.1787,-5.1787,-5.1787,-5.1787,-5.1787,-5.1787,-5.1787,-5.1787,-5.1787,-5.1787,-5.1787,-5.195,-3.6955,-3.8214,0.0,-4.1067,0.0,0.0,0.0,-4.6431,0.0,-4.8626,-4.9822,-5.0691,-5.1204,-5.1421,0.0,-5.2706,-5.3407,0.0,0.0,0.0,0.0,0.0,0.0,0.0,0.0,0.0,0.0,0.0,0.0,0.0,0.0,0.0,0.0,0.0,-6.298,-6.3046,-6.3046,-6.2755,-6.251,-6.2312,-6.1408,-6.1238,-6.1776,-6.1404,-6.1188,-6.1094,-6.0256,-5.9768,-5.9451,-5.8145,-5.7245,-5.6607,-5.6267,-5.5894,-5.5542,-5.5204,-5.5104,-5.5179,-5.5179,-5.5179,-5.5269,-5.5718,-5.6436,-5.7184,-5.7663,-5.8411,-5.9099,-5.9099,-5.8936,-5.8773,-5.8748,-5.8689,-5.8679,-5.8566,-5.8656,-5.8691,-5.8696,-5.8493,-5.8232,-5.8058,-5.7623,-5.7303,-5.7303,-5.7134,-5.705,-5.705,-5.6766,-5.6394,-5.6022,-5.5706,-5.5221,-5.4543,-5.4373,-5.4063,-5.3445,-5.3388,-5.3107,-5.2461,-5.2433,-5.2236,-5.1815,-5.1787,-5.1787,-5.1787,-5.1787,-5.1787,-5.1787,-5.1787,-5.1787,-5.1787,-5.1787,-5.1841,-3.7547,-3.8736,0.0,-4.1498,-4.3277,-4.5076,-4.6948,0.0,0.0,-5.0093,-5.0936,-5.1588,-5.2072,-5.2181,0.0,0.0,0.0,0.0,0.0,0.0,0.0,0.0,0.0,0.0,0.0,0.0,0.0,0.0,0.0,0.0,0.0,0.0,0.0,0.0,0.0,-6.2802,-6.2577,-6.2183,-6.1762,-6.1256,-6.0497,-6.0068,-6.0024,-6.0403,-6.0484,-6.0249,-5.9475,-5.89,-5.8435,-5.7623,-5.6955,-5.6345,-5.5812,-5.544,-5.509,-5.4753,-5.4773,-5.5057,-5.5128,-5.5359,-5.5658,-5.6098,-5.6765,-5.7573,-5.7992,-5.859,-5.9045,-5.8936,-5.8828,-5.8609,-5.839,-5.8529,-5.8689,-5.8689,-5.9012,-5.9335,-5.9335,-5.9161,-5.89,-5.8406,-5.7971,-5.7566,-5.7192,-5.6993,-5.688,-5.6709,-5.6423,-5.6135,-5.5845,-5.5613,-5.5355,-5.499,-5.4962,-5.4709,-5.4091,-5.4035,-5.3754,-5.3135,-5.3079,-5.2911,-5.2545,-5.204,-5.1787,-5.1787,-5.1787,-5.1787,-5.1787,-5.1787,-5.1787,-5.1787,-5.1787,-5.1787,-3.7828,0.0,0.0,-4.1821,-4.3441,0.0,-4.8072,-5.0039,-5.117,-5.099,0.0,-5.2126,-5.2696,-5.2805,0.0,0.0,0.0,0.0,0.0,0.0,0.0,0.0,0.0,0.0,0.0,0.0,0.0,0.0,0.0,0.0,0.0,0.0,0.0,0.0,0.0,0.0,-6.2015,-6.1902,-6.1284,0.0,-6.002,-5.9373,-5.8334,-5.9177,-5.9554,-5.9472,-5.861,-5.7856,-5.7303,-5.7303,-5.6955,-5.6345,-5.5678,-5.5201,-5.4826,-5.4413,-5.4517,-5.4943,-5.5167,-5.5718,-5.6308,-5.6316,-5.7154,-5.8141,-5.8148,-5.8567,-5.8991,-5.8719,-5.8639,-5.85,-5.7948,-5.8251,-5.8777,-5.8777,-5.9481,-6.0061,-5.9568,-5.9858,-5.9829,-5.8639,-5.8348,-5.7973,-5.7052,-5.688,-5.6709,-5.6337,-5.6135,-5.5845,-5.5554,-5.5496,-5.5496,-5.5496,-5.5496,-5.5271,-5.4709,-5.4681,-5.44,-5.3782,-5.3754,-5.3726,-5.3726,-5.2574,-5.1955,-5.1955,-5.1955,-5.1955,-5.1955,-5.1899,-5.1871,-5.1871,-5.1815,-5.1787,0.0,-3.973,0.0,0.0,0.0,-4.6822,-4.8619,-5.0224,-5.1409,-5.1552,-5.2466,-5.3266,0.0,0.0,0.0,0.0,0.0,0.0,0.0,0.0,0.0,0.0,0.0,0.0,0.0,0.0,0.0,0.0,0.0,0.0,0.0,0.0,0.0,0.0,0.0,-6.2155,-6.2015,-6.1031,-6.0413,0.0,-5.9149,-5.8559,-5.8306,-5.8508,-5.837,-5.7883,-5.7887,-5.7685,-5.7303,-5.7303,-5.6955,-5.6345,-5.5678,-5.5201,-5.4826,-5.4205,-5.4657,-5.5515,-5.5567,-5.6139,-5.6974,-5.7513,-5.7902,-5.8178,-5.847,-5.8684,-5.8719,-5.839,-5.8169,-5.7948,-5.7836,-5.8488,-5.919,-5.919,-5.9713,-6.0322,-6.07,-6.0467,-5.9974,-5.9248,-5.8437,-5.7686,-5.7052,-5.648,-5.6077,-5.5729,-5.5613,-5.5554,-5.5496,-5.5496,-5.5496,-5.5496,-5.5496,-5.544,-5.5327,-5.5299,-5.5046,-5.4428,-5.44,-5.4175,-5.3754,-5.3473,-5.3276,-5.3276,-5.3276,-5.3276,-5.3276,-5.2742,-5.2517,-5.2489,-5.2012,-5.1787,0.0,0.0,0.0,0.0,0.0,0.0,0.0,-5.0089,-5.118,-5.1358,0.0,0.0,0.0,0.0,0.0,0.0,0.0,0.0,0.0,0.0,0.0,0.0,0.0,0.0,0.0,0.0,0.0,0.0,0.0,0.0,0.0,0.0,0.0,0.0,-6.1893,-6.151,-6.1116,-6.0469,-5.9823,-5.9233,-5.8615,-5.7997,-5.7407,-5.7588,-5.752,-5.7365,-5.7398,-5.7339,-5.7303,-5.7303,-5.6955,-5.6374,-5.6026,-5.5612,-5.5109,-5.489,-5.519,-5.5748,-5.5936,-5.6509,-5.7209,-5.7565,-5.7892,-5.8218,-5.8381,-5.8445,-5.839,-5.8114,-5.7892,-5.7781,-5.7613,-5.8434,-5.9306,-5.9306,-6.0003,-6.0758,-6.1106,-6.0932,-6.035,-5.9276,-5.8638,-5.7916,-5.6709,-5.6077,-5.5671,-5.5496,-5.5496,-5.5496,-5.5496,-5.5496,-5.5496,-5.5496,-5.5496,-5.5496,-5.5496,-5.5496,-5.5383,-5.5046,-5.5018,-5.4878,-5.4569,-5.454,-5.4259,-5.3726,-5.3726,-5.3726,-5.3726,-5.3023,-5.2714,-5.2686,-5.2068,-5.1787,0.0,0.0,0.0,0.0,0.0,0.0,0.0,0.0,0.0,0.0,0.0,0.0,0.0,0.0,0.0,0.0,0.0,0.0,0.0,0.0,0.0,0.0,0.0,0.0,0.0,0.0,0.0,0.0,0.0,0.0,0.0,0.0,-6.1398,-6.1163,-6.109,-6.0756,-6.0005,-5.9844,-5.9317,-5.8306,-5.8081,-5.7378,-5.6254,-5.6491,-5.6872,-5.7194,-5.6939,-5.6964,-5.7303,-5.7303,-5.7013,-5.6549,-5.6461,-5.6055,-5.5562,-5.5717,-5.5825,-5.5996,-5.6324,-5.6844,-5.7345,-5.7345,-5.7782,-5.8195,-5.814,-5.814,-5.8029,-5.7781,-5.7725,-5.7669,-5.736,-5.8203,-5.9132,-5.9132,-5.9944,-6.0872,-6.1135,-6.1046,-6.0551,-5.9041,-5.852,-5.7798,-5.6218,-5.5671,-5.5496,-5.5496,-5.5496,-5.5496,-5.5496,-5.5496,-5.5496,-5.5496,-5.5496,-5.5496,-5.5496,-5.5496,-5.5496,-5.5496,-5.5496,-5.5496,-5.5496,-5.5496,-5.5018,-5.4007,-5.3978,-5.3978,-5.3978,-5.322,-5.2883,-5.2854,-5.2124,-5.1787,0.0,0.0,0.0,0.0,0.0,0.0,0.0,0.0,0.0,0.0,0.0,0.0,0.0,0.0,0.0,0.0,0.0,0.0,0.0,0.0,0.0,0.0,0.0,0.0,0.0,0.0,0.0,0.0,0.0,0.0,0.0,-6.011,-6.0187,-6.0197,-5.9931,-5.979,-5.9687,-5.8877,-5.8474,-5.8278,-5.7182,-5.6311,-5.5636,-5.5695,-5.6017,-5.6537,-5.6509,-5.6794,-5.7303,-5.7303,-5.7245,-5.7129,-5.6607,-5.6345,-5.62,-5.5674,-5.5983,-5.6698,-5.6698,-5.7328,-5.8077,-5.8077,-5.8136,-5.814,-5.7948,-5.7836,-5.7781,-5.7472,-5.736,-5.736,-5.7303,-5.7855,-5.8435,-5.8435,-5.8813,-5.9505,-6.0901,-6.0578,-5.9764,-5.8954,-5.7481,-5.6218,-5.5641,-5.5496,-5.5496,-5.5496,-5.5496,-5.5496,-5.5496,-5.5496,-5.5496,-5.5496,-5.5496,-5.5496,-5.5496,-5.5496,-5.5496,-5.5496,-5.5496,-5.5496,-5.5496,-5.5496,-5.5412,-5.5271,-5.5271,-5.5271,-5.5271,-5.4091,-5.3557,-5.3501,-5.2321,-5.1787,0.0,0.0,0.0,0.0,0.0,0.0,0.0,0.0,0.0,0.0,0.0,0.0,0.0,0.0,0.0,0.0,0.0,0.0,0.0,0.0,0.0,0.0,0.0,0.0,0.0,0.0,0.0,0.0,0.0,0.0,-5.9203,-5.9363,-5.9331,-5.9236,-5.9312,0.0,-5.9122,-5.8541,-5.794,-5.7238,-5.6339,-5.5777,-5.5496,-5.5496,-5.5845,-5.6394,-5.6394,-5.6737,-5.7303,-5.7303,-5.7303,-5.7274,-5.7013,-5.6897,-5.6868,-5.6578,-5.672,-5.7064,-5.7064,-5.735,-5.7696,-5.7696,-5.7696,-5.7696,-5.7557,-5.7528,-5.7472,-5.736,-5.7303,-5.7303,-5.7303,-5.7797,-5.8233,-5.8061,-5.8407,-5.8924,-5.9472,-5.9266,-5.8686,-5.788,-5.6643,-5.5671,-5.5496,-5.5496,-5.5496,-5.5496,-5.5805,-5.6002,-5.6002,-5.6339,-5.6564,-5.6564,-5.6564,-5.6395,-5.6058,-5.6002,-5.5861,-5.5524,-5.5496,-5.5496,-5.5496,-5.5496,-5.5496,-5.5496,-5.5496,-5.5496,-5.5496,-5.4259,-5.3726,-5.3698,-5.2377,-5.1787,0.0,0.0,0.0,0.0,0.0,0.0,0.0,0.0,0.0,0.0,0.0,0.0,0.0,0.0,0.0,0.0,0.0,0.0,0.0,0.0,0.0,0.0,0.0,0.0,0.0,0.0,0.0,0.0,0.0,0.0,-5.8503,-5.853,-5.8445,-5.8243,-5.8402,-5.8483,-5.8355,-5.7948,-5.7266,-5.617,-5.5721,-5.5496,-5.5496,-5.5554,-5.5903,-5.6394,-5.6394,-5.6737,-5.7303,-5.7303,-5.7303,-5.7303,-5.7303,-5.7303,-5.7303,-5.7303,-5.7303,-5.7303,-5.7303,-5.7303,-5.7303,-5.7303,-5.7303,-5.7303,-5.7303,-5.7303,-5.7303,-5.7303,-5.7303,-5.7303,-5.7303,-5.7624,-5.7887,-5.7628,-5.7829,-5.8027,-5.7963,-5.7904,-5.7731,-5.6922,-5.6094,-5.5552,-5.5693,-5.5749,-5.5749,-5.5749,-5.6254,-5.6648,-5.6648,-5.7097,-5.7378,-5.7378,-5.7378,-5.7182,-5.6704,-5.6507,-5.6226,-5.5777,-5.558,-5.5496,-5.5496,-5.5496,-5.5496,-5.5496,-5.5496,-5.5496,-5.5496,-5.4428,-5.381,-5.3698,-5.2545,-5.1927,0.0,0.0,0.0,0.0,0.0,0.0,0.0,0.0,0.0,0.0,0.0,0.0,0.0,0.0,0.0,0.0,0.0,0.0,0.0,0.0,0.0,0.0,0.0,0.0,0.0,0.0,0.0,0.0,0.0,0.0,-5.7282,-5.7282,-5.7255,-5.7292,-5.7068,-5.7056,-5.7342,-5.6763,-5.6198,-5.5552,-5.5524,-5.5496,-5.5496,-5.5845,-5.6135,-5.6394,-5.6394,-5.6737,-5.7303,-5.7303,-5.7303,-5.7303,-5.7303,-5.7303,-5.7303,-5.7303,-5.7303,-5.7303,-5.7303,-5.7303,-5.7303,-5.7303,-5.7303,-5.7303,-5.7303,-5.7303,-5.7303,-5.7303,-5.7303,-5.7303,-5.7303,-5.7107,-5.6994,-5.6937,-5.6566,-5.6303,-5.6811,-5.6953,-5.6866,-5.6482,-5.5917,-5.5693,-5.6254,-5.6367,-5.6367,-5.6367,-5.6929,-5.7322,-5.7322,-5.735,-5.7378,-5.7378,-5.7378,-5.7378,-5.735,-5.676,-5.6395,-5.6367,-5.5833,-5.5496,-5.5496,-5.5496,-5.5496,-5.5496,-5.5496,-5.5496,-5.5496,-5.485,-5.4231,-5.3698,-5.2967,-5.2349,-3.9494,0.0,0.0,0.0,0.0,0.0,0.0,0.0,0.0,0.0,0.0,0.0,0.0,0.0,0.0,0.0,0.0,0.0,0.0,0.0,0.0,0.0,0.0,0.0,0.0,0.0,0.0,0.0,0.0,0.0,-5.7174,-5.6821,-5.6604,-5.6604,-5.6349,-5.6294,-5.646,-5.6409,-5.6114,-5.5496,-5.5496,-5.5496,-5.5496,-5.5613,-5.5961,-5.6394,-5.6394,-5.6737,-5.7303,-5.7303,-5.7303,-5.7303,-5.7303,-5.7303,-5.7303,-5.7303,-5.7303,-5.7303,-5.7303,-5.7303,-5.7303,-5.7303,-5.7303,-5.7303,-5.7303,-5.7303,-5.7303,-5.7303,-5.7303,-5.7247,-5.7107,-5.6993,-5.6823,-5.6423,-5.5961,-5.584,-5.646,-5.6601,-5.6654,-5.6957,-5.6873,-5.6788,-5.6985,-5.7041,-5.7041,-5.7041,-5.7393,-5.7662,-5.7662,-5.7812,-5.7938,-5.7938,-5.7938,-5.7771,-5.7382,-5.6771,-5.6242,-5.5881,-5.5269,-5.4936,-5.4936,-5.4936,-5.4995,-5.5203,-5.5203,-5.5261,-5.5496,-5.4879,-5.4288,-5.3668,-5.3021,-5.2345,-3.9446,-4.0435,0.0,0.0,0.0,0.0,0.0,0.0,0.0,0.0,0.0,0.0,0.0,0.0,0.0,0.0,0.0,0.0,0.0,0.0,0.0,0.0,0.0,0.0,0.0,0.0,0.0,0.0,0.0,0.0,-5.6604,-5.6224,-5.5898,-5.5708,-5.5613,-5.5579,-5.5515,-5.5818,-5.5799,-5.5496,-5.5496,-5.5496,-5.5496,-5.5613,-5.5961,-5.6394,-5.6509,-5.6851,-5.7303,-5.7303,-5.7448,-5.7652,-5.7652,-5.7768,-5.7942,-5.771,-5.7652,-5.7594,-5.739,-5.7303,-5.7303,-5.7303,-5.7303,-5.7303,-5.7303,-5.7303,-5.7303,-5.7303,-5.7247,-5.7134,-5.6936,-5.6766,-5.648,-5.5961,-5.5671,-5.5721,-5.6564,-5.6564,-5.6676,-5.7519,-5.7519,-5.7463,-5.7538,-5.7505,-5.7505,-5.7383,-5.7701,-5.7904,-5.7904,-5.8076,-5.8198,-5.8198,-5.8198,-5.8032,-5.7646,-5.7038,-5.643,-5.585,-5.5243,-5.4801,-5.4607,-5.4607,-5.4699,-5.4849,-5.4877,-5.5026,-5.532,-5.5018,-5.4569,-5.4005,-5.3331,-5.2625,0.0,0.0,0.0,0.0,0.0,0.0,0.0,0.0,0.0,0.0,0.0,0.0,0.0,0.0,0.0,0.0,0.0,0.0,0.0,0.0,0.0,0.0,0.0,0.0,0.0,0.0,0.0,0.0,0.0,-5.541,-5.541,-5.5383,-5.5111,-5.446,-5.4794,-5.4825,-5.4607,-5.4877,-5.5144,-5.5468,-5.5496,-5.5496,-5.5468,-5.5845,-5.6135,-5.6394,-5.6766,-5.705,-5.7332,-5.7332,-5.771,-5.8348,-5.8348,-5.8726,-5.9219,-5.8581,-5.8319,-5.8203,-5.7565,-5.7332,-5.7303,-5.7303,-5.7303,-5.7303,-5.7303,-5.7303,-5.7303,-5.7303,-5.7078,-5.688,-5.688,-5.6423,-5.5932,-5.5554,-5.5524,-5.5861,-5.7126,-5.6901,-5.6845,-5.8081,-5.7856,-5.751,-5.779,-5.7812,-5.7688,-5.7404,-5.7811,-5.8198,-5.8198,-5.8198,-5.8198,-5.8198,-5.8198,-5.8198,-5.8198,-5.7646,-5.7038,-5.6458,-5.585,-5.5243,-5.4603,-5.4548,-5.4607,-5.4607,-5.4607,-5.4699,-5.4967,-5.532,-5.5189,-5.46,-5.3951,-5.2967,-3.9705,0.0,0.0,0.0,0.0,0.0,0.0,0.0,0.0,0.0,0.0,0.0,0.0,0.0,0.0,0.0,0.0,0.0,0.0,0.0,0.0,0.0,0.0,0.0,0.0,0.0,0.0,0.0,-5.541,-5.541,-5.541,-5.4976,-5.446,-5.3863,-5.4139,-5.4446,-5.4607,-5.4877,-5.4921,-5.485,-5.5299,-5.5271,-5.485,-5.5415,-5.5903,-5.6394,-5.6509,-5.7082,-5.8029,-5.8029,-5.8435,-5.9016,-5.9016,-5.9132,-5.9277,-5.9103,-5.8726,-5.829,-5.8087,-5.771,-5.7303,-5.7303,-5.7303,-5.7303,-5.7303,-5.7303,-5.7247,-5.7107,-5.6936,-5.6823,-5.6365,-5.5961,-5.5613,-5.5496,-5.5833,-5.6395,-5.721,-5.7421,-5.7718,-5.875,-5.8625,-5.8383,-5.8425,-5.8265,-5.8076,-5.7949,-5.7897,-5.7816,-5.7816,-5.7624,-5.7496,-5.7496,-5.7496,-5.7496,-5.7496,-5.6886,-5.6477,-5.6314,-5.5367,-5.4712,-5.4548,-5.4139,-5.3981,-5.4194,-5.4254,-5.4401,-5.4699,-5.4973,-5.4926,-5.456,-5.3471,-5.2574,-3.9691,-4.0024,-4.0382,-4.0969,0.0,0.0,-4.2526,0.0,0.0,0.0,0.0,0.0,0.0,0.0,0.0,0.0,0.0,0.0,0.0,0.0,0.0,0.0,0.0,0.0,0.0,0.0,0.0,0.0,-5.465,-5.465,-5.465,-5.4324,-5.3944,-5.3619,-5.3528,-5.3718,-5.4193,-5.4093,-5.4079,-5.4203,-5.4821,-5.4934,-5.4597,-5.5215,-5.5845,-5.6423,-5.6708,-5.7542,-5.8726,-5.8987,-5.9335,-5.9684,-5.9684,-5.9858,-6.0061,-5.9771,-5.9422,-5.9016,-5.8493,-5.8058,-5.7681,-5.739,-5.7303,-5.7303,-5.7134,-5.7134,-5.7078,-5.6737,-5.6595,-5.6423,-5.5903,-5.5613,-5.5496,-5.5496,-5.5973,-5.6532,-5.7057,-5.7489,-5.8041,-5.8843,-5.8704,-5.8451,-5.8325,-5.8135,-5.7944,-5.7816,-5.7624,-5.7496,-5.7496,-5.7303,-5.7174,-5.7174,-5.7174,-5.7174,-5.7174,-5.6875,-5.6577,-5.6332,-5.5627,-5.5138,-5.4894,-5.4297,-5.4093,-5.4276,-5.403,-5.4074,-5.4401,-5.4825,-5.4895,-5.459,-5.3557,-5.2798,-3.9598,-4.0056,-4.0491,-4.0795,-4.0896,0.0,-4.1979,-4.2552,0.0,0.0,0.0,0.0,0.0,0.0,0.0,0.0,0.0,0.0,0.0,0.0,0.0,0.0,0.0,0.0,0.0,0.0,0.0,-5.3477,-5.3429,-5.3402,-5.3402,-5.3402,-5.3402,-5.3402,-5.2886,-5.2911,-5.3472,-5.2978,-5.3017,-5.3585,-5.4203,-5.4484,-5.4512,-5.5102,-5.5789,-5.6394,-5.7108,-5.8117,-5.9277,-5.9945,-6.0235,-6.0322,-6.0322,-6.0671,-6.1135,-6.0526,-6.0264,-6.0032,-5.8842,-5.8377,-5.8203,-5.7536,-5.7303,-5.7191,-5.6993,-5.688,-5.6766,-5.648,-5.6135,-5.5874,-5.5554,-5.5496,-5.5496,-5.5496,-5.5971,-5.6556,-5.6842,-5.7361,-5.7938,-5.8467,-5.8325,-5.8071,-5.7752,-5.7688,-5.756,-5.7238,-5.7174,-5.7174,-5.7174,-5.7174,-5.7174,-5.7174,-5.7174,-5.7174,-5.7174,-5.7174,-5.6956,-5.6441,-5.6332,-5.6061,-5.5545,-5.4921,-5.4569,-5.4487,-5.389,-5.3773,-5.4074,-5.473,-5.4837,-5.4511,-5.4008,-5.3388,-4.0032,-4.0084,-4.0236,-4.0491,-4.0744,0.0,-4.1749,-4.2111,0.0,0.0,0.0,0.0,0.0,0.0,0.0,0.0,0.0,0.0,0.0,0.0,0.0,0.0,0.0,0.0,0.0,0.0,-5.3052,-5.2527,-5.2247,-5.2181,-5.2181,-5.2181,-5.2181,-5.2181,-5.2072,-5.2284,-5.2895,-5.2757,-5.2738,-5.2911,-5.3557,-5.3866,-5.3866,-5.4484,-5.5278,-5.6134,-5.6992,-5.7971,-5.8956,-5.9827,-6.0526,-6.099,-6.099,-6.1077,-6.1193,-6.1048,-6.0671,-6.009,-5.9364,-5.8755,-5.8203,-5.7536,-5.7134,-5.6993,-5.6936,-5.6709,-5.648,-5.6135,-5.5845,-5.5554,-5.5496,-5.5496,-5.5496,-5.5496,-5.6188,-5.6814,-5.6865,-5.7321,-5.7742,-5.7852,-5.7816,-5.7752,-5.7688,-5.7496,-5.7303,-5.7174,-5.7174,-5.7174,-5.7174,-5.7174,-5.7174,-5.7174,-5.7174,-5.7174,-5.7174,-5.7174,-5.7146,-5.7011,-5.6577,-5.6251,-5.6142,-5.5545,-5.5003,-5.4487,-5.389,-5.3773,-5.4074,-5.473,-5.472,-5.4165,-5.4371,-5.381,-4.0734,-4.0711,-4.0687,-4.072,-4.0798,0.0,0.0,-4.1722,0.0,0.0,0.0,0.0,0.0,0.0,0.0,0.0,0.0,0.0,0.0,0.0,0.0,0.0,0.0,0.0,0.0,0.0,-5.1991,-5.1993,-5.1873,-5.1769,-5.1769,-5.1769,-5.1769,-5.1769,-5.1529,-5.1656,-5.2259,-5.1956,-5.1933,-5.2264,-5.2883,-5.336,-5.3754,-5.4316,-5.5107,-5.6076,-5.713,-5.8081,-5.8897,-5.9967,-6.0783,-6.1193,-6.1193,-6.1193,-6.1193,-6.1193,-6.099,-6.0613,-5.9797,-5.9073,-5.8437,-5.76,-5.7024,-5.6652,-5.648,-5.6193,-5.5903,-5.5787,-5.5613,-5.5496,-5.5496,-5.5379,-5.5261,-5.5261,-5.5973,-5.6587,-5.6464,-5.7091,-5.7624,-5.7496,-5.7431,-5.7431,-5.7431,-5.7303,-5.7174,-5.7174,-5.7174,-5.7174,-5.7174,-5.7174,-5.7174,-5.7174,-5.7174,-5.7174,-5.7174,-5.7174,-5.7174,-5.7174,-5.6902,-5.6739,-5.6739,-5.617,-5.541,-5.4514,-5.4189,-5.3951,-5.3833,-5.4314,-5.4564,-5.458,-5.4448,-5.3977,-4.13,-4.1275,-4.1229,-4.1041,-4.0944,-4.0897,0.0,0.0,0.0,0.0,0.0,0.0,0.0,0.0,0.0,0.0,0.0,0.0,0.0,0.0,0.0,0.0,0.0,0.0,0.0,0.0,-5.0934,-5.149,-5.1498,-5.1475,-5.1475,-5.1475,-5.1475,-5.1475,-5.0987,-5.1001,-5.1624,-5.1127,-5.1183,-5.1787,-5.2293,-5.2939,-5.3754,-5.4175,-5.4994,-5.5988,-5.7234,-5.813,-5.869,-6.0042,-6.0742,-6.1013,-6.1133,-6.1133,-6.1073,-6.1073,-6.1073,-6.0837,-5.9788,-5.9124,-5.8519,-5.7539,-5.6793,-5.6308,-5.5961,-5.5671,-5.5496,-5.5496,-5.5437,-5.5379,-5.5379,-5.5144,-5.4908,-5.4908,-5.5529,-5.608,-5.5943,-5.6694,-5.7359,-5.7211,-5.7174,-5.7174,-5.7174,-5.7174,-5.7174,-5.7174,-5.7174,-5.7174,-5.7174,-5.7174,-5.7174,-5.7174,-5.7174,-5.7174,-5.7174,-5.7174,-5.7174,-5.7174,-5.7174,-5.7174,-5.7174,-5.6495,-5.5654,-5.4677,-5.4433,-5.408,-5.3592,-5.3894,-5.4314,-5.4849,-5.4466,-5.4027,-4.148,-4.1275,-4.1275,-4.1254,-4.1089,-4.0947,-4.1208,0.0,-4.123,-4.2056,0.0,0.0,0.0,0.0,0.0,0.0,0.0,0.0,0.0,0.0,0.0,0.0,0.0,0.0,0.0,0.0,0.0,-5.0636,-5.0354,-5.0227,-5.0227,-5.0227,-5.0227,-5.0227,-5.0146,-5.0401,-5.1017,-5.0934,-5.1183,-5.1787,-5.1871,-5.2517,-5.3726,-5.3754,-5.4457,-5.5639,-5.7174,-5.7831,-5.8036,-5.959,-6.0316,-6.0377,-6.0952,-6.1013,-6.0742,-6.0742,-6.056,-6.0144,-5.8882,-5.8425,-5.8167,-5.6908,-5.6307,-5.5961,-5.5671,-5.5496,-5.5496,-5.5496,-5.5261,-5.5085,-5.5085,-5.4877,-5.4667,-5.4667,-5.4924,-5.5313,-5.5799,-5.6177,-5.6613,-5.7092,-5.7174,-5.7174,-5.7174,-5.7174,-5.7174,-5.7174,-5.7174,-5.7174,-5.7174,-5.7174,-5.7174,-5.7174,-5.7174,-5.7174,-5.7174,-5.7174,-5.7174,-5.7174,-5.7174,-5.7174,-5.7174,-5.6115,-5.5437,-5.5301,-5.4243,-5.3673,-5.3592,-5.3652,-5.3833,-5.4194,-5.4647,-5.4302,-4.2359,-4.2283,-4.2208,-4.1882,-4.1433,-4.1115,-4.1101,-4.085,-4.0822,-4.1359,0.0,0.0,0.0,0.0,0.0,0.0,-4.3572,0.0,0.0,0.0,0.0,0.0,0.0,0.0,0.0,0.0,0.0,0.0,0.0,-4.8919,-4.9438,-4.9494,-4.9657,-5.001,-5.001,-5.0292,-5.0906,-5.0906,-5.1183,-5.1787,-5.2152,-5.2798,-5.3726,-5.4035,-5.4681,-5.558,-5.6936,-5.7652,-5.7916,-5.9314,-6.001,-6.0255,-6.0499,-6.0499,-6.0438,-6.0438,-6.0316,-6.0051,-5.8924,-5.8323,-5.7812,-5.6358,-5.5787,-5.5671,-5.5554,-5.5379,-5.5203,-5.5203,-5.4995,-5.4758,-5.4758,-5.452,-5.4341,-5.4341,-5.4479,-5.4753,-5.4998,-5.548,-5.5871,-5.6115,-5.617,-5.617,-5.617,-5.6739,-5.7174,-5.7174,-5.7174,-5.7065,-5.6712,-5.6685,-5.6685,-5.6685,-5.6685,-5.6821,-5.7146,-5.7174,-5.7174,-5.7174,-5.7174,-5.7038,-5.6685,-5.6197,-5.56,-5.4894,-5.4379,-5.3944,-5.3592,-5.3592,-5.3652,-5.3833,-5.4254,-5.3889,-4.2986,-4.2986,-4.2942,-4.2539,-4.1856,-4.1282,-4.1119,-4.0797,-4.0593,-4.0846,-4.1097,0.0,0.0,0.0,-4.2108,-4.2683,0.0,-4.2658,0.0,0.0,0.0,0.0,0.0,0.0,0.0,0.0,0.0,0.0,-4.7698,0.0,-4.8704,-4.8815,-4.9032,-4.9521,-4.9684,-5.0046,-5.0657,-5.0823,-5.1183,-5.1787,-5.2405,-5.3051,-5.3754,-5.4316,-5.4934,-5.558,-5.6845,-5.7499,-5.7825,-5.9069,-5.9702,-5.9948,-5.9948,-5.9834,-5.9692,-5.9953,-5.9896,-5.9546,-5.8706,-5.7881,-5.7002,-5.5864,-5.5437,-5.5379,-5.5379,-5.5144,-5.4849,-5.4849,-5.4699,-5.446,-5.446,-5.4221,-5.3954,-5.3954,-5.41,-5.4297,-5.4433,-5.484,-5.522,-5.5257,-5.5284,-5.5222,-5.5159,-5.5988,-5.6712,-5.6712,-5.6712,-5.6549,-5.6115,-5.6061,-5.5998,-5.5934,-5.5907,-5.6097,-5.653,-5.6557,-5.6621,-5.6685,-5.6712,-5.6495,-5.6061,-5.5898,-5.5383,-5.4514,-5.4324,-5.4026,-5.3592,-5.3592,-5.3592,-5.3592,-5.3954,-5.3618,0.0,0.0,0.0,-4.2961,-4.2133,-4.1383,-4.16,-4.1078,-4.0593,-4.0846,-4.1097,-4.1324,-4.135,-4.135,-4.1533,-4.2159,-4.1722,0.0,0.0,0.0,0.0,0.0,0.0,0.0,0.0,0.0,0.0,0.0,-4.7478,0.0,-4.7835,-4.8109,-4.8219,-4.8246,-4.8788,-4.9418,-5.0022,-5.0602,-5.1183,-5.1787,-5.2405,-5.3051,-5.3754,-5.4316,-5.4934,-5.558,-5.6845,-5.7378,-5.7491,-5.8699,-5.9205,-5.9205,-5.9205,-5.8868,-5.8451,-5.938,-5.9149,-5.825,-5.7692,-5.6592,-5.5552,-5.5524,-5.5261,-5.5026,-5.5026,-5.4817,-5.4607,-5.4607,-5.4401,-5.4134,-5.4134,-5.3894,-5.3592,-5.3592,-5.3619,-5.3782,-5.4351,-5.4514,-5.4615,-5.4898,-5.4943,-5.4817,-5.45,-5.4997,-5.5464,-5.5464,-5.5464,-5.5464,-5.5437,-5.5437,-5.5311,-5.497,-5.497,-5.497,-5.4997,-5.4997,-5.5123,-5.5464,-5.5464,-5.5464,-5.5437,-5.4867,-5.4514,-5.4487,-5.3917,-5.3619,-5.3592,-5.3592,-5.3592,-5.3592,-5.3954,-5.3745,0.0,0.0,-4.2986,-4.2986,0.0,0.0,0.0,-4.1226,-4.0952,-4.067,-4.0997,-4.1324,-4.1324,-4.1324,-4.1376,-4.1559,-4.1432,-4.1408,0.0,-4.2213,0.0,0.0,0.0,0.0,0.0,0.0,0.0,-4.5761,-4.6141,-4.6571,0.0,-4.7487,-4.7839,-4.8192,-4.8761,-4.9281,-4.9721,-5.0492,-5.1128,-5.1569,-5.2799,-5.3445,-5.3697,-5.4737,-5.5299,-5.558,-5.6845,-5.7378,-5.7435,-5.8278,-5.8615,-5.8559,-5.8165,-5.7884,-5.7772,-5.8513,-5.8344,-5.7603,-5.6957,-5.608,-5.5144,-5.5144,-5.4995,-5.4758,-5.4758,-5.452,-5.4254,-5.4254,-5.4014,-5.3773,-5.3773,-5.3652,-5.3592,-5.3592,-5.341,-5.3369,-5.3558,-5.3401,-5.327,-5.3334,-5.3387,-5.3325,-5.3201,-5.3387,-5.3842,-5.4646,-5.4717,-5.4556,-5.4181,-5.4128,-5.4128,-5.4002,-5.4002,-5.4163,-5.4537,-5.4564,-5.469,-5.5069,-5.5069,-5.497,-5.4813,-5.4596,-5.4297,-5.389,-5.37,-5.3592,-5.3592,-5.3592,-5.3592,-5.3592,-5.3713,-5.3474,-4.2986,-4.2986,0.0,-4.2986,-4.2615,0.0,-4.1706,0.0,-4.1542,-4.1183,-4.1517,-4.1873,-4.1664,-4.1432,-4.1278,-4.1274,-4.1324,-4.1324,0.0,-4.1638,0.0,0.0,0.0,-4.365,0.0,-4.4199,-4.4567,-4.4992,-4.5287,-4.5768,0.0,0.0,-4.7108,-4.7595,-4.8192,-4.8763,-4.9282,-5.0051,-5.0768,-5.1404,-5.2855,-5.3556,-5.3726,-5.4934,-5.5496,-5.5552,-5.6592,-5.7041,-5.7097,-5.7716,-5.7969,-5.794,-5.7547,-5.7238,-5.7126,-5.7744,-5.7514,-5.6777,-5.6132,-5.542,-5.4877,-5.4877,-5.4639,-5.4401,-5.4401,-5.4221,-5.3894,-5.3894,-5.3773,-5.3592,-5.3592,-5.3531,-5.341,-5.341,-5.3166,-5.2922,-5.2922,-5.2738,-5.2527,-5.2492,-5.243,-5.2342,-5.228,-5.2218,-5.2607,-5.3627,-5.3734,-5.3601,-5.3228,-5.3174,-5.3112,-5.3014,-5.3014,-5.3147,-5.3545,-5.3671,-5.3859,-5.4047,-5.4172,-5.4198,-5.4005,-5.41,-5.3999,-5.3619,-5.3592,-5.3592,-5.3592,-5.3592,-5.3592,-5.3592,-5.3592,-5.3402]},{"header":{"parameterUnit":"m.s-1","parameterCategory":1,"la1":30.6,"la2":29.2853,"lo1":-89.7004,"lo2":-87.6739,"dy":0.0162,"dx":0.0183,"nx":112,"ny":82,"refTime":"2023-06-17T12:00:00:Z","depth":0,"parameterNumber":3,"parameterNumberName":"V-component_of_WINDS"},"data":[0.0,0.0,0.0,0.0,0.0,0.0,0.0,0.0,0.0,0.0,0.0,0.0,0.0,0.0,0.0,0.0,0.0,0.0,0.0,0.0,0.0,0.0,0.0,0.0,0.0,0.0,0.0,0.0,0.0,0.0,0.0,0.0,0.0,0.0,0.0,0.0,0.0,0.0,0.0,0.0,0.0,0.0,0.0,0.0,0.0,0.0,0.0,0.0,0.0,0.0,0.0,0.0,0.0,0.0,0.0,0.0,0.0,0.0,0.0,0.0,0.0,0.0,0.0,0.0,0.0,0.0,0.0,0.0,0.0,0.0,0.0,0.0,0.0,0.0,0.0,0.0,0.0,0.0,0.0,0.0,0.0,0.0,0.0,0.0,0.0,0.0,0.0,0.0,0.0,0.0,-2.2969,-2.5099,-2.6794,-2.7739,-2.769,-2.7704,-2.7255,-2.617,0.0,0.0,0.0,0.0,0.0,0.0,0.0,0.0,0.0,0.0,0.0,0.0,0.0,0.0,0.0,0.0,0.0,0.0,0.0,0.0,0.0,0.0,0.0,0.0,0.0,0.0,0.0,0.0,0.0,0.0,0.0,0.0,0.0,0.0,0.0,0.0,0.0,0.0,0.0,0.0,0.0,0.0,0.0,0.0,0.0,0.0,0.0,0.0,0.0,0.0,0.0,0.0,0.0,0.0,0.0,0.0,0.0,0.0,0.0,0.0,0.0,0.0,0.0,0.0,0.0,0.0,0.0,0.0,0.0,0.0,0.0,0.0,0.0,0.0,0.0,0.0,0.0,0.0,0.0,0.0,0.0,0.0,0.0,0.0,0.0,0.0,0.0,0.0,0.0,0.0,0.0,0.0,0.0,0.0,0.0,0.0,0.0,0.0,0.0,0.0,0.0,0.0,0.0,0.0,-2.3555,-2.6005,-2.7649,-2.8425,-2.8221,-2.8541,-2.8145,-2.6576,0.0,0.0,0.0,0.0,0.0,0.0,0.0,0.0,0.0,0.0,0.0,0.0,0.0,0.0,0.0,0.0,0.0,0.0,0.0,0.0,0.0,0.0,0.0,0.0,0.0,0.0,0.0,0.0,0.0,0.0,0.0,0.0,0.0,0.0,0.0,0.0,0.0,0.0,0.0,0.0,0.0,0.0,0.0,0.0,0.0,0.0,0.0,0.0,0.0,0.0,0.0,0.0,0.0,0.0,0.0,0.0,0.0,0.0,0.0,0.0,0.0,0.0,0.0,0.0,0.0,0.0,0.0,0.0,0.0,0.0,0.0,0.0,0.0,0.0,0.0,0.0,0.0,0.0,0.0,0.0,0.0,0.0,0.0,0.0,0.0,0.0,0.0,0.0,0.0,0.0,0.0,0.0,0.0,0.0,0.0,0.0,0.0,0.0,0.0,0.0,0.0,0.0,0.0,-2.3944,-2.5317,-2.7062,-2.8342,-2.9036,-2.8911,-2.9183,-2.8598,-2.6714,-2.5505,0.0,0.0,0.0,0.0,0.0,0.0,0.0,0.0,0.0,0.0,0.0,0.0,0.0,0.0,0.0,0.0,0.0,0.0,0.0,0.0,0.0,0.0,0.0,0.0,0.0,0.0,0.0,0.0,0.0,0.0,0.0,0.0,0.0,0.0,0.0,0.0,0.0,0.0,0.0,0.0,0.0,0.0,0.0,0.0,0.0,0.0,0.0,0.0,0.0,0.0,0.0,0.0,0.0,0.0,0.0,0.0,0.0,0.0,0.0,0.0,0.0,0.0,0.0,0.0,0.0,0.0,0.0,0.0,0.0,0.0,0.0,0.0,0.0,0.0,0.0,0.0,0.0,0.0,0.0,0.0,0.0,0.0,0.0,0.0,0.0,0.0,0.0,0.0,0.0,0.0,0.0,0.0,0.0,0.0,0.0,0.0,0.0,0.0,0.0,0.0,0.0,0.0,-2.5083,-2.6752,-2.7951,-2.8868,-2.9428,-2.9494,-2.9621,-2.8845,-2.679,-2.5792,0.0,0.0,0.0,0.0,0.0,0.0,0.0,0.0,0.0,0.0,0.0,0.0,0.0,0.0,0.0,0.0,0.0,0.0,0.0,0.0,0.0,0.0,0.0,0.0,0.0,0.0,0.0,0.0,0.0,0.0,0.0,0.0,0.0,0.0,0.0,0.0,0.0,0.0,0.0,0.0,0.0,0.0,0.0,0.0,0.0,0.0,0.0,0.0,0.0,0.0,0.0,0.0,0.0,0.0,0.0,0.0,0.0,0.0,0.0,0.0,0.0,0.0,0.0,0.0,0.0,0.0,0.0,0.0,0.0,0.0,0.0,0.0,0.0,0.0,0.0,0.0,0.0,0.0,0.0,0.0,0.0,0.0,0.0,0.0,0.0,0.0,0.0,0.0,0.0,0.0,0.0,0.0,0.0,0.0,0.0,0.0,0.0,0.0,0.0,0.0,0.0,0.0,-2.5318,-2.6894,-2.8486,-2.9122,-2.9494,-2.9664,-2.9706,-2.8886,-2.7004,-2.5865,0.0,0.0,0.0,0.0,0.0,0.0,0.0,0.0,0.0,0.0,0.0,0.0,0.0,0.0,0.0,0.0,0.0,0.0,0.0,0.0,0.0,0.0,0.0,0.0,0.0,0.0,0.0,0.0,0.0,0.0,0.0,0.0,0.0,0.0,0.0,0.0,0.0,0.0,0.0,0.0,0.0,0.0,0.0,0.0,0.0,0.0,0.0,0.0,0.0,0.0,0.0,0.0,0.0,0.0,0.0,0.0,0.0,0.0,0.0,0.0,0.0,0.0,0.0,0.0,0.0,0.0,0.0,0.0,0.0,0.0,0.0,0.0,0.0,0.0,0.0,0.0,0.0,0.0,0.0,0.0,0.0,0.0,0.0,0.0,0.0,0.0,0.0,0.0,0.0,0.0,0.0,0.0,0.0,0.0,0.0,0.0,0.0,0.0,0.0,0.0,0.0,0.0,-2.5707,-2.7305,-2.8879,-2.9523,-2.9875,-2.9959,-2.9959,-2.9073,-2.7018,0.0,0.0,0.0,0.0,0.0,0.0,0.0,0.0,0.0,0.0,0.0,0.0,0.0,0.0,0.0,0.0,0.0,0.0,0.0,0.0,0.0,0.0,0.0,0.0,0.0,0.0,0.0,0.0,0.0,0.0,0.0,0.0,0.0,0.0,0.0,0.0,0.0,0.0,0.0,0.0,0.0,0.0,0.0,0.0,0.0,0.0,0.0,0.0,0.0,0.0,0.0,0.0,0.0,0.0,0.0,0.0,0.0,0.0,0.0,0.0,0.0,0.0,0.0,0.0,0.0,0.0,0.0,0.0,0.0,0.0,0.0,0.0,0.0,0.0,0.0,0.0,0.0,0.0,0.0,0.0,0.0,0.0,0.0,0.0,0.0,0.0,0.0,0.0,0.0,0.0,0.0,0.0,0.0,0.0,0.0,0.0,0.0,0.0,0.0,0.0,0.0,0.0,-2.464,-2.6009,-2.757,-2.9364,-2.9869,-3.0086,-3.0086,-3.0086,-2.9196,-2.7042,0.0,0.0,0.0,0.0,0.0,0.0,0.0,0.0,0.0,0.0,0.0,0.0,0.0,0.0,0.0,0.0,0.0,0.0,0.0,0.0,0.0,0.0,0.0,0.0,0.0,0.0,0.0,0.0,0.0,0.0,0.0,0.0,0.0,0.0,0.0,0.0,0.0,0.0,0.0,0.0,0.0,0.0,0.0,0.0,0.0,0.0,0.0,0.0,0.0,0.0,0.0,0.0,0.0,0.0,0.0,0.0,0.0,0.0,0.0,0.0,0.0,0.0,0.0,0.0,0.0,0.0,0.0,0.0,0.0,0.0,0.0,0.0,0.0,0.0,0.0,0.0,0.0,0.0,0.0,0.0,0.0,0.0,0.0,0.0,0.0,0.0,0.0,0.0,0.0,0.0,0.0,0.0,0.0,0.0,0.0,0.0,0.0,0.0,0.0,0.0,0.0,0.0,-2.518,-2.6225,-2.7714,-2.9869,-3.0086,-3.0086,-3.0086,-3.0086,-2.9196,0.0,0.0,0.0,0.0,0.0,0.0,0.0,0.0,0.0,0.0,0.0,0.0,0.0,0.0,0.0,0.0,0.0,0.0,0.0,0.0,0.0,0.0,0.0,0.0,0.0,0.0,0.0,0.0,0.0,0.0,0.0,0.0,0.0,0.0,0.0,0.0,0.0,0.0,0.0,0.0,0.0,0.0,0.0,0.0,0.0,0.0,0.0,0.0,0.0,0.0,0.0,0.0,0.0,0.0,0.0,0.0,0.0,0.0,0.0,0.0,0.0,0.0,0.0,0.0,0.0,0.0,0.0,0.0,0.0,0.0,0.0,0.0,0.0,0.0,0.0,0.0,0.0,0.0,0.0,0.0,0.0,0.0,0.0,0.0,0.0,0.0,0.0,0.0,0.0,0.0,0.0,0.0,0.0,0.0,0.0,0.0,0.0,0.0,0.0,0.0,0.0,0.0,0.0,-2.5685,-2.6815,-2.8162,-2.9893,-3.0422,-3.0494,-3.011,-3.0086,-2.9196,-2.7042,0.0,0.0,0.0,0.0,0.0,0.0,0.0,0.0,0.0,0.0,0.0,0.0,0.0,0.0,0.0,0.0,0.0,0.0,0.0,0.0,0.0,0.0,0.0,0.0,0.0,0.0,0.0,0.0,0.0,0.0,0.0,0.0,0.0,0.0,0.0,0.0,0.0,0.0,0.0,0.0,0.0,0.0,0.0,0.0,0.0,0.0,0.0,0.0,0.0,0.0,0.0,0.0,0.0,0.0,0.0,0.0,0.0,0.0,0.0,0.0,0.0,0.0,0.0,0.0,0.0,0.0,0.0,0.0,0.0,0.0,0.0,0.0,0.0,0.0,0.0,0.0,0.0,0.0,0.0,0.0,0.0,0.0,0.0,0.0,0.0,0.0,0.0,0.0,0.0,0.0,0.0,0.0,0.0,0.0,0.0,0.0,0.0,0.0,0.0,0.0,0.0,0.0,-2.5949,-2.7224,-2.857,-2.9941,-3.0567,-3.0663,-3.0134,-3.0086,-2.9196,-2.7042,0.0,0.0,0.0,0.0,0.0,0.0,0.0,0.0,0.0,0.0,0.0,0.0,0.0,0.0,0.0,0.0,0.0,0.0,0.0,0.0,0.0,0.0,0.0,0.0,0.0,0.0,0.0,0.0,0.0,0.0,0.0,0.0,0.0,0.0,0.0,0.0,0.0,0.0,0.0,0.0,0.0,0.0,0.0,0.0,0.0,0.0,0.0,0.0,0.0,0.0,0.0,0.0,0.0,0.0,0.0,0.0,0.0,0.0,0.0,0.0,0.0,0.0,0.0,0.0,0.0,0.0,0.0,0.0,0.0,0.0,0.0,0.0,0.0,0.0,0.0,0.0,0.0,0.0,0.0,0.0,0.0,0.0,0.0,0.0,0.0,0.0,0.0,0.0,0.0,0.0,0.0,0.0,0.0,0.0,0.0,0.0,0.0,0.0,0.0,0.0,0.0,0.0,-2.6238,-2.7657,-2.9003,-3.0037,-3.0639,-3.0778,-3.0206,-3.011,-2.922,-2.7162,0.0,0.0,0.0,0.0,0.0,0.0,0.0,0.0,0.0,0.0,0.0,0.0,0.0,0.0,0.0,0.0,0.0,0.0,0.0,0.0,0.0,0.0,0.0,0.0,0.0,0.0,0.0,0.0,0.0,0.0,0.0,0.0,0.0,0.0,0.0,0.0,0.0,0.0,0.0,0.0,0.0,0.0,0.0,0.0,0.0,0.0,0.0,0.0,0.0,0.0,0.0,0.0,0.0,0.0,0.0,0.0,0.0,0.0,0.0,0.0,-2.4089,0.0,0.0,0.0,0.0,0.0,0.0,0.0,0.0,0.0,0.0,0.0,0.0,0.0,0.0,0.0,0.0,0.0,0.0,0.0,0.0,0.0,0.0,0.0,0.0,0.0,0.0,0.0,0.0,0.0,0.0,0.0,0.0,0.0,0.0,0.0,0.0,0.0,0.0,0.0,0.0,0.0,-2.7753,-2.8667,-2.9532,-3.0591,-3.1235,-3.1332,-3.0759,-3.0326,-2.9532,-2.8258,-2.6863,0.0,0.0,0.0,0.0,0.0,0.0,0.0,0.0,0.0,0.0,0.0,0.0,0.0,0.0,0.0,0.0,0.0,0.0,0.0,0.0,0.0,0.0,0.0,0.0,0.0,0.0,0.0,0.0,0.0,0.0,0.0,0.0,0.0,0.0,0.0,0.0,0.0,0.0,0.0,0.0,0.0,0.0,0.0,0.0,0.0,0.0,0.0,0.0,0.0,0.0,0.0,0.0,0.0,0.0,0.0,0.0,0.0,0.0,0.0,0.0,-2.5412,0.0,0.0,0.0,0.0,0.0,0.0,0.0,0.0,0.0,0.0,0.0,0.0,0.0,0.0,0.0,0.0,0.0,0.0,0.0,0.0,0.0,0.0,0.0,0.0,0.0,0.0,0.0,0.0,0.0,0.0,0.0,0.0,0.0,0.0,0.0,0.0,0.0,0.0,0.0,0.0,-2.8378,-2.9412,-3.0278,-3.0807,-3.1404,-3.15,-3.097,-3.0615,-2.9917,-2.8595,-2.7729,0.0,0.0,0.0,0.0,0.0,0.0,0.0,0.0,0.0,0.0,0.0,0.0,0.0,0.0,0.0,0.0,0.0,0.0,0.0,0.0,0.0,0.0,0.0,0.0,0.0,0.0,0.0,0.0,0.0,0.0,0.0,0.0,0.0,0.0,0.0,0.0,0.0,0.0,0.0,0.0,0.0,0.0,0.0,0.0,0.0,0.0,0.0,0.0,0.0,0.0,0.0,0.0,0.0,-2.7061,-2.7717,-2.898,-2.9063,-2.9559,-3.0263,-2.8613,-2.7615,-2.7183,-2.7183,0.0,0.0,0.0,0.0,0.0,0.0,0.0,0.0,0.0,0.0,0.0,0.0,0.0,0.0,0.0,0.0,0.0,0.0,0.0,0.0,0.0,0.0,0.0,0.0,-3.0256,-2.9965,0.0,0.0,0.0,0.0,0.0,0.0,0.0,0.0,0.0,0.0,0.0,0.0,-2.9027,-3.0206,-3.1139,-3.1308,-3.1741,-3.1765,-3.1192,-3.1072,-3.0422,-2.9003,-2.8667,-2.7705,0.0,0.0,0.0,0.0,0.0,0.0,0.0,0.0,0.0,0.0,0.0,0.0,0.0,0.0,0.0,0.0,0.0,0.0,0.0,0.0,0.0,0.0,0.0,0.0,0.0,0.0,0.0,0.0,0.0,0.0,0.0,0.0,-2.7811,-2.81,0.0,0.0,0.0,0.0,0.0,0.0,0.0,0.0,0.0,0.0,0.0,0.0,0.0,-2.67,-2.7258,-2.7508,-2.8078,-2.9062,-2.8982,-2.9456,-3.0429,-3.0822,-3.1298,-3.1719,-3.1884,0.0,-2.9518,-2.9518,0.0,0.0,0.0,0.0,0.0,0.0,0.0,0.0,0.0,0.0,0.0,0.0,0.0,0.0,0.0,0.0,0.0,0.0,0.0,0.0,0.0,0.0,-3.1261,-3.2225,-3.251,-3.2355,0.0,-3.0009,-2.8402,-2.8402,-2.7598,0.0,0.0,0.0,0.0,0.0,0.0,0.0,-3.1115,-3.1476,-3.1958,-3.2875,-3.3044,-3.2851,-3.2322,-3.1841,-3.1332,-3.0657,-2.9268,-2.8378,-2.8089,-2.7162,0.0,0.0,0.0,0.0,0.0,0.0,0.0,0.0,0.0,0.0,0.0,0.0,0.0,0.0,0.0,0.0,0.0,0.0,0.0,0.0,0.0,0.0,0.0,0.0,0.0,0.0,0.0,0.0,0.0,-2.8425,-2.9049,-2.9255,-2.8906,-2.8545,0.0,0.0,0.0,0.0,0.0,0.0,0.0,0.0,0.0,-2.7632,-2.7535,-2.7897,-2.885,-2.88,-2.9274,-3.016,-3.0381,-3.0946,-3.1857,-3.2561,-3.3141,-3.3596,-3.4051,-3.3782,-3.2975,-3.1961,-3.1526,-3.1526,0.0,0.0,0.0,0.0,-3.3968,-3.4392,-3.4779,-3.4438,0.0,-3.3543,0.0,0.0,0.0,0.0,0.0,0.0,0.0,0.0,0.0,0.0,0.0,-3.364,-3.384,-3.3948,-3.3843,-3.2673,-3.1341,0.0,-2.9412,-2.8994,-2.9449,0.0,0.0,0.0,0.0,-3.1336,-3.2034,-3.2394,-3.2755,-3.3236,-3.3284,-3.3188,-3.2971,-3.2442,-3.1913,-3.1404,-3.0398,-2.9436,-2.8546,-2.8065,-2.7282,0.0,0.0,0.0,0.0,0.0,0.0,0.0,0.0,0.0,0.0,0.0,0.0,0.0,0.0,0.0,0.0,0.0,0.0,0.0,0.0,0.0,0.0,0.0,0.0,0.0,0.0,0.0,0.0,-2.945,-2.9931,-3.0336,-3.003,-2.9782,0.0,0.0,0.0,0.0,0.0,0.0,-2.8039,-2.796,-2.8304,-2.9175,-2.8924,-2.9211,-3.0255,-3.0098,-3.0538,-3.1498,-3.173,-3.2327,-3.3265,-3.4051,-3.4672,-3.5128,-3.5707,-3.6019,-3.5936,-3.4232,-3.3547,-3.3605,-3.3933,-3.4323,-3.4846,-3.5482,-3.6029,-3.6414,-3.6517,-3.6256,-3.5806,-3.5441,0.0,-3.4428,-3.3605,0.0,0.0,0.0,0.0,-3.3701,-3.3732,-3.4485,-3.5168,-3.5275,-3.5344,-3.5336,-3.5198,-3.4762,-3.3866,0.0,-3.1249,-3.0951,-3.148,0.0,0.0,0.0,0.0,-3.2755,-3.2875,-3.3236,-3.3525,-3.3669,-3.3669,-3.3621,-3.3501,-3.3116,-3.2611,-3.1958,-3.1428,-3.0494,-2.9172,-2.8859,-2.8282,-2.7306,0.0,0.0,0.0,0.0,0.0,0.0,0.0,0.0,0.0,0.0,0.0,0.0,0.0,0.0,0.0,0.0,0.0,0.0,0.0,0.0,0.0,0.0,0.0,0.0,0.0,0.0,0.0,0.0,0.0,-3.1318,-3.0616,0.0,0.0,0.0,0.0,-2.9033,-2.9184,-2.9214,-2.8944,-2.9347,-2.9632,-2.9738,-3.0384,-3.1029,-3.1498,-3.1668,-3.2352,-3.343,-3.3212,-3.3659,-3.4733,-3.5148,-3.5604,-3.6101,-3.6991,-3.758,-3.7758,-3.6394,-3.5806,-3.5867,-3.6213,-3.6612,-3.71,-3.7453,-3.7816,-3.8204,-3.854,-3.8339,-3.7924,-3.7902,-3.7025,-3.5801,-3.5255,-3.4977,0.0,0.0,-3.538,-3.6117,-3.6341,-3.6816,-3.7292,-3.7575,-3.7265,-3.6782,-3.63,-3.5795,-3.5129,0.0,-3.304,-3.2568,-3.3074,0.0,-3.2605,-3.3166,-3.3236,-3.3428,-3.3862,-3.3934,-3.415,-3.4655,-3.4703,-3.451,-3.4006,-3.3934,-3.3478,-3.2515,-3.1982,-3.1404,-3.0783,-2.9797,-2.9003,-2.845,-2.7921,0.0,0.0,0.0,0.0,0.0,0.0,0.0,0.0,0.0,0.0,0.0,0.0,0.0,0.0,0.0,0.0,0.0,0.0,0.0,0.0,0.0,0.0,0.0,0.0,0.0,0.0,0.0,0.0,-3.1381,-3.107,0.0,-3.0712,-3.0503,-3.0391,-3.0387,-2.9954,-3.0052,-3.0803,-3.062,-3.0855,-3.1686,-3.1847,-3.225,-3.3005,-3.3236,-3.3703,-3.4529,-3.477,-3.5183,-3.5666,-3.6722,-3.7411,-3.7793,-3.8733,-3.9399,-3.9714,-3.9811,-3.9126,-3.8146,-3.8466,-3.8895,-3.939,-3.9715,-4.0149,-4.0431,-4.0258,-3.9908,-3.9406,-3.8772,-3.8152,-3.761,-3.7471,-3.731,-3.7166,-3.7166,-3.7309,-3.7449,-3.7564,-3.7622,-3.7679,-3.7793,-3.7655,-3.7471,-3.7288,-3.6851,-3.6392,-3.6025,-3.4877,-3.4134,-3.4668,-3.4604,-3.4686,-3.5182,-3.528,-3.5352,-3.5545,-3.5569,-3.5641,-3.5833,-3.5545,-3.5256,-3.5064,-3.439,-3.3838,-3.3478,-3.2683,-3.1961,-3.1452,-3.073,-2.9917,-2.9027,-2.8618,-2.8159,0.0,0.0,0.0,0.0,0.0,0.0,0.0,0.0,0.0,0.0,0.0,0.0,0.0,0.0,0.0,0.0,0.0,0.0,0.0,0.0,0.0,0.0,0.0,0.0,0.0,0.0,-3.1112,-3.1859,-3.1509,-3.1269,-3.1443,-3.1265,-3.1128,-3.1119,-3.0902,-3.1075,-3.1621,-3.1756,-3.206,-3.2672,-3.3041,-3.3498,-3.4032,-3.4693,-3.5186,-3.5665,-3.6383,-3.6834,-3.7231,-3.8319,-3.9101,-3.9639,-4.042,-4.105,-4.1636,-4.2339,-4.2042,-4.1069,-4.0969,-4.1015,-4.1145,-4.1414,-4.1568,-4.1655,-4.135,-4.1088,-4.0804,-3.9816,-3.9478,-3.9481,-3.9126,-3.9036,-3.901,-3.901,-3.9024,-3.9012,-3.9012,-3.8765,-3.855,-3.855,-3.8298,-3.8045,-3.8045,-3.7655,-3.7288,-3.7288,-3.6071,-3.5195,-3.5746,-3.5709,-3.5774,-3.6309,-3.6411,-3.6411,-3.6411,-3.6411,-3.6411,-3.6411,-3.6098,-3.5809,-3.5641,-3.4919,-3.4366,-3.4006,-3.3236,-3.2515,-3.1961,-3.1327,-3.067,-2.9946,-2.9528,-2.919,-2.8977,0.0,0.0,0.0,0.0,0.0,0.0,0.0,0.0,0.0,0.0,0.0,0.0,0.0,0.0,0.0,0.0,0.0,0.0,0.0,0.0,0.0,0.0,0.0,-3.1772,-3.1785,-3.1994,-3.2696,-3.1987,-3.1575,-3.1957,-3.1838,-3.1547,-3.1137,-3.2047,-3.2176,-3.1345,-3.2744,-3.322,-3.2504,-3.407,-3.4813,-3.4622,-3.602,-3.6801,-3.7019,-3.7924,-3.868,-3.9382,-3.9851,-4.0554,-4.147,-4.1961,-4.2621,-4.3357,-4.3831,-4.4243,-4.4517,-4.3578,-4.2922,-4.2485,-4.2485,-4.218,-4.1765,-4.181,-4.2012,-4.2193,-4.1196,-4.108,-4.1181,-4.0303,-4.0175,-4.0377,-4.0377,-4.0601,-4.0846,-4.0846,-4.0456,-4.0126,-4.0126,-3.9308,-3.8596,-3.8596,-3.8183,-3.7816,-3.7816,-3.6599,-3.5749,-3.6332,-3.5991,-3.5845,-3.6357,-3.6459,0.0,-3.6459,-3.6459,-3.6459,-3.6459,-3.6435,-3.6218,-3.5713,-3.5641,-3.5184,-3.4102,-3.3597,-3.3138,-3.2563,-3.1743,-3.1266,-3.1241,-3.063,-3.0353,-3.0353,0.0,0.0,0.0,0.0,0.0,0.0,0.0,0.0,0.0,0.0,0.0,0.0,0.0,0.0,0.0,0.0,0.0,0.0,0.0,0.0,0.0,0.0,-3.1703,-3.1887,-3.1969,-3.2023,-3.2199,-3.2402,-3.2312,-3.1896,-3.2073,-3.2079,-3.1752,-3.2105,-3.2487,-3.2912,-3.3182,-3.3731,-3.4571,-3.4802,-3.5474,-3.6588,-3.6981,-3.7779,-3.8916,-3.9174,-3.9839,-4.0831,-4.13,-4.1994,-4.2784,-4.3257,-4.3774,-4.4286,-4.4765,-4.5034,-4.5063,-4.4451,-4.4124,-4.3993,-4.3993,-4.3828,-4.3647,-4.357,-4.3397,-4.3063,-4.2437,-4.25,-4.2718,-4.2447,-4.2366,-4.2326,-4.2326,-4.1863,-4.1374,-4.1374,-4.0709,-4.0126,-4.0126,-3.9561,-3.9101,-3.9101,-3.8711,-3.8367,-3.8367,-3.7893,-3.7502,-3.7512,-3.7233,-3.7144,-3.7512,-3.7541,0.0,-3.7541,-3.7541,-3.7541,-3.7541,-3.7204,-3.6916,-3.6771,-3.605,-3.5546,-3.5453,-3.4582,-3.4094,-3.4159,-3.3199,-3.2376,-3.1734,-3.1166,-3.1141,0.0,0.0,0.0,0.0,0.0,0.0,0.0,0.0,0.0,0.0,0.0,0.0,0.0,0.0,0.0,0.0,0.0,0.0,0.0,0.0,0.0,0.0,-3.1413,-3.2133,-3.2112,-3.2146,-3.2228,-3.2443,-3.2454,-3.2326,-3.2073,-3.2262,-3.2332,-3.2263,-3.2574,-3.3083,-3.3717,-3.3908,-3.4381,-3.5378,-3.5754,-3.6414,-3.7374,-3.8182,-3.9038,-3.9953,-4.0776,-4.1532,-4.2214,-4.2812,-4.3515,0.0,-4.4611,-4.5083,-4.5522,-4.6024,-4.6221,0.0,0.0,0.0,0.0,0.0,-4.5052,-4.4954,-4.4674,-4.4501,-4.43,-4.3512,-4.3554,-4.3775,-4.3547,-4.3356,-4.3096,-4.3096,-4.2522,-4.1903,-4.1903,-4.1283,-4.0701,-4.0433,-3.9997,-3.9561,-3.9354,-3.9078,-3.8953,-3.907,0.0,0.0,-3.8768,-3.8461,-3.8346,-3.8617,-3.8671,-3.8575,-3.8359,-3.8334,-3.8238,-3.7998,-3.7709,-3.7497,-3.7384,-3.678,0.0,0.0,0.0,-3.4838,-3.4629,-3.4012,0.0,0.0,0.0,-3.2814,-3.3269,0.0,0.0,0.0,-3.2842,-3.347,0.0,0.0,0.0,0.0,0.0,0.0,0.0,0.0,0.0,0.0,0.0,0.0,0.0,0.0,0.0,0.0,-3.2207,-3.2385,-3.2557,-3.2405,-3.2449,-3.2972,-3.2358,-3.2017,-3.2353,-3.2333,-3.2373,-3.2599,-3.3228,-3.3742,-3.4064,0.0,0.0,0.0,0.0,-3.7483,-3.7702,-3.9406,-4.0388,-4.0629,-4.2354,-4.3272,-4.3447,-4.4342,-4.5019,-4.55,-4.5959,-4.6417,-4.6854,-4.7367,-4.7564,-4.7553,-4.658,-4.6189,-4.6166,-4.6083,-4.6002,0.0,0.0,0.0,0.0,-4.4528,-4.4458,-4.4612,-4.413,-4.3648,-4.3257,-4.3188,-4.2821,-4.2344,-4.2298,-4.1948,-4.1443,-4.0938,-4.0433,-3.9988,-3.9423,-3.9308,-3.9426,-3.9743,-3.9662,-3.9679,-3.9941,-3.9578,-3.9332,-3.9554,-3.9609,-3.9441,-3.896,-3.8912,-3.8695,-3.8142,0.0,0.0,-3.7688,-3.7643,-3.7358,-3.6653,-3.616,-3.5515,-3.4732,-3.4707,-3.4749,-3.4901,-3.4901,-3.4926,-3.5002,-3.5002,-3.5232,-3.5759,-3.47,-3.5002,0.0,0.0,0.0,0.0,0.0,0.0,0.0,0.0,0.0,0.0,0.0,0.0,0.0,0.0,0.0,-3.2238,-3.2501,-3.2856,-3.3497,-3.3129,-3.2758,-3.2686,-3.2584,-3.249,-3.2406,-3.2176,-3.2209,-3.2556,-3.3204,-3.3933,-3.4601,-3.507,-3.5871,-3.7112,-3.7279,-3.8139,-3.9711,-4.0083,-4.1066,-4.2617,0.0,0.0,-4.4932,-4.5478,-4.6002,-4.6483,-4.6985,-4.7247,-4.7357,-4.7805,-4.8154,-4.8437,-4.7933,-4.7653,-4.7604,-4.7914,-4.7445,-4.6815,-4.7011,-4.6605,-4.5943,-4.576,-4.5485,-4.5254,-4.5094,-4.4704,0.0,-4.3785,-4.3326,-4.2844,-4.2367,-4.1948,-4.1443,-4.0938,-4.0433,-3.9988,-3.9423,-3.9308,-3.9426,-3.9743,-3.9943,-4.014,-4.051,-3.9953,-3.9554,-3.9609,-3.9609,-3.9561,-3.9465,-3.9465,-3.9248,-3.8719,-3.8838,-3.8781,-3.8299,-3.8093,-3.8007,-3.8014,-3.7693,-3.729,-3.6686,-3.6661,-3.6461,-3.6103,-3.6078,-3.6257,-3.6709,-3.6709,-3.6985,-3.7513,-3.6408,-3.6329,0.0,0.0,0.0,0.0,0.0,0.0,0.0,0.0,0.0,0.0,0.0,-3.0622,-3.0591,0.0,-3.2272,-3.2503,-3.2976,-3.3352,-3.3488,-3.3269,-3.2986,-3.2681,-3.2679,-3.262,-3.237,-3.2555,-3.2777,-3.3088,-3.3669,-3.4377,-3.5287,-3.5827,-3.6665,-3.7895,-3.8512,-3.9296,-4.0279,-4.124,-4.2223,-4.3184,-4.3905,-4.4735,-4.5675,-4.6155,-4.6636,-4.7138,-4.7849,-4.8146,-4.8245,-4.8852,-4.9426,-4.9734,-4.9503,-4.913,-4.8681,-4.876,-4.8497,-4.8018,-4.766,-4.7227,-4.6793,-4.6288,-4.5944,-4.5691,-4.5507,-4.5002,-4.4497,-4.3969,-4.3464,-4.2982,-4.2477,-4.2155,-4.1834,-4.1329,-4.08,-4.0295,-3.979,-3.961,-3.9603,-3.9954,-4.0246,-4.0537,-4.0884,-4.0626,-4.0403,-4.0403,-4.0403,-4.0306,-4.0042,-3.9994,-3.9801,-3.9272,-3.9449,-3.9447,-3.9018,-3.8677,-3.8564,-3.8641,-3.8216,-3.7889,-3.7613,-3.7588,-3.7462,-3.7186,-3.7186,-3.7312,-3.7588,-3.7588,-3.804,-3.8843,-3.8291,-3.8165,0.0,0.0,0.0,0.0,0.0,0.0,0.0,-3.255,-3.2321,-3.1972,-3.1678,-3.1596,-3.2014,-3.2331,-3.2593,-3.2975,-3.3443,-3.3667,-3.3288,-3.3202,-3.3043,-3.2762,-3.2688,-3.252,-3.2317,-3.281,-3.3327,-3.3725,-3.4294,-3.5078,-3.6154,-3.6737,-3.7605,-3.8678,-3.9724,-4.0454,-4.0847,-4.2398,-4.3359,-4.3752,-4.4888,-4.574,-4.6308,-4.6864,-4.7302,-4.7794,-4.8664,-4.9096,-4.9273,-4.9986,-5.0555,-5.0944,-5.0944,-5.0443,-4.967,-4.9445,-4.9273,-4.8997,-4.8194,-4.7732,-4.7411,-4.6564,-4.6196,-4.6035,-4.5507,-4.5071,-4.4612,-4.3992,-4.3533,-4.3096,-4.2436,-4.2275,-4.2201,-4.1696,-4.126,-4.08,-4.0301,-4.0042,-4.0036,-4.0246,-4.0632,-4.0935,-4.1283,-4.1413,-4.1413,-4.122,-4.1172,-4.1028,-4.0595,-4.0547,-4.0355,-3.9857,-4.0061,-4.0171,-3.9956,-3.9588,-3.9346,-3.9346,-3.8919,-3.8642,-3.8642,-3.8642,-3.8642,-3.8642,-3.8642,-3.8642,-3.8642,-3.8642,-3.912,-4.0023,-4.0023,-4.0023,-3.5094,-3.4192,-3.335,-3.3288,-3.2969,-3.2674,0.0,-3.2367,-3.1972,-3.1718,-3.1904,-3.2149,-3.2334,-3.2619,-3.3153,-3.4054,-3.378,-3.3516,-3.3688,-3.3171,-3.2753,-3.2712,-3.2546,-3.2393,-3.2303,-3.2533,-3.3123,-3.4143,-3.4956,-3.5952,-3.7168,-3.7778,-3.8768,-4.0222,-4.0252,-4.1109,-4.2835,-4.3075,-4.4014,-4.5696,-4.5849,-4.6417,-4.7335,-4.8179,-4.8576,-4.8664,-4.9618,-5.0232,-5.0543,-5.0688,-5.0944,-5.1354,-5.1354,-5.1285,-5.1125,-5.0574,-4.9893,-4.9089,-4.8974,-4.8377,-4.7479,-4.6977,-4.6495,-4.6035,-4.5507,-4.5392,-4.5071,-4.4084,-4.3762,-4.351,-4.2591,-4.2275,-4.2201,-4.1696,-4.1535,-4.1337,-4.0634,-4.0439,-4.0491,-4.0632,-4.1033,-4.1542,-4.1811,-4.2338,-4.2313,-4.1317,-4.1172,-4.1172,-4.11,-4.11,-4.0998,-4.0724,-4.0978,-4.1145,-4.1118,-4.1075,-4.1,-4.1,-4.0949,-4.0924,-4.0924,-4.0924,-4.0924,-4.0924,-4.0924,-4.0924,-4.0924,-4.0924,-4.0974,-4.11,-4.11,-4.11,-3.5014,-3.4113,-3.344,-3.3595,-3.3472,-3.3377,-3.349,-3.3251,-3.2905,-3.2628,-3.2756,-3.2912,-3.2883,-3.3334,-3.3814,0.0,-3.3798,-3.3607,-3.3514,-3.3143,-3.2826,-3.2734,-3.3053,-3.3227,-3.2925,-3.3602,-3.4124,-3.4366,-3.5632,-3.6757,-3.7571,-3.878,-4.0068,-4.1318,-4.1949,-4.2669,-4.3626,-4.4408,-4.5216,-4.6002,-4.6796,-4.7585,-4.8289,-4.8874,-4.9428,-5.0029,-5.0387,-5.0789,-5.1199,-5.1199,-5.1277,-5.1431,-5.1431,-5.1431,-5.1362,-5.0834,-5.0168,-4.9525,-4.9227,-4.8653,-4.7941,-4.7138,-4.6724,-4.6403,-4.5668,-4.5438,-4.5208,-4.4107,-4.3808,-4.3579,-4.2527,-4.2275,-4.2229,-4.2063,-4.1788,-4.1568,-4.146,-4.1317,-4.1362,-4.1567,-4.1983,-4.2304,-4.2423,-4.2675,-4.2675,-4.2217,-4.2169,-4.2049,-4.1677,-4.1803,-4.1874,-4.1791,-4.1614,-4.1618,-4.1831,-4.153,-4.1275,-4.1275,-4.1275,-4.1275,-4.1275,-4.1515,-4.1622,-4.1622,-4.1757,-4.1811,-4.1811,-4.1811,-4.1881,-4.2048,-4.2048,-4.2145,-3.5033,-3.4295,-3.3851,-3.4057,-3.398,-3.3922,-3.4046,-3.3822,-3.355,-3.345,-3.3398,-3.3408,-3.3513,-3.3968,-3.4246,-3.3937,-3.3811,-3.3668,-3.348,-3.3147,-3.3014,-3.3203,-3.3639,-3.3939,-3.3985,-3.4732,-3.511,-3.4813,-3.6496,-3.7854,-3.8608,-3.9969,-4.1361,-4.2748,-4.362,-4.4343,-4.481,-4.5977,-4.6704,-4.699,-4.7999,-4.8674,-4.924,-4.9762,-5.0488,-5.1353,-5.1353,-5.151,-5.1821,-5.1684,-5.1638,-5.1615,-5.1477,-5.1431,-5.1385,-5.0995,-5.0444,-4.9847,-4.9457,-4.8928,-4.8217,-4.7206,-4.6885,-4.6678,-4.5668,-4.5438,-4.5231,-4.4267,-4.3923,-4.3602,-4.2775,-4.2367,-4.2275,-4.2275,-4.2126,-4.1992,-4.2141,-4.2146,-4.2205,-4.2364,-4.276,-4.2976,-4.2976,-4.3096,-4.3192,-4.3192,-4.3192,-4.2952,-4.2338,-4.2389,-4.2561,-4.2531,-4.2221,-4.2163,-4.2384,-4.2032,-4.1781,-4.1781,-4.1781,-4.1781,-4.1781,-4.2052,-4.2214,-4.2214,-4.2537,-4.2644,-4.2644,-4.2644,-4.2767,-4.2958,-4.2958,-4.3127,-3.5566,-3.5224,-3.4873,-3.4849,-3.4464,-3.4093,-3.4101,-3.3694,-3.3418,-3.372,-3.3599,-3.3598,-3.4235,-3.4252,-3.4262,-3.4351,-3.3922,-3.3663,-3.386,-3.3209,-3.3177,-3.4492,-3.4079,-3.4266,0.0,-3.569,-3.5649,-3.5833,-3.7527,-3.9197,-4.0617,-4.1382,-4.2668,-4.4664,-4.4885,-4.564,-4.7118,-4.7656,-4.8395,-4.9282,-4.9304,-4.965,-5.0221,-5.1086,-5.1979,-5.2855,-5.2855,-5.2855,-5.2809,-5.235,-5.2166,-5.2097,-5.1615,-5.1431,-5.1431,-5.1408,-5.0765,-4.9916,-4.9893,-4.9227,-4.8217,-4.7206,-4.6885,-4.6678,-4.5668,-4.5438,-4.5255,-4.4727,-4.4199,-4.3693,-4.3188,-4.2706,-4.2275,-4.2275,-4.257,-4.2723,-4.2544,-4.2711,-4.2936,-4.2796,-4.3144,-4.3481,-4.3481,-4.3938,-4.4237,-4.4237,-4.4237,-4.3914,-4.288,-4.2832,-4.2815,-4.2531,-4.2793,-4.2961,-4.2961,-4.2936,-4.2936,-4.2936,-4.2936,-4.2936,-4.2936,-4.3189,-4.333,-4.333,-4.3657,-4.3848,-4.3848,-4.3848,-4.3848,-4.3874,-4.3874,-4.4156,-3.5211,-3.5024,-3.4811,-3.4448,-3.4226,-3.4,-3.3642,-3.3361,-3.3231,-3.3475,-3.3623,-3.3849,-3.4324,-3.4445,-3.4468,-3.4235,-3.3952,-3.3748,-3.3542,-3.3939,-3.4272,-3.4428,-3.5321,0.0,0.0,0.0,0.0,-3.753,-3.9184,-4.0621,-4.1607,-4.2913,-4.4344,-4.573,-4.645,-4.7299,-4.8171,-4.8664,-4.9247,-4.9919,-5.0906,-5.1526,-5.2001,-5.2319,-5.2581,-5.2901,-5.2901,-5.2901,-5.2855,-5.2686,-5.2635,-5.2565,-5.2286,-5.223,-5.223,-5.223,-5.16,-5.0639,-5.0065,-4.925,-4.8217,-4.7206,-4.6885,-4.6678,-4.5668,-4.5438,-4.5323,-4.475,-4.4222,-4.3693,-4.3211,-4.2706,-4.2339,-4.2593,-4.2696,-4.2902,-4.3278,-4.3417,-4.3555,-4.378,-4.3901,-4.3997,-4.3997,-4.4165,-4.4409,-4.4594,-4.4341,-4.4038,-4.3939,-4.3521,-4.3251,-4.3369,-4.3131,-4.2986,-4.2986,-4.2986,-4.2986,-4.2986,-4.2986,-4.2986,-4.2986,-4.3487,-4.3708,-4.3708,-4.4203,-4.4422,-4.4422,-4.4422,-4.4367,-4.4174,-4.4591,-4.4763,-3.4977,-3.4763,-3.4521,-3.4201,-3.3949,-3.372,-3.3388,-3.3258,-3.3305,-3.3618,-3.3878,-3.4178,-3.4522,-3.4604,-3.452,-3.4307,-3.4043,-3.3965,-3.4137,-3.462,-3.5103,-3.5392,-3.6573,-3.7394,-3.7444,0.0,0.0,-3.8911,-4.0528,-4.192,-4.2822,-4.4167,-4.5577,-4.6988,-4.7854,-4.8708,-4.9661,-5.0158,-5.0678,-5.1153,-5.2048,-5.2776,-5.3176,-5.3176,-5.3348,-5.3669,-5.3669,-5.3749,-5.3862,-5.3482,-5.328,-5.321,-5.2794,-5.2588,-5.2588,-5.2588,-5.1953,-5.1033,-5.049,-4.9619,-4.8457,-4.7419,-4.7003,-4.6678,-4.5668,-4.5438,-4.5369,-4.4956,-4.4359,-4.3739,-4.3418,-4.2844,-4.2402,-4.2696,-4.2886,-4.3137,-4.3678,-4.3864,-4.4013,-4.4285,-4.4285,-4.4285,-4.4285,-4.4409,-4.4594,-4.4902,-4.4768,-4.4656,-4.4664,-4.4259,-4.3995,-4.4059,-4.3614,-4.3263,-4.3263,-4.3087,-4.2986,-4.2986,-4.2986,-4.3042,-4.3129,-4.3598,-4.3955,-4.4064,-4.4476,-4.4668,-4.4668,-4.4668,-4.4744,-4.4788,-4.5152,-4.543,-3.4859,-3.4497,-3.4101,-3.4075,-3.3668,-3.3309,-3.3287,-3.3329,-3.3558,-3.4118,-3.4332,-3.4522,-3.485,-3.4601,-3.4427,-3.4462,-3.4144,-3.4333,-3.552,-3.5344,-3.5722,-3.7246,-3.7792,-3.826,-3.8921,-4.0384,0.0,-4.0254,0.0,-4.3161,-4.4356,-4.5135,-4.6472,-4.8377,-4.8928,-4.9916,-5.1454,-5.1982,-5.2487,-5.2946,-5.2969,-5.3245,-5.3727,-5.3727,-5.4303,-5.5149,-5.5149,-5.5368,-5.5574,-5.4586,-5.4242,-5.4124,-5.3088,-5.2664,-5.2664,-5.2641,-5.2005,-5.1158,-5.1134,-5.0183,-4.8889,-4.7772,-4.7213,-4.6748,-4.5737,-4.5415,-4.5415,-4.5392,-4.4589,-4.3808,-4.3785,-4.3051,-4.2402,-4.2759,-4.3075,-4.3451,-4.374,-4.4075,-4.4285,-4.4285,-4.4285,-4.4347,-4.4347,-4.4594,-4.4963,-4.527,-4.5574,-4.5643,-4.5122,-4.5022,-4.4917,-4.4661,-4.4166,-4.384,-4.384,-4.3338,-4.3011,-4.3011,-4.2986,-4.3129,-4.3381,-4.3708,-4.4064,-4.4313,-4.4559,-4.4668,-4.4668,-4.4668,-4.5036,-4.5581,-4.5663,-4.6264,-3.4423,-3.4201,-3.4,-3.3591,-3.3414,-3.3302,-3.3339,-3.3393,-3.3625,-3.4394,-3.4478,-3.449,-3.4714,-3.4433,-3.4192,-3.4284,-3.4325,-3.4612,-3.5305,-3.6331,-3.7192,-3.7711,-3.8979,-4.016,-4.0868,-4.2167,0.0,0.0,-4.4466,-4.5001,-4.5826,-4.7284,-4.8321,-4.8905,-4.9778,-5.0811,-5.1982,-5.2855,-5.336,-5.3498,-5.3865,-5.4257,-5.472,-5.472,-5.5032,-5.553,-5.553,-5.5399,-5.508,-5.4736,-5.4419,-5.3992,-5.3632,-5.3521,-5.3473,-5.3091,-5.2541,-5.1919,-5.1536,-5.0507,-4.9201,-4.8193,-4.7563,-4.7098,-4.6055,-4.5619,-4.5346,-4.491,-4.4313,-4.3716,-4.3372,-4.2991,-4.2759,-4.3075,-4.3451,-4.374,-4.4075,-4.4223,-4.4285,-4.4285,-4.447,-4.4656,-4.4656,-4.4963,-4.527,-4.5635,-4.5757,-4.5768,-4.5619,-4.551,-4.5363,-4.5271,-4.4769,-4.4418,-4.4418,-4.3915,-4.3589,-4.3589,-4.3212,-4.3129,-4.3381,-4.3708,-4.4064,-4.4313,-4.4559,-4.4668,-4.4668,-4.4668,-4.5036,-4.5637,-4.6055,-4.6656,-3.4176,-3.3924,-3.3668,-3.3388,-3.3316,-3.3357,-3.3396,-3.3718,-3.4091,-3.4479,-3.4616,-3.459,-3.4576,-3.449,-3.4412,-3.4461,-3.4927,-3.5456,-3.588,-3.7207,-3.822,-3.8592,-4.0159,-4.1531,-4.2401,-4.3638,-4.4902,0.0,-4.6189,-4.6589,-4.7643,-4.8709,-4.9494,-5.0076,-5.0786,-5.1801,-5.3148,-5.4094,-5.4569,-5.4569,-5.4847,-5.5125,-5.5392,-5.5392,-5.5634,-5.6037,0.0,-5.5596,-5.5423,-5.492,-5.4496,-5.4262,-5.3963,-5.3678,-5.3461,-5.3173,-5.2596,-5.1898,-5.1586,-5.0843,-4.9866,-4.8682,-4.7981,-4.7446,-4.626,-4.5754,-4.5458,-4.4817,-4.4222,-4.3759,-4.3406,-4.309,-4.2949,-4.3389,-4.3678,-4.3864,-4.4223,-4.4285,-4.4347,-4.447,-4.4656,-4.4902,-4.5208,-4.5392,-4.5635,-4.5939,-4.5999,-4.5999,-4.5999,-4.5905,-4.5849,-4.5849,-4.5347,-4.4995,-4.4995,-4.4493,-4.4066,-4.3815,-4.3683,-4.3574,-4.3598,-4.3929,-4.4203,-4.4476,-4.4613,-4.4668,-4.4668,-4.4955,-4.5428,-4.6003,-4.6578,-4.7153,-3.429,-3.393,-3.3535,-3.3455,-3.3485,-3.3556,-3.3562,-3.4122,-3.4628,-3.4528,-3.4715,-3.4769,-3.4399,-3.4606,-3.481,-3.4743,-3.5654,-3.6456,-3.685,-3.8043,-3.909,-3.9849,-4.1362,-4.2725,-4.3704,-4.4882,-4.6153,-4.745,-4.7545,-4.8124,-4.9343,-4.97,-5.0376,-5.1495,-5.21,-5.3031,-5.4381,-5.5272,-5.5691,-5.5691,-5.5691,-5.5691,-5.5772,-5.5701,-5.5942,-5.6343,0.0,0.0,-5.5938,-5.5001,-5.4568,-5.4447,-5.3918,-5.3461,-5.3053,-5.2908,-5.2283,-5.1489,-5.1417,-5.1032,-5.0361,-4.9075,-4.8396,-4.7816,-4.6487,-4.6025,-4.5773,-4.4859,-4.4308,-4.389,-4.3636,-4.3235,-4.3075,-4.3678,-4.3802,-4.395,-4.4223,-4.4285,-4.4409,-4.4717,-4.484,-4.5086,-4.5696,-4.5817,-4.5939,-4.6266,-4.6301,-4.6301,-4.6301,-4.6301,-4.6301,-4.6301,-4.5874,-4.5598,-4.5598,-4.507,-4.4543,-4.4098,-4.4232,-4.4235,-4.4083,-4.42,-4.4422,-4.4668,-4.4668,-4.4668,-4.4668,-4.5323,-4.5924,-4.6499,-4.7074,-4.7623,-3.5231,-3.5007,-3.4844,-3.4335,-3.4226,-3.4296,-3.4455,-3.4479,-3.4558,-3.4964,-3.4876,-3.4631,-3.423,-3.4536,-3.4739,-3.4556,-3.5537,-3.6593,-3.7437,-3.8956,-4.0434,-4.1543,-4.2769,-4.4102,-4.5673,-4.6525,-4.7728,0.0,-5.0079,-5.0309,-4.9961,-5.0792,-5.1781,-5.2981,-5.3967,-5.4601,-5.4883,-5.5433,-5.5691,-5.5691,-5.5691,-5.5876,-5.6301,-5.5827,-5.5874,-5.619,-5.5692,0.0,-5.488,-5.4688,-5.4351,-5.3918,-5.3389,-5.3149,-5.2956,-5.2091,-5.1658,-5.1441,-5.0984,-5.0479,-4.9902,-4.9208,-4.881,-4.8275,-4.7163,-4.6563,-4.6083,-4.5104,-4.4776,-4.4472,-4.3575,-4.3498,-4.3701,-4.374,-4.4013,-4.4223,-4.4285,-4.4285,-4.4409,-4.4717,-4.5025,-4.5331,-4.5757,-4.5999,-4.624,-4.6301,-4.6301,-4.6301,-4.6301,-4.6301,-4.6301,-4.6301,-4.6225,-4.6175,-4.6175,-4.5648,-4.5414,-4.5522,-4.4776,-4.45,-4.4956,-4.4571,-4.4422,-4.4668,-4.4668,-4.4668,-4.4668,-4.5323,-4.5924,-4.6499,-4.7074,-4.7623,-3.5387,-3.5077,-3.4763,-3.4472,-3.4483,-3.4546,-3.4569,-3.4678,-3.4812,-3.4938,-3.4731,-3.4516,-3.4456,-3.474,-3.5048,-3.5366,-3.6328,-3.7343,-3.8078,-3.9694,-4.112,-4.2004,-4.364,-4.5355,-4.6989,-4.782,-4.9097,-5.106,-5.1423,-5.1525,-5.1513,-5.2371,-5.3262,-5.4074,-5.4933,-5.5478,-5.5682,-5.6159,-5.6358,-5.6358,-5.6358,-5.6375,-5.6295,-5.6032,-5.5902,-5.577,-5.5217,0.0,-5.4568,-5.4039,-5.3654,-5.3365,-5.286,-5.2499,-5.2187,-5.1682,-5.1321,-5.1008,-5.0455,-5.0095,-4.9803,-4.894,-4.8608,-4.826,-4.727,-4.6831,-4.6485,-4.5248,-4.4901,-4.4666,-4.3774,-4.3678,-4.3802,-4.4013,-4.4161,-4.4285,-4.4285,-4.4409,-4.4656,-4.5025,-4.5331,-4.5696,-4.5999,-4.618,-4.6301,-4.6301,-4.6301,-4.6301,-4.6301,-4.6301,-4.6301,-4.6301,-4.6301,-4.6361,-4.6566,-4.6314,-4.6155,-4.6178,-4.5841,-4.5505,-4.5248,-4.5074,-4.4898,-4.4668,-4.4668,-4.4824,-4.5192,-4.5794,-4.6369,-4.6944,-4.7519,-4.7911,-3.5631,-3.5227,-3.4815,-3.4755,-3.4789,-3.4838,-3.4618,-3.4842,-3.506,-3.494,-3.4733,-3.4634,-3.4946,-3.5147,-3.5525,-3.6184,-3.7236,-3.8184,-3.8719,-4.0387,-4.1779,-4.2495,-4.4382,-4.6323,-4.8007,-4.8921,0.0,-5.2341,-5.2565,0.0,-5.3108,-5.3915,-5.4562,-5.5111,-5.5636,-5.6113,-5.6542,-5.6861,-5.7021,-5.7021,-5.71,-5.6811,-5.6306,-5.6263,-5.5979,-5.5448,-5.4893,0.0,0.0,-5.3687,-5.33,-5.3131,-5.2453,-5.1995,-5.1609,-5.1441,-5.0984,-5.0455,-5.0022,-4.971,-4.9397,-4.8555,-4.8291,-4.8127,-4.7332,-4.7027,-4.6674,-4.5486,-4.5025,-4.4782,-4.4064,-4.3888,-4.395,-4.4223,-4.4285,-4.4347,-4.4409,-4.4594,-4.4902,-4.5331,-4.5635,-4.5878,-4.624,-4.6301,-4.6301,-4.6301,-4.6301,-4.6301,-4.6301,-4.6361,-4.6421,-4.6421,-4.6421,-4.6506,-4.6806,-4.684,-4.6841,-4.6674,-4.6837,-4.6544,-4.5667,-4.563,-4.5454,-4.5114,-4.4983,-4.5218,-4.582,-4.6369,-4.6891,-4.7278,-4.7911,-4.8172,-3.6689,-3.6446,-3.623,-3.5917,-3.5629,-3.5367,-3.5172,-3.4938,-3.4878,-3.54,-3.527,-3.5123,-3.5547,-3.5769,-3.6001,-3.6239,-3.7593,-3.8793,-3.9261,-4.1298,-4.3094,-4.4004,-4.5371,-4.7002,-4.8874,-4.9819,-5.1005,-5.2735,0.0,0.0,-5.4251,-5.4865,-5.55,-5.6052,-5.6581,-5.6893,-5.6941,-5.6941,-5.7021,-5.7021,-5.7418,-5.7285,-5.6751,-5.6651,-5.6265,-5.5726,-5.5211,0.0,0.0,-5.4132,-5.3789,-5.3299,-5.2377,-5.1991,-5.1894,-5.1078,-5.0431,-4.9926,-4.9948,-4.9229,-4.8411,-4.8315,-4.8291,-4.8195,-4.7666,-4.7095,-4.659,-4.595,-4.5446,-4.4942,-4.4367,-4.4223,-4.4285,-4.4285,-4.4285,-4.4409,-4.4717,-4.4779,-4.4963,-4.5635,-4.5757,-4.5878,-4.624,-4.6301,-4.6301,-4.6301,-4.6301,-4.6301,-4.6301,-4.6566,-4.6746,-4.6746,-4.6746,-4.6746,-4.6806,-4.6993,-4.7298,-4.7567,-4.716,-4.6965,-4.7122,-4.613,-4.5846,-4.6316,-4.582,-4.582,-4.6395,-4.697,-4.7226,-4.7278,-4.7911,-4.8172,-3.6662,-3.6383,-3.61,-3.578,-3.5522,-3.5317,-3.5436,-3.5355,-3.5361,-3.5764,-3.5625,-3.5575,-3.602,-3.6154,-3.648,-3.7316,-3.8358,-3.9392,-4.0354,-4.2176,-4.3781,-4.4678,-4.6444,-4.8214,-4.9571,-5.0963,-5.2455,-5.426,0.0,0.0,-5.6126,-5.6483,-5.6765,-5.6984,-5.7521,-5.7734,-5.7734,-5.7734,-5.7734,-5.7813,-5.755,-5.7189,-5.6651,-5.6265,-5.5801,-5.5261,-5.5065,0.0,0.0,-5.3885,-5.3418,-5.2806,-5.2125,-5.1905,-5.1785,-5.1108,-5.0628,-5.0129,-4.9475,-4.8855,-4.8243,-4.7906,-4.781,-4.7786,-4.7569,-4.7136,-4.6607,-4.6078,-4.5486,-4.4957,-4.4429,-4.4285,-4.4347,-4.4532,-4.4594,-4.4717,-4.5025,-4.527,-4.5453,-4.5757,-4.5939,-4.612,-4.624,-4.6301,-4.6301,-4.6301,-4.6481,-4.6626,-4.6626,-4.684,-4.7053,-4.7053,-4.7053,-4.7112,-4.729,-4.7468,-4.7619,-4.7997,-4.7788,-4.7586,-4.7278,-4.6834,-4.6604,-4.6473,-4.6264,-4.6421,-4.6996,-4.7231,-4.7519,-4.7858,-4.8068,-4.8172,-3.6445,-3.6132,-3.5842,-3.5794,-3.5528,-3.541,-3.582,-3.5793,-3.5828,-3.6245,-3.6106,-3.6143,-3.6817,-3.6744,-3.7,-3.8255,-3.9081,-3.9951,-4.1048,-4.2841,-4.4415,-4.5386,-4.7419,-4.9245,-5.0525,-5.2317,-5.3948,-5.548,0.0,0.0,0.0,-5.7841,-5.8006,-5.7773,-5.8089,-5.831,-5.831,-5.831,-5.8212,-5.804,-5.7724,-5.7259,-5.6545,-5.625,-5.5856,-5.5312,0.0,0.0,0.0,-5.3681,-5.3137,-5.2618,-5.2178,-5.196,-5.1886,-5.1206,-5.068,-5.0206,-4.9145,-4.8506,-4.8136,-4.7684,-4.7497,-4.7473,-4.7305,-4.6896,-4.6391,-4.603,-4.5429,-4.4765,-4.4381,-4.4347,-4.4532,-4.4717,-4.4902,-4.5025,-4.5392,-4.5635,-4.5817,-4.5939,-4.612,-4.6301,-4.6301,-4.6301,-4.6301,-4.6421,-4.6686,-4.6866,-4.69,-4.7172,-4.7324,-4.7324,-4.7442,-4.756,-4.7703,-4.7821,-4.7938,-4.8172,-4.8172,-4.8015,-4.7597,-4.7357,-4.7231,-4.6996,-4.6813,-4.7022,-4.7597,-4.7597,-4.778,-4.8172,-4.8172,-4.8172,-3.6258,-3.5846,-3.5639,-3.6234,-3.6014,-3.578,-3.6453,-3.6286,-3.6173,-3.6864,-3.6682,-3.675,-3.7969,-3.7706,-3.7675,-3.8891,-3.971,-4.041,-4.1074,-4.3187,-4.5103,-4.632,-4.8217,-5.0049,-5.1845,-5.3887,-5.5355,0.0,0.0,0.0,0.0,-5.8905,-5.912,-5.8286,-5.831,-5.831,-5.831,-5.831,-5.8015,-5.7397,-5.7861,-5.752,-5.6452,-5.6824,-5.6647,0.0,0.0,0.0,0.0,-5.3959,-5.3406,-5.2861,-5.2515,-5.2377,-5.2302,-5.1344,-5.0665,-5.0057,-4.9157,-4.8488,-4.796,-4.763,-4.7497,-4.7401,-4.6872,-4.6343,-4.5934,-4.5934,-4.5101,-4.4285,-4.4285,-4.4532,-4.4779,-4.4779,-4.5025,-4.5392,-4.5696,-4.5817,-4.5878,-4.624,-4.6301,-4.6301,-4.6301,-4.6301,-4.6421,-4.6746,-4.6806,-4.69,-4.7146,-4.7501,-4.7677,-4.7677,-4.7997,-4.8055,-4.7762,-4.7997,-4.8172,-4.8172,-4.8172,-4.8172,-4.8172,-4.7623,-4.7597,-4.8146,-4.7623,-4.7597,-4.8172,-4.8172,-4.8172,-4.8172,-4.8172,-4.8172,-3.5943,-3.5954,-3.6111,-3.6086,-3.6163,-3.6418,-3.6946,-3.6874,-3.6827,-3.7309,-3.7538,-3.7653,-3.777,-3.8227,-3.8738,-3.9321,-4.0559,-4.1653,-4.2275,-4.4384,-4.6162,-4.6948,-4.9516,-5.2026,0.0,0.0,-5.5887,0.0,0.0,0.0,0.0,-5.9287,-5.9663,-5.912,-5.912,-5.912,-5.912,-5.912,-5.8846,-5.8322,-5.81,-5.755,-5.6799,-5.6572,0.0,0.0,0.0,0.0,0.0,-5.3934,-5.3381,-5.2861,-5.2792,-5.2498,-5.2097,-5.148,-5.0705,-4.9867,-4.9257,-4.8764,-4.8379,-4.796,-4.7828,-4.7665,-4.6937,-4.6343,-4.5766,-4.4981,-4.4549,-4.4347,-4.4594,-4.4717,-4.4902,-4.5392,-4.5574,-4.5757,-4.6059,-4.612,-4.618,-4.624,-4.6301,-4.6301,-4.6301,-4.6506,-4.6686,-4.6806,-4.7138,-4.7468,-4.7501,-4.7821,-4.8055,-4.8055,-4.8114,-4.8172,-4.8055,-4.8114,-4.8172,-4.8172,-4.8172,-4.8172,-4.8172,-4.8015,-4.7989,-4.8172,-4.8015,-4.8015,-4.8172,-4.8172,-4.8172,-4.8172,-4.8172,-4.8172,-3.6012,-3.6264,-3.656,-3.6551,-3.6687,-3.6975,-3.7432,-3.7353,-3.7338,-3.7709,-3.7969,-3.8126,-3.8267,-3.8907,-3.955,-3.9919,-4.1303,-4.2593,-4.3282,-4.5129,-4.7036,-4.8728,-5.107,0.0,0.0,-5.59,0.0,0.0,0.0,0.0,0.0,-5.954,-5.9973,-5.9946,-5.9663,-5.9483,-5.9483,-5.9307,-5.893,-5.8403,-5.7851,-5.7273,-5.6721,-5.6369,0.0,0.0,0.0,0.0,0.0,-5.3632,-5.3231,-5.2929,-5.2929,-5.2578,-5.2051,-5.1498,-5.0788,-5.0015,-4.9336,-4.8942,-4.8706,-4.8379,-4.7824,-4.7256,-4.6335,-4.5886,-4.5453,-4.4525,-4.4409,-4.4532,-4.4779,-4.4963,-4.527,-4.5696,-4.5878,-4.6059,-4.624,-4.6476,-4.6627,-4.6627,-4.6778,-4.6964,-4.7111,-4.7116,-4.717,-4.747,-4.7622,-4.7762,-4.788,-4.8055,-4.8172,-4.8172,-4.8172,-4.8172,-4.8172,-4.8172,-4.8172,-4.8172,-4.8172,-4.8172,-4.8172,-4.8172,-4.8172,-4.8172,-4.8172,-4.8172,-4.8172,-4.8172,-4.8172,-4.8172,-4.8172,-4.8172,0.0,-3.6738,-3.7046,-3.7418,-3.7441,-3.7461,-3.7814,-3.7768,0.0,-3.811,-3.8082,-3.8331,-3.9284,-3.9794,-4.0211,-4.0703,-4.1984,-4.3291,-4.4205,-4.5662,-4.7853,-5.1328,-5.2694,0.0,-5.6588,-5.6453,0.0,0.0,0.0,0.0,0.0,-5.9607,-6.007,-6.0608,-5.9844,-5.9485,-5.951,-5.9007,-5.8454,-5.7901,-5.7373,-5.682,-5.6292,-5.6292,0.0,0.0,0.0,0.0,0.0,-5.3155,-5.2929,-5.2929,-5.2879,-5.2528,-5.1975,-5.1423,-5.0845,-5.0228,-4.9441,-4.9137,-4.9072,-4.8682,-4.762,-4.626,-4.5411,-4.5116,-4.4909,-4.4491,-4.4618,-4.4889,-4.4889,-4.5404,-4.5942,-4.5942,-4.6184,-4.6426,-4.6426,-4.6828,-4.7179,-4.7179,-4.7581,-4.8032,-4.8455,-4.8059,-4.7947,-4.8523,-4.8177,-4.7932,-4.8198,-4.8172,-4.8172,-4.8172,-4.8172,-4.8172,-4.8172,-4.8172,-4.8172,-4.8172,-4.8172,-4.8172,-4.8172,-4.8172,-4.8172,-4.8172,-4.8172,-4.8172,-4.8172,-4.8172,-4.8172,-4.8172,-4.8172,-4.8172,-3.7364,0.0,-3.736,-3.7499,-3.7651,-3.7794,0.0,0.0,0.0,0.0,-3.8827,-3.9438,-3.9766,-4.0316,-4.1076,-4.2147,-4.303,-4.4049,-4.5361,-4.7418,-4.9752,-5.2375,-5.3121,-5.4288,-5.6588,0.0,0.0,0.0,0.0,0.0,0.0,-5.9385,-5.9599,-5.9381,-5.9231,-5.936,-5.9794,-5.9233,-5.8697,-5.8136,-5.7983,-5.7626,-5.7091,-5.7091,0.0,0.0,0.0,0.0,-5.4126,-5.3569,-5.3204,-5.2879,-5.2477,-5.1975,-5.1398,-5.082,-5.0268,-4.9766,-4.9576,-4.9461,-4.9321,-4.8625,-4.7646,-4.6641,-4.6039,-4.5227,-4.4515,-4.4642,-4.507,-4.5573,-4.6069,-4.6613,-4.7184,-4.7345,-4.7469,-4.7531,-4.7531,-4.7631,-4.7732,-4.7732,-4.8044,-4.8393,-4.8455,-4.8759,-4.8868,-4.8635,-4.8718,-4.8636,-4.825,-4.8172,-4.8172,-4.8172,-4.8172,-4.8172,-4.8172,-4.8172,-4.8172,-4.8172,-4.8172,-4.8172,-4.8172,-4.8172,-4.8172,-4.8172,-4.8172,-4.8172,-4.8172,-4.8172,-4.8172,-4.8172,-4.8172,-4.8172,-3.8105,-3.8084,-3.7989,-3.8235,-3.8292,-3.8381,-3.8619,0.0,0.0,0.0,-3.9619,0.0,0.0,-4.1377,-4.2296,-4.2834,-4.4094,-4.5619,-4.7406,-4.9431,-5.1383,-5.3031,-5.3693,-5.4814,0.0,0.0,0.0,0.0,0.0,0.0,0.0,-5.9357,-5.9497,-5.9562,-5.9329,-5.9312,-5.9506,-5.8894,-5.8459,-5.8225,-5.7969,-5.7687,-5.7379,-5.7379,-5.6918,0.0,0.0,0.0,-5.409,-5.3673,-5.3189,-5.2707,-5.2294,-5.1599,-5.0845,-5.0519,-5.0067,-4.959,-4.959,-4.9439,-4.9074,-4.8206,-4.7406,-4.6698,-4.6216,-4.5648,-4.5181,-4.5366,-4.5944,-4.6611,-4.6948,-4.7334,-4.7746,-4.7845,-4.7908,-4.7908,-4.7908,-4.8259,-4.856,-4.856,-4.9013,-4.9529,-4.9654,-4.9734,-4.9654,-4.9291,-4.9124,-4.8878,-4.8277,-4.8172,-4.8172,-4.8172,-4.8172,-4.8172,-4.8172,-4.8172,-4.8172,-4.8172,-4.8172,-4.8172,-4.8172,-4.8172,-4.8257,-4.8431,-4.8548,-4.8606,-4.8606,-4.8489,-4.8431,-4.8431,-4.8257,-4.8172,-3.8708,-3.878,-3.871,-3.9073,-3.9015,-3.8993,-3.9367,0.0,0.0,0.0,0.0,0.0,0.0,-4.2546,0.0,-4.3351,-4.5316,-4.7595,-4.9508,-5.1282,-5.2661,-5.3619,-5.433,0.0,0.0,0.0,0.0,0.0,0.0,0.0,0.0,-5.9228,-5.9464,-5.9934,-5.949,-5.9175,-5.8936,-5.8474,-5.8243,-5.8243,-5.7755,-5.7595,-5.7595,-5.7595,-5.6978,0.0,0.0,0.0,-5.4064,-5.3793,-5.3258,-5.2523,-5.2203,-5.1414,-5.0419,-5.0318,-4.9992,-4.959,-4.949,-4.9163,-4.8661,-4.772,-4.7122,-4.6737,-4.6365,-4.6402,-4.6526,-4.6526,-4.7059,-4.762,-4.7682,-4.7921,-4.8159,-4.8159,-4.8159,-4.8159,-4.8221,-4.8875,-4.9419,-4.9482,-5.0154,-5.0804,-5.1057,-5.0794,-5.04,-5.0046,-4.9557,-4.8982,-4.8407,-4.825,-4.8172,-4.8172,-4.8172,-4.8172,-4.8172,-4.8172,-4.8172,-4.8172,-4.8172,-4.823,-4.8257,-4.8315,-4.8489,-4.8721,-4.8952,-4.9125,-4.9125,-4.8837,-4.8721,-4.8721,-4.8431,-4.8315,-3.9089,-3.9247,-3.9045,-3.8929,-3.9136,-3.9367,-3.928,0.0,0.0,0.0,0.0,0.0,0.0,-4.3401,-4.3973,0.0,0.0,-4.9196,0.0,0.0,-5.3428,-5.4548,0.0,0.0,0.0,0.0,0.0,0.0,0.0,0.0,0.0,-5.8653,-5.8679,-5.8784,-5.8679,-5.8608,-5.857,-5.8492,-5.844,-5.844,-5.8336,-5.831,-5.831,-5.831,-5.7685,0.0,0.0,-5.5803,-5.4443,-5.4376,-5.3638,-5.2565,-5.2016,-5.1235,-5.0368,-4.9891,-4.9665,-4.954,-4.9063,-4.8837,-4.8611,-4.7519,-4.7444,-4.7583,-4.707,-4.7658,-4.8384,-4.8384,-4.8244,-4.8255,-4.8509,-4.8987,-4.9339,-4.9339,-4.9339,-4.9403,-4.9723,-4.9862,-5.0041,-5.0359,-5.0727,-5.1057,-5.112,-5.1294,-5.122,-5.0734,-5.0159,-4.9557,-4.9008,-4.8512,-4.8172,-4.8172,-4.8172,-4.8172,-4.8172,-4.8172,-4.8172,-4.8172,-4.8172,-4.8315,-4.8606,-4.8837,-4.901,-4.9068,-4.9068,-4.9125,-4.9125,-4.9068,-4.9068,-4.901,-4.8721,-4.8606,-3.9295,-3.9614,-3.9768,-4.0095,-4.0363,-4.0554,-4.0674,-4.1225,-4.1812,0.0,0.0,0.0,0.0,0.0,-4.5541,-4.6779,0.0,-5.0037,-5.1231,-5.2821,-5.4159,0.0,0.0,0.0,0.0,0.0,0.0,0.0,0.0,0.0,0.0,0.0,-5.8806,-5.8806,-5.8594,-5.8523,-5.8523,-5.8523,-5.8523,-5.8523,-5.8523,-5.8523,-5.8497,-5.8183,-5.7582,-5.6798,0.0,-5.5789,-5.4779,-5.4267,-5.3535,-5.2613,-5.1681,-5.0861,-5.0175,-4.9428,-4.9163,-4.9063,-4.851,-4.8134,-4.7807,-4.7305,-4.7305,-4.7506,-4.7531,-4.8134,-4.8837,-4.9138,-4.9149,-4.9021,-4.9213,-4.9414,-4.959,-4.959,-4.9719,-4.9912,-5.0065,-5.0359,-5.0677,-5.0867,-5.112,-5.1346,-5.1346,-5.1471,-5.1413,-5.0864,-5.0289,-4.9688,-4.9165,-4.8564,-4.8172,-4.8172,-4.8172,-4.8172,-4.8172,-4.8373,-4.8489,-4.8489,-4.8489,-4.8606,-4.8895,-4.924,-4.9354,-4.9354,-4.9499,-4.9556,-4.9556,-4.9469,-4.9354,-4.9354,-4.8895,-4.8663,-3.9504,-3.9876,-4.0358,-4.1363,-4.1609,-4.1682,-4.2049,-4.2592,-4.3132,-4.361,-4.4312,0.0,0.0,0.0,0.0,0.0,0.0,0.0,0.0,0.0,0.0,0.0,0.0,0.0,0.0,0.0,0.0,0.0,0.0,0.0,0.0,0.0,-5.9228,-5.9228,-5.8806,-5.8664,-5.8664,-5.8523,-5.8523,-5.8523,-5.8523,-5.8523,-5.8497,-5.7921,-5.7346,-5.6771,-5.617,-5.5595,-5.5046,-5.4207,-5.3412,-5.2686,-5.1625,-5.0664,-4.9812,-4.9064,-4.8686,-4.8485,-4.7933,-4.7456,-4.7043,-4.6918,-4.7043,-4.738,-4.7782,-4.841,-4.9063,-4.9464,-4.959,-4.959,-4.959,-4.959,-4.959,-4.9719,-4.9912,-5.0129,-5.0295,-5.0741,-5.112,-5.1183,-5.1408,-5.1596,-5.1596,-5.1596,-5.1465,-5.1047,-5.0472,-4.9897,-4.9348,-4.8747,-4.8414,-4.8315,-4.8315,-4.8373,-4.8431,-4.8663,-4.8837,-4.8895,-4.8895,-4.901,-4.924,-4.9499,-4.967,-4.967,-4.9897,-5.001,-5.001,-4.9783,-4.967,-4.967,-4.9183,-4.8837,-3.9799,-4.0099,-4.0434,-4.1881,-4.2253,-4.2294,-4.2507,-4.3441,-4.4284,-4.434,-4.5324,-4.6434,0.0,0.0,0.0,0.0,0.0,0.0,0.0,0.0,0.0,0.0,0.0,0.0,0.0,0.0,0.0,0.0,0.0,0.0,0.0,0.0,0.0,-5.9578,-5.9228,-5.9044,-5.9044,-5.8664,-5.8523,-5.8523,-5.8523,-5.8523,-5.8497,-5.7921,-5.7346,-5.6771,-5.617,-5.5595,-5.5046,-5.4445,-5.3674,-5.2751,-5.2117,-5.0857,-4.928,-4.8913,-4.8435,-4.7883,-4.738,-4.7093,-4.6993,-4.6527,-4.7029,-4.7857,-4.7908,-4.8661,-4.954,-4.959,-4.959,-4.959,-4.959,-4.959,-4.9654,-5.0001,-5.004,-5.0257,-5.0867,-5.1057,-5.1183,-5.1471,-5.1596,-5.1596,-5.1596,-5.1596,-5.1596,-5.1544,-5.1073,-5.0498,-4.9897,-4.9348,-4.8917,-4.8685,-4.8663,-4.8779,-4.901,-4.9068,-4.9183,-4.9499,-4.9556,-4.9556,-4.9556,-4.984,-4.9953,-4.9953,-5.001,-5.001,-5.001,-4.9953,-4.9953,-4.9953,-4.967,-4.9354,-3.9974,-4.072,-4.1579,-4.2608,-4.3446,-4.4003,-4.3758,-4.4369,-4.5324,-4.6476,-4.7094,-4.7696,-4.867,0.0,0.0,0.0,0.0,0.0,0.0,0.0,0.0,0.0,0.0,0.0,0.0,0.0,0.0,0.0,0.0,0.0,0.0,0.0,0.0,-5.9969,-5.9648,-5.9438,-5.9438,-5.9298,-5.9158,-5.9158,-5.8735,-5.834,-5.7974,-5.7399,-5.6798,-5.6223,-5.5647,-5.5072,-5.4497,-5.3922,-5.3283,-5.2464,-5.1149,-5.009,-4.9153,-4.8133,-4.7606,-4.7355,-4.6803,-4.6627,-4.6602,-4.6376,-4.7029,-4.7908,-4.7908,-4.8711,-4.959,-4.959,-4.959,-4.959,-4.959,-4.959,-4.9654,-5.004,-5.0232,-5.055,-5.0994,-5.1246,-5.1471,-5.1596,-5.1596,-5.1596,-5.1596,-5.1596,-5.1596,-5.1596,-5.1126,-5.0769,-5.0777,-5.0251,-4.9923,-5.0067,-4.9696,-4.9467,-4.9438,-4.9412,-4.9556,-4.984,-4.967,-4.967,-4.984,-4.9953,-5.001,-5.001,-5.001,-5.001,-5.001,-5.001,-5.001,-5.001,-4.9727,-4.9499,-4.0071,-4.1069,-4.2373,-4.338,-4.4368,-4.5184,-4.5599,-4.5962,-4.656,-4.7853,-4.8583,-4.9262,-5.006,-5.0704,0.0,0.0,0.0,0.0,0.0,0.0,0.0,0.0,0.0,0.0,0.0,0.0,0.0,0.0,0.0,0.0,0.0,0.0,0.0,0.0,-5.9996,-5.9787,-5.9787,-5.9648,-5.9472,-5.9286,-5.8797,-5.8307,-5.7843,-5.7082,-5.6437,-5.5857,-5.5125,-5.4576,-5.4158,-5.3426,-5.2746,-5.2056,-5.0566,-4.9666,-4.9036,-4.7702,-4.709,-4.6828,-4.6451,-4.6301,-4.6301,-4.6301,-4.7029,-4.7908,-4.7908,-4.8711,-4.959,-4.959,-4.959,-4.959,-4.9719,-4.9783,-4.9847,-5.0168,-5.0678,-5.1073,-5.1209,-5.1565,-5.1831,-5.1622,-5.1596,-5.1596,-5.1596,-5.1596,-5.1596,-5.1596,-5.1345,-5.1242,-5.1276,-5.1054,-5.0917,-5.1062,-5.0746,-5.0439,-5.005,-5.0023,-5.0,-5.001,-4.984,-4.9783,-5.001,-5.001,-5.001,-5.001,-5.001,-5.001,-5.001,-5.001,-5.001,-5.001,-4.9783,-4.967,-4.0061,-4.1105,-4.2515,-4.4181,0.0,0.0,-4.7978,-4.8308,-4.8134,-4.8111,-4.9623,-5.1084,-5.1702,-5.2321,0.0,-5.3969,0.0,0.0,0.0,0.0,0.0,0.0,0.0,0.0,0.0,0.0,0.0,0.0,0.0,0.0,0.0,0.0,0.0,0.0,-6.0411,-6.0177,-6.0177,-5.9761,-5.9328,-5.8716,-5.8716,-5.8509,-5.8138,-5.7003,-5.6247,-5.583,-5.4707,-5.421,-5.4105,-5.2955,-5.2145,-5.1544,-5.0597,-4.9744,-4.8897,-4.7917,-4.7056,-4.6301,-4.6301,-4.6301,-4.6301,-4.6326,-4.7029,-4.7908,-4.7908,-4.8711,-4.959,-4.959,-4.959,-4.9654,-5.0001,-5.0129,-5.0193,-5.055,-5.1279,-5.1946,-5.1664,-5.2067,-5.2328,-5.1727,-5.1596,-5.1596,-5.1596,-5.1596,-5.1596,-5.1596,-5.1872,-5.1909,-5.1416,-5.1581,-5.173,-5.1438,-5.1679,-5.1584,-5.096,-5.0905,-5.0661,-5.0064,-5.001,-5.001,-5.001,-5.001,-5.001,-5.001,-5.001,-5.001,-5.001,-5.001,-5.001,-5.001,-5.001,-4.984,-4.1313,-4.244,0.0,-4.4915,0.0,0.0,0.0,-4.8291,0.0,-5.0354,-5.148,-5.2378,-5.3023,-5.3248,0.0,-5.4341,-5.4585,0.0,0.0,0.0,0.0,0.0,0.0,0.0,0.0,0.0,0.0,0.0,0.0,0.0,0.0,0.0,0.0,0.0,-6.0687,-6.0618,-6.0618,-6.0075,-5.971,-5.9521,-5.8657,-5.7986,-5.7356,-5.701,-5.6438,-5.5616,-5.4853,-5.4171,-5.353,-5.2354,-5.1544,-5.0969,-5.0,-4.9125,-4.8282,-4.7358,-4.6753,-4.6301,-4.6301,-4.6301,-4.6376,-4.6753,-4.7355,-4.7983,-4.8385,-4.9012,-4.959,-4.959,-4.9783,-4.9976,-5.0065,-5.0793,-5.146,-5.1588,-5.1781,-5.2154,-5.2734,-5.2668,-5.2433,-5.2276,-5.1884,-5.1596,-5.1596,-5.1783,-5.1934,-5.1934,-5.2245,-5.2474,-5.2585,-5.2863,-5.2863,-5.2328,-5.2393,-5.2208,-5.1611,-5.1557,-5.1285,-5.0661,-5.0634,-5.0444,-5.0037,-5.001,-5.001,-5.001,-5.001,-5.001,-5.001,-5.001,-5.001,-5.001,-5.001,-4.9953,-4.1884,-4.3021,0.0,-4.5685,-4.7022,-4.8338,-4.9365,0.0,0.0,-5.176,-5.263,-5.3304,-5.3922,-5.4035,0.0,0.0,0.0,0.0,0.0,0.0,0.0,0.0,0.0,0.0,0.0,0.0,0.0,0.0,0.0,0.0,0.0,0.0,0.0,0.0,0.0,-6.0647,-6.043,-6.005,-5.9643,-5.9154,-5.8422,-5.7628,-5.6712,-5.6822,-5.6279,-5.5208,-5.4261,-5.3384,-5.2616,-5.1884,-5.1282,-5.0734,-4.9924,-4.9049,-4.8206,-4.7283,-4.678,-4.6506,-4.6361,-4.6451,-4.6702,-4.6968,-4.7631,-4.8309,-4.8661,-4.9163,-4.9654,-4.9783,-4.9912,-5.0168,-5.0423,-5.1216,-5.2038,-5.2038,-5.2439,-5.2958,-5.3309,-5.3269,-5.3034,-5.2589,-5.2197,-5.1946,-5.1836,-5.1996,-5.2121,-5.2306,-5.2615,-5.2922,-5.3227,-5.347,-5.3456,-5.3103,-5.3076,-5.2832,-5.2235,-5.2181,-5.1909,-5.1312,-5.1258,-5.1095,-5.0743,-5.0254,-5.001,-5.001,-5.001,-5.001,-5.001,-5.001,-5.001,-5.001,-5.001,-5.001,-4.2104,0.0,0.0,-4.6446,-4.772,0.0,-5.099,-5.1704,-5.2184,-5.2687,0.0,-5.3978,-5.4569,-5.4681,0.0,0.0,0.0,0.0,0.0,0.0,0.0,0.0,0.0,0.0,0.0,0.0,0.0,0.0,0.0,0.0,0.0,0.0,0.0,0.0,0.0,0.0,-5.9887,-5.9778,-5.9182,0.0,-5.796,-5.7336,-5.6332,-5.6526,-5.59,-5.4496,-5.3121,-5.2208,-5.1596,-5.1596,-5.1282,-5.0734,-5.0132,-4.9377,-4.8506,-4.7614,-4.7078,-4.6822,-4.6496,-4.6753,-4.7143,-4.7255,-4.7958,-4.8786,-4.89,-4.9252,-4.9719,-5.004,-5.0193,-5.0295,-5.0931,-5.1649,-5.2116,-5.2116,-5.3205,-5.4079,-5.3635,-5.3896,-5.387,-5.2798,-5.2537,-5.2428,-5.2164,-5.2121,-5.2306,-5.265,-5.2922,-5.3227,-5.3531,-5.3592,-5.3592,-5.3592,-5.3592,-5.3375,-5.2832,-5.2805,-5.2533,-5.1936,-5.1909,-5.1882,-5.1769,-5.077,-5.0173,-5.0173,-5.0173,-5.0173,-5.0173,-5.0118,-5.0091,-5.0091,-5.0037,-5.001,0.0,-4.4124,0.0,0.0,0.0,-5.0874,-5.2137,-5.3041,-5.3585,-5.3501,-5.3976,-5.456,0.0,0.0,0.0,0.0,0.0,0.0,0.0,0.0,0.0,0.0,0.0,0.0,0.0,0.0,0.0,0.0,0.0,0.0,0.0,0.0,0.0,0.0,0.0,-6.0023,-5.9887,-5.8937,-5.834,0.0,-5.7119,-5.6549,-5.6305,-5.6377,-5.5391,-5.3741,-5.316,-5.2397,-5.1596,-5.1596,-5.1282,-5.0734,-5.0132,-4.9377,-4.8506,-4.7851,-4.7513,-4.7415,-4.7354,-4.7525,-4.7807,-4.8259,-4.8586,-4.8925,-4.9608,-4.99,-5.004,-5.0423,-5.0677,-5.0931,-5.1057,-5.2088,-5.3062,-5.3062,-5.3648,-5.4314,-5.4654,-5.4445,-5.4001,-5.3347,-5.308,-5.2744,-5.2164,-5.2553,-5.2983,-5.3349,-5.347,-5.3531,-5.3592,-5.3592,-5.3592,-5.3592,-5.3592,-5.3537,-5.3429,-5.3402,-5.3158,-5.2561,-5.2533,-5.2316,-5.1796,-5.1525,-5.1448,-5.1448,-5.1448,-5.1448,-5.1448,-5.0932,-5.0715,-5.0688,-5.0227,-5.001,0.0,0.0,0.0,0.0,0.0,0.0,0.0,-5.3597,-5.4287,-5.412,0.0,0.0,0.0,0.0,0.0,0.0,0.0,0.0,0.0,0.0,0.0,0.0,0.0,0.0,0.0,0.0,0.0,0.0,0.0,0.0,0.0,0.0,0.0,0.0,-6.0293,-5.979,-5.9019,-5.8395,-5.777,-5.7201,-5.6604,-5.6007,-5.5437,-5.5249,-5.4584,-5.3494,-5.2827,-5.2197,-5.1596,-5.1596,-5.1282,-5.076,-5.0446,-4.9854,-4.9187,-4.8669,-4.8507,-4.8461,-4.8304,-4.8477,-4.8861,-4.9165,-4.9444,-4.9723,-5.0194,-5.0359,-5.0423,-5.0741,-5.0994,-5.112,-5.1309,-5.2384,-5.34,-5.34,-5.4027,-5.4707,-5.502,-5.4863,-5.4459,-5.3725,-5.3497,-5.3187,-5.2651,-5.2983,-5.341,-5.3592,-5.3592,-5.3592,-5.3592,-5.3592,-5.3592,-5.3592,-5.3592,-5.3592,-5.3592,-5.3592,-5.3483,-5.3158,-5.313,-5.2995,-5.2696,-5.2669,-5.2398,-5.1769,-5.1769,-5.1769,-5.1769,-5.1204,-5.0905,-5.0878,-5.0281,-5.001,0.0,0.0,0.0,0.0,0.0,0.0,0.0,0.0,0.0,0.0,0.0,0.0,0.0,0.0,0.0,0.0,0.0,0.0,0.0,0.0,0.0,0.0,0.0,0.0,0.0,0.0,0.0,0.0,0.0,0.0,0.0,0.0,-6.113,-6.0368,-6.0164,-5.9445,-5.82,-5.7917,-5.7282,-5.6305,-5.6088,-5.541,-5.4324,-5.4078,-5.3734,-5.3334,-5.2518,-5.197,-5.1596,-5.1596,-5.1335,-5.0917,-5.0838,-5.0472,-5.0028,-4.962,-4.9498,-4.9541,-4.9286,-4.9523,-4.9959,-4.9959,-5.0229,-5.0588,-5.0652,-5.0652,-5.0778,-5.112,-5.1183,-5.1246,-5.1534,-5.2406,-5.3243,-5.3243,-5.4092,-5.493,-5.5046,-5.5087,-5.476,-5.3983,-5.3741,-5.3545,-5.3232,-5.341,-5.3592,-5.3592,-5.3592,-5.3592,-5.3592,-5.3592,-5.3592,-5.3592,-5.3592,-5.3592,-5.3592,-5.3592,-5.3592,-5.3592,-5.3592,-5.3592,-5.3592,-5.3592,-5.313,-5.2154,-5.2126,-5.2126,-5.2126,-5.1394,-5.1068,-5.1041,-5.0335,-5.001,0.0,0.0,0.0,0.0,0.0,0.0,0.0,0.0,0.0,0.0,0.0,0.0,0.0,0.0,0.0,0.0,0.0,0.0,0.0,0.0,0.0,0.0,0.0,0.0,0.0,0.0,0.0,0.0,0.0,0.0,0.0,-6.0373,-6.0187,-6.0066,-5.9281,-5.8756,-5.8526,-5.7231,-5.6468,-5.6278,-5.522,-5.4379,-5.3727,-5.3667,-5.3274,-5.2722,-5.258,-5.2156,-5.1596,-5.1596,-5.1544,-5.1439,-5.0969,-5.0734,-5.0603,-5.0019,-4.9967,-5.0162,-5.0162,-5.0275,-5.0486,-5.0486,-5.0537,-5.0652,-5.0931,-5.1057,-5.112,-5.1408,-5.1534,-5.1534,-5.1596,-5.2093,-5.2616,-5.2616,-5.3305,-5.4169,-5.4956,-5.4905,-5.4524,-5.3904,-5.3485,-5.3232,-5.3498,-5.3592,-5.3592,-5.3592,-5.3592,-5.3592,-5.3592,-5.3592,-5.3592,-5.3592,-5.3592,-5.3592,-5.3592,-5.3592,-5.3592,-5.3592,-5.3592,-5.3592,-5.3592,-5.3592,-5.351,-5.3375,-5.3375,-5.3375,-5.3375,-5.2235,-5.1719,-5.1665,-5.0525,-5.001,0.0,0.0,0.0,0.0,0.0,0.0,0.0,0.0,0.0,0.0,0.0,0.0,0.0,0.0,0.0,0.0,0.0,0.0,0.0,0.0,0.0,0.0,0.0,0.0,0.0,0.0,0.0,0.0,0.0,0.0,-6.0774,-6.0672,-6.0375,-5.9755,-5.9183,0.0,-5.8099,-5.6904,-5.5952,-5.5274,-5.4406,-5.3863,-5.3592,-5.3592,-5.3227,-5.2588,-5.2588,-5.2218,-5.1596,-5.1596,-5.1596,-5.157,-5.1335,-5.123,-5.1204,-5.0943,-5.0959,-5.1044,-5.1044,-5.1075,-5.1157,-5.1157,-5.1157,-5.1157,-5.1372,-5.1346,-5.1408,-5.1534,-5.1596,-5.1596,-5.1596,-5.204,-5.2548,-5.2739,-5.3286,-5.3994,-5.4496,-5.4546,-5.4368,-5.3974,-5.3635,-5.341,-5.3592,-5.3592,-5.3592,-5.3592,-5.389,-5.408,-5.408,-5.4406,-5.4623,-5.4623,-5.4623,-5.446,-5.4134,-5.408,-5.3944,-5.3619,-5.3592,-5.3592,-5.3592,-5.3592,-5.3592,-5.3592,-5.3592,-5.3592,-5.3592,-5.2398,-5.1769,-5.1742,-5.058,-5.001,0.0,0.0,0.0,0.0,0.0,0.0,0.0,0.0,0.0,0.0,0.0,0.0,0.0,0.0,0.0,0.0,0.0,0.0,0.0,0.0,0.0,0.0,0.0,0.0,0.0,0.0,0.0,0.0,0.0,0.0,-6.0582,-6.061,-6.0258,-5.9527,-5.9042,-5.8355,-5.7596,-5.645,-5.5301,-5.4243,-5.3809,-5.3592,-5.3592,-5.3531,-5.3166,-5.2588,-5.2588,-5.2218,-5.1596,-5.1596,-5.1596,-5.1596,-5.1596,-5.1596,-5.1596,-5.1596,-5.1596,-5.1596,-5.1596,-5.1596,-5.1596,-5.1596,-5.1596,-5.1596,-5.1596,-5.1596,-5.1596,-5.1596,-5.1596,-5.1596,-5.1596,-5.1999,-5.2465,-5.2691,-5.3223,-5.3757,-5.417,-5.4233,-5.419,-5.4135,-5.3815,-5.3646,-5.3782,-5.3836,-5.3836,-5.3836,-5.4324,-5.4704,-5.4704,-5.5138,-5.541,-5.541,-5.541,-5.522,-5.4758,-5.4569,-5.4297,-5.3863,-5.3673,-5.3592,-5.3592,-5.3592,-5.3592,-5.3592,-5.3592,-5.3592,-5.3592,-5.2561,-5.1964,-5.1742,-5.0743,-5.0146,0.0,0.0,0.0,0.0,0.0,0.0,0.0,0.0,0.0,0.0,0.0,0.0,0.0,0.0,0.0,0.0,0.0,0.0,0.0,0.0,0.0,0.0,0.0,0.0,0.0,0.0,0.0,0.0,0.0,0.0,-5.9317,-5.9317,-5.9289,-5.9199,-5.8327,-5.7681,-5.7342,-5.5538,-5.427,-5.3646,-5.3619,-5.3592,-5.3592,-5.3227,-5.2922,-5.2588,-5.2588,-5.2218,-5.1596,-5.1596,-5.1596,-5.1596,-5.1596,-5.1596,-5.1596,-5.1596,-5.1596,-5.1596,-5.1596,-5.1596,-5.1596,-5.1596,-5.1596,-5.1596,-5.1596,-5.1596,-5.1596,-5.1596,-5.1596,-5.1596,-5.1596,-5.1872,-5.2111,-5.2173,-5.2633,-5.3313,-5.3912,-5.4046,-5.4082,-5.4426,-5.3999,-5.3782,-5.4324,-5.4433,-5.4433,-5.4433,-5.4976,-5.5355,-5.5355,-5.5383,-5.541,-5.541,-5.541,-5.541,-5.5383,-5.4813,-5.446,-5.4433,-5.3917,-5.3592,-5.3592,-5.3592,-5.3592,-5.3592,-5.3592,-5.3592,-5.3592,-5.2968,-5.2371,-5.1742,-5.115,-5.0553,-4.3863,0.0,0.0,0.0,0.0,0.0,0.0,0.0,0.0,0.0,0.0,0.0,0.0,0.0,0.0,0.0,0.0,0.0,0.0,0.0,0.0,0.0,0.0,0.0,0.0,0.0,0.0,0.0,0.0,0.0,-5.9205,-5.884,-5.8615,-5.8615,-5.7718,-5.6787,-5.5847,-5.4951,-5.4189,-5.3592,-5.3592,-5.3592,-5.3592,-5.347,-5.3105,-5.2588,-5.2588,-5.2218,-5.1596,-5.1596,-5.1596,-5.1596,-5.1596,-5.1596,-5.1596,-5.1596,-5.1596,-5.1596,-5.1596,-5.1596,-5.1596,-5.1596,-5.1596,-5.1596,-5.1596,-5.1596,-5.1596,-5.1596,-5.1596,-5.1659,-5.1872,-5.1996,-5.2183,-5.2615,-5.3105,-5.3572,-5.4167,-5.4302,-5.4472,-5.5003,-5.4921,-5.484,-5.503,-5.5084,-5.5084,-5.5084,-5.5788,-5.6295,-5.6295,-5.6812,-5.7185,-5.7185,-5.7185,-5.702,-5.6636,-5.6032,-5.5511,-5.5154,-5.4551,-5.4221,-5.4221,-5.4221,-5.4161,-5.3894,-5.3894,-5.3833,-5.3592,-5.2881,-5.2425,-5.2167,-5.0868,-5.0219,-4.3906,-4.4908,0.0,0.0,0.0,0.0,0.0,0.0,0.0,0.0,0.0,0.0,0.0,0.0,0.0,0.0,0.0,0.0,0.0,0.0,0.0,0.0,0.0,0.0,0.0,0.0,0.0,0.0,0.0,0.0,-5.8615,-5.8221,-5.7884,-5.7688,-5.6964,-5.6066,-5.4913,-5.4494,-5.4121,-5.3592,-5.3592,-5.3592,-5.3592,-5.347,-5.3105,-5.2588,-5.2465,-5.2094,-5.1596,-5.1596,-5.1727,-5.191,-5.191,-5.2014,-5.2171,-5.1962,-5.191,-5.1858,-5.1675,-5.1596,-5.1596,-5.1596,-5.1596,-5.1596,-5.1596,-5.1596,-5.1596,-5.1596,-5.1659,-5.1783,-5.2059,-5.2245,-5.2553,-5.3105,-5.341,-5.3809,-5.4623,-5.4623,-5.4731,-5.5545,-5.5545,-5.5491,-5.5807,-5.5897,-5.5897,-5.6022,-5.6702,-5.7275,-5.7275,-5.7823,-5.8198,-5.8198,-5.8198,-5.8032,-5.7646,-5.7038,-5.643,-5.585,-5.5243,-5.4801,-5.4607,-5.4607,-5.446,-5.4254,-5.4281,-5.4074,-5.3773,-5.313,-5.2696,-5.238,-5.1165,-5.0378,0.0,0.0,0.0,0.0,0.0,0.0,0.0,0.0,0.0,0.0,0.0,0.0,0.0,0.0,0.0,0.0,0.0,0.0,0.0,0.0,0.0,0.0,0.0,0.0,0.0,0.0,0.0,0.0,0.0,-5.7378,-5.7378,-5.735,-5.7069,-5.6395,-5.6125,-5.5547,-5.4607,-5.4281,-5.3954,-5.3565,-5.3592,-5.3592,-5.3565,-5.3227,-5.2922,-5.2588,-5.2245,-5.1934,-5.1622,-5.1622,-5.1962,-5.2537,-5.2537,-5.2877,-5.3321,-5.2746,-5.2511,-5.2406,-5.1831,-5.1622,-5.1596,-5.1596,-5.1596,-5.1596,-5.1596,-5.1596,-5.1596,-5.1596,-5.1846,-5.2121,-5.2121,-5.2615,-5.3193,-5.3531,-5.3619,-5.3944,-5.5166,-5.4948,-5.4894,-5.6088,-5.5871,-5.578,-5.6667,-5.6812,-5.6938,-5.7279,-5.7811,-5.8198,-5.8198,-5.8198,-5.8198,-5.8198,-5.8198,-5.8198,-5.8198,-5.7646,-5.7038,-5.6458,-5.585,-5.5243,-5.4722,-5.4667,-5.4607,-5.4607,-5.4607,-5.446,-5.4134,-5.3773,-5.3179,-5.2382,-5.1986,-5.115,-4.4879,0.0,0.0,0.0,0.0,0.0,0.0,0.0,0.0,0.0,0.0,0.0,0.0,0.0,0.0,0.0,0.0,0.0,0.0,0.0,0.0,0.0,0.0,0.0,0.0,0.0,0.0,0.0,-5.7378,-5.7378,-5.7378,-5.6929,-5.6395,-5.5777,-5.5454,-5.5043,-5.4607,-5.4281,-5.3735,-5.2968,-5.3402,-5.3375,-5.2968,-5.3281,-5.3166,-5.2588,-5.2465,-5.242,-5.225,-5.225,-5.2616,-5.3138,-5.3138,-5.3243,-5.3373,-5.3217,-5.2877,-5.2485,-5.2302,-5.1962,-5.1596,-5.1596,-5.1596,-5.1596,-5.1596,-5.1596,-5.1659,-5.1872,-5.2059,-5.2183,-5.2677,-5.3105,-5.347,-5.3592,-5.3917,-5.446,-5.5247,-5.5815,-5.6349,-5.6858,-5.6986,-5.7123,-5.7414,-5.7633,-5.7823,-5.7949,-5.8277,-5.8578,-5.8578,-5.8767,-5.8892,-5.8892,-5.8892,-5.8892,-5.8892,-5.8395,-5.7976,-5.7808,-5.6712,-5.6041,-5.5874,-5.5454,-5.5172,-5.4908,-5.4849,-5.4758,-5.446,-5.3904,-5.3506,-5.3266,-5.1976,-5.0881,-4.5359,-4.5639,-4.5845,-4.6003,0.0,0.0,-4.723,0.0,0.0,0.0,0.0,0.0,0.0,0.0,0.0,0.0,0.0,0.0,0.0,0.0,0.0,0.0,0.0,0.0,0.0,0.0,0.0,0.0,-5.6592,-5.6592,-5.6592,-5.6254,-5.5861,-5.5524,-5.5068,-5.4664,-5.4193,-5.374,-5.3143,-5.2343,-5.294,-5.3049,-5.2723,-5.332,-5.3227,-5.2615,-5.2881,-5.2959,-5.2877,-5.3112,-5.3426,-5.3739,-5.3739,-5.3896,-5.4079,-5.3818,-5.3504,-5.3138,-5.2668,-5.2276,-5.1936,-5.1675,-5.1596,-5.1596,-5.1783,-5.1783,-5.1846,-5.2218,-5.243,-5.2615,-5.3166,-5.347,-5.3592,-5.3592,-5.4053,-5.4712,-5.5461,-5.6248,-5.6913,-5.7322,-5.7688,-5.7944,-5.8071,-5.8262,-5.8451,-5.8578,-5.8767,-5.8892,-5.8892,-5.908,-5.9205,-5.9205,-5.9205,-5.9205,-5.9205,-5.8896,-5.8587,-5.8334,-5.7603,-5.7097,-5.6845,-5.6226,-5.5771,-5.5594,-5.5342,-5.5026,-5.4758,-5.4112,-5.3593,-5.3179,-5.1832,-5.0875,-4.5855,-4.6181,-4.658,-4.6314,-4.6225,0.0,-4.6724,-4.7259,0.0,0.0,0.0,0.0,0.0,0.0,0.0,0.0,0.0,0.0,0.0,0.0,0.0,0.0,0.0,0.0,0.0,0.0,0.0,-5.5498,-5.5327,-5.5299,-5.5299,-5.5299,-5.5299,-5.5299,-5.4765,-5.4196,-5.3588,-5.2978,-5.2328,-5.1747,-5.2343,-5.2615,-5.2642,-5.3212,-5.3173,-5.2703,-5.3254,-5.3488,-5.349,-5.3975,-5.4236,-5.4314,-5.4314,-5.4628,-5.5046,-5.4497,-5.4262,-5.4053,-5.2981,-5.2563,-5.2406,-5.1805,-5.1596,-5.1721,-5.1996,-5.2121,-5.2245,-5.2553,-5.2922,-5.3254,-5.3531,-5.3592,-5.3592,-5.3592,-5.4168,-5.4855,-5.5737,-5.6491,-5.7185,-5.7706,-5.8071,-5.8325,-5.8641,-5.8704,-5.8829,-5.9142,-5.9205,-5.9205,-5.9205,-5.9205,-5.9205,-5.9205,-5.9205,-5.9205,-5.9205,-5.9205,-5.898,-5.8446,-5.8334,-5.8053,-5.7519,-5.6873,-5.6507,-5.6423,-5.5805,-5.532,-5.5026,-5.4373,-5.3653,-5.2756,-5.1814,-5.1219,-4.6872,-4.6725,-4.68,-4.658,-4.6358,0.0,-4.6982,-4.7078,0.0,0.0,0.0,0.0,0.0,0.0,0.0,0.0,0.0,0.0,0.0,0.0,0.0,0.0,0.0,0.0,0.0,0.0,-5.5905,-5.511,-5.4459,-5.4035,-5.4035,-5.4035,-5.4035,-5.4035,-5.3922,-5.3554,-5.2895,-5.2757,-5.2166,-5.1095,-5.1719,-5.2018,-5.2018,-5.2615,-5.2917,-5.3037,-5.3379,-5.3588,-5.3787,-5.4105,-5.4497,-5.4916,-5.4916,-5.4994,-5.5099,-5.4968,-5.4628,-5.4105,-5.3452,-5.2903,-5.2406,-5.1805,-5.1783,-5.1996,-5.2059,-5.2306,-5.2553,-5.2922,-5.3227,-5.3531,-5.3592,-5.3592,-5.3592,-5.3592,-5.4617,-5.5709,-5.5881,-5.7196,-5.8376,-5.8487,-5.8578,-5.8641,-5.8704,-5.8892,-5.908,-5.9205,-5.9205,-5.9205,-5.9205,-5.9205,-5.9205,-5.9205,-5.9205,-5.9205,-5.9205,-5.9205,-5.9177,-5.9036,-5.8587,-5.825,-5.8137,-5.7519,-5.6957,-5.6423,-5.5805,-5.532,-5.5026,-5.4373,-5.3773,-5.3111,-5.262,-5.1851,-4.8223,-4.8089,-4.7956,-4.7363,-4.714,0.0,0.0,-4.6849,0.0,0.0,0.0,0.0,0.0,0.0,0.0,0.0,0.0,0.0,0.0,0.0,0.0,0.0,0.0,0.0,0.0,0.0,-5.5027,-5.4431,-5.3951,-5.3726,-5.3726,-5.3726,-5.3726,-5.3726,-5.336,-5.2911,-5.2259,-5.1956,-5.1369,-5.0471,-5.1068,-5.1529,-5.1796,-5.2452,-5.2869,-5.3098,-5.386,-5.4044,-5.3851,-5.459,-5.497,-5.5099,-5.5099,-5.5099,-5.5099,-5.5099,-5.4916,-5.4576,-5.4197,-5.3658,-5.308,-5.2665,-5.2483,-5.2368,-5.2553,-5.2861,-5.3166,-5.3288,-5.347,-5.3592,-5.3592,-5.3713,-5.3833,-5.3833,-5.5005,-5.6218,-5.6341,-5.7591,-5.8767,-5.8892,-5.8955,-5.8955,-5.8955,-5.908,-5.9205,-5.9205,-5.9205,-5.9205,-5.9205,-5.9205,-5.9205,-5.9205,-5.9205,-5.9205,-5.9205,-5.9205,-5.9205,-5.9205,-5.8924,-5.8755,-5.8755,-5.8165,-5.7378,-5.6451,-5.6114,-5.5746,-5.5261,-5.479,-5.4208,-5.3636,-5.3157,-5.2353,-4.9329,-4.9299,-4.9134,-4.8373,-4.8045,-4.7674,0.0,0.0,0.0,0.0,0.0,0.0,0.0,0.0,0.0,0.0,0.0,0.0,0.0,0.0,0.0,0.0,0.0,0.0,0.0,0.0,-5.4144,-5.367,-5.3445,-5.3304,-5.3304,-5.3304,-5.3304,-5.3304,-5.2798,-5.224,-5.1624,-5.1127,-5.0628,-5.001,-5.0498,-5.1122,-5.1796,-5.2316,-5.2761,-5.3247,-5.4432,-5.4564,-5.4134,-5.526,-5.5538,-5.5299,-5.5165,-5.5165,-5.5232,-5.5232,-5.5232,-5.526,-5.4786,-5.4296,-5.3858,-5.3422,-5.3077,-5.2738,-5.3105,-5.341,-5.3592,-5.3592,-5.3652,-5.3713,-5.3713,-5.3954,-5.4194,-5.4194,-5.5287,-5.6448,-5.6804,-5.7818,-5.8752,-5.9114,-5.9205,-5.9205,-5.9205,-5.9205,-5.9205,-5.9205,-5.9205,-5.9205,-5.9205,-5.9205,-5.9205,-5.9205,-5.9205,-5.9205,-5.9205,-5.9205,-5.9205,-5.9205,-5.9205,-5.9205,-5.9205,-5.8502,-5.7631,-5.662,-5.6367,-5.6002,-5.5496,-5.5203,-5.479,-5.4254,-5.3641,-5.2861,-4.9434,-4.9299,-4.9299,-4.9164,-4.8537,-4.7837,-4.7509,0.0,-4.6398,-4.6708,0.0,0.0,0.0,0.0,0.0,0.0,0.0,0.0,0.0,0.0,0.0,0.0,0.0,0.0,0.0,0.0,0.0,-5.3243,-5.2486,-5.2012,-5.2012,-5.2012,-5.2012,-5.2012,-5.1927,-5.1625,-5.1017,-5.0934,-5.0628,-5.001,-5.0091,-5.0715,-5.1769,-5.1909,-5.2474,-5.3612,-5.4494,-5.488,-5.4834,-5.569,-5.6,-5.5934,-5.5365,-5.5299,-5.5538,-5.5538,-5.5736,-5.5841,-5.4789,-5.4363,-5.4123,-5.3068,-5.2853,-5.3105,-5.341,-5.3592,-5.3592,-5.3592,-5.3833,-5.4014,-5.4014,-5.4281,-5.4548,-5.4548,-5.5285,-5.6164,-5.6781,-5.7668,-5.8497,-5.9121,-5.9205,-5.9205,-5.9205,-5.9205,-5.9205,-5.9205,-5.9205,-5.9205,-5.9205,-5.9205,-5.9205,-5.9205,-5.9205,-5.9205,-5.9205,-5.9205,-5.9205,-5.9205,-5.9205,-5.9205,-5.9205,-5.8109,-5.7407,-5.7266,-5.617,-5.558,-5.5496,-5.5437,-5.5261,-5.4908,-5.4291,-5.3362,-5.0481,-5.0391,-5.0301,-4.9912,-4.9269,-4.8567,-4.7911,-4.7096,-4.6446,-4.644,0.0,0.0,0.0,0.0,0.0,0.0,-4.8391,0.0,0.0,0.0,0.0,0.0,0.0,0.0,0.0,0.0,0.0,0.0,0.0,-5.1101,-5.1307,-5.1253,-5.1421,-5.1787,-5.1787,-5.1513,-5.0906,-5.0906,-5.0628,-5.001,-5.0363,-5.0987,-5.1769,-5.2181,-5.2805,-5.3673,-5.4743,-5.5069,-5.4961,-5.6041,-5.6328,-5.6066,-5.5802,-5.5802,-5.5868,-5.5868,-5.6,-5.5998,-5.543,-5.4985,-5.4503,-5.3482,-5.3288,-5.341,-5.3531,-5.3713,-5.3894,-5.3894,-5.4161,-5.4401,-5.4401,-5.4639,-5.4817,-5.4817,-5.5559,-5.6329,-5.6581,-5.7201,-5.7856,-5.8109,-5.8165,-5.8165,-5.8165,-5.8755,-5.9205,-5.9205,-5.9205,-5.9093,-5.8727,-5.8699,-5.8699,-5.8699,-5.8699,-5.884,-5.9177,-5.9205,-5.9205,-5.9205,-5.9205,-5.9064,-5.8699,-5.8193,-5.7575,-5.6845,-5.6311,-5.5861,-5.5496,-5.5496,-5.5437,-5.5261,-5.4849,-5.3889,-5.1229,-5.1229,-5.1063,-5.0584,-4.9883,-4.9089,-4.8358,-4.7348,-4.6491,-4.6269,-4.6046,0.0,0.0,0.0,-4.6766,-4.7404,0.0,-4.7585,0.0,0.0,0.0,0.0,0.0,0.0,0.0,0.0,0.0,0.0,-5.0484,0.0,-5.0766,-5.066,-5.0885,-5.1281,-5.145,-5.1262,-5.0657,-5.0823,-5.0628,-5.001,-5.0607,-5.1231,-5.1796,-5.2452,-5.3049,-5.3673,-5.4894,-5.5284,-5.5114,-5.63,-5.6655,-5.6394,-5.6394,-5.6287,-5.6153,-5.6275,-5.6221,-5.6137,-5.5831,-5.5168,-5.4448,-5.3829,-5.3652,-5.3713,-5.3713,-5.3954,-5.4254,-5.4254,-5.446,-5.4699,-5.4699,-5.4936,-5.5144,-5.5144,-5.5656,-5.6226,-5.6367,-5.6788,-5.7182,-5.7471,-5.7499,-5.7559,-5.762,-5.8231,-5.8727,-5.8727,-5.8727,-5.8559,-5.8109,-5.8053,-5.8114,-5.8175,-5.8147,-5.8344,-5.8794,-5.8823,-5.8761,-5.8699,-5.8727,-5.8502,-5.8053,-5.7884,-5.735,-5.6451,-5.6254,-5.5945,-5.5496,-5.5496,-5.5496,-5.5496,-5.5144,-5.4324,0.0,0.0,0.0,-5.1199,-5.0212,-4.9209,-4.8923,-4.7673,-4.6491,-4.6269,-4.6046,-4.5895,-4.5924,-4.5924,-4.6127,-4.672,-4.6849,0.0,0.0,0.0,0.0,0.0,0.0,0.0,0.0,0.0,0.0,0.0,-5.0691,0.0,-5.0408,-5.0146,-5.0041,-5.0069,-5.0632,-5.0619,-5.0022,-5.0602,-5.0628,-5.001,-5.0607,-5.1231,-5.1796,-5.2452,-5.3049,-5.3673,-5.4894,-5.541,-5.5518,-5.6685,-5.7174,-5.7174,-5.7174,-5.6848,-5.6323,-5.6596,-5.6499,-5.6251,-5.5591,-5.465,-5.3646,-5.3619,-5.3833,-5.4074,-5.4074,-5.4341,-5.4607,-5.4607,-5.4758,-5.4967,-5.4967,-5.5203,-5.5496,-5.5496,-5.5524,-5.5693,-5.6283,-5.6451,-5.6679,-5.7598,-5.7772,-5.7891,-5.8189,-5.7828,-5.7435,-5.7435,-5.7435,-5.7435,-5.7407,-5.7407,-5.7527,-5.78,-5.78,-5.78,-5.7828,-5.7828,-5.7708,-5.7435,-5.7435,-5.7435,-5.7407,-5.6816,-5.6451,-5.6423,-5.5833,-5.5524,-5.5496,-5.5496,-5.5496,-5.5496,-5.5144,-5.4692,0.0,0.0,-5.1229,-5.1229,0.0,0.0,0.0,-4.8163,-4.711,-4.6579,-4.6135,-4.5895,-4.5895,-4.5895,-4.5953,-4.6156,-4.6218,-4.6292,0.0,-4.6882,0.0,0.0,0.0,0.0,0.0,0.0,0.0,-4.9939,-4.9588,-4.9506,0.0,-4.9498,-4.9539,-5.0013,-5.0604,-5.0698,-5.0266,-5.0712,-5.0683,-5.0346,-5.1099,-5.1611,-5.1855,-5.2859,-5.3402,-5.3673,-5.4894,-5.541,-5.5464,-5.6278,-5.6604,-5.6549,-5.617,-5.5898,-5.579,-5.6259,-5.6097,-5.5627,-5.5003,-5.4393,-5.3954,-5.3954,-5.4161,-5.4401,-5.4401,-5.4639,-5.4849,-5.4849,-5.5085,-5.532,-5.532,-5.5437,-5.5496,-5.5496,-5.5671,-5.5872,-5.607,-5.6273,-5.6504,-5.682,-5.6877,-5.6935,-5.7051,-5.6877,-5.6986,-5.7837,-5.8039,-5.7869,-5.7471,-5.7414,-5.7414,-5.7532,-5.7532,-5.7703,-5.8101,-5.813,-5.8011,-5.7652,-5.7652,-5.7422,-5.676,-5.6535,-5.6226,-5.5805,-5.5608,-5.5496,-5.5496,-5.5496,-5.5496,-5.5496,-5.5379,-5.5012,-5.1229,-5.1229,0.0,-5.1229,-5.0674,0.0,-4.9703,0.0,-4.7788,-4.7376,-4.6927,-4.6505,-4.6272,-4.6218,-4.6146,-4.594,-4.5895,-4.5895,0.0,-4.6243,0.0,0.0,0.0,-4.8478,0.0,-4.9088,-4.9388,-4.9424,-4.9207,-4.9081,0.0,0.0,-4.8995,-4.9286,-4.9904,-5.0166,-5.0041,-5.049,-5.0657,-5.0515,-5.1489,-5.1945,-5.1882,-5.3049,-5.3592,-5.3646,-5.465,-5.5084,-5.5138,-5.5735,-5.598,-5.5952,-5.5573,-5.5274,-5.5166,-5.5762,-5.5662,-5.5189,-5.4563,-5.4342,-5.4281,-5.4281,-5.452,-5.4758,-5.4758,-5.4936,-5.5203,-5.5203,-5.532,-5.5496,-5.5496,-5.5554,-5.5671,-5.5671,-5.5903,-5.6135,-5.6135,-5.6308,-5.6451,-5.6537,-5.6595,-5.6623,-5.668,-5.6737,-5.691,-5.7508,-5.7623,-5.748,-5.708,-5.7023,-5.7081,-5.7225,-5.7225,-5.7368,-5.7798,-5.7681,-5.7505,-5.7329,-5.7211,-5.6863,-5.6291,-5.6145,-5.5917,-5.5524,-5.5496,-5.5496,-5.5496,-5.5496,-5.5496,-5.5496,-5.5496,-5.5299]}]]